[[{"header":{"parameterUnit":"m.s-1","parameterCategory":1,"la1":30.6,"la2":28.766,"lo1":-90.7593,"lo2":-88.6598,"dy":0.0162,"dx":0.0183,"nx":116,"ny":114,"refTime":"2023-06-08T06:00:00:Z","depth":0,"parameterNumber":2,"parameterNumberName":"U-component_of_WINDS"},"data":[0.0,0.0,0.0,0.0,0.0,0.0,0.0,0.0,0.0,0.0,0.0,0.0,0.0,0.0,0.0,0.0,0.0,0.0,0.0,0.0,0.0,0.0,0.0,0.0,0.0,0.0,0.0,0.0,0.0,0.0,0.0,0.0,0.0,0.0,0.0,0.0,0.0,0.0,0.0,0.0,0.0,0.0,0.0,0.0,0.0,0.0,0.0,0.0,0.0,0.0,0.0,0.0,0.0,0.0,0.0,0.0,0.0,0.0,0.0,0.0,0.0,0.0,0.0,0.0,0.0,0.0,0.0,0.0,0.0,0.0,0.0,0.0,0.0,0.0,0.0,0.0,0.0,0.0,0.0,0.0,0.0,0.0,0.0,0.0,0.0,0.0,0.0,0.0,0.0,0.0,0.0,0.0,0.0,0.0,0.0,0.0,0.0,0.0,0.0,0.0,0.0,0.0,0.0,0.0,0.0,0.0,0.0,0.0,0.0,0.0,0.0,0.0,0.0,0.0,0.0,0.0,0.0,0.0,0.0,0.0,0.0,0.0,0.0,0.0,0.0,0.0,0.0,0.0,0.0,0.0,0.0,0.0,0.0,0.0,0.0,0.0,0.0,0.0,0.0,0.0,0.0,0.0,0.0,0.0,0.0,0.0,0.0,0.0,0.0,0.0,0.0,0.0,0.0,0.0,0.0,0.0,0.0,0.0,0.0,0.0,0.0,0.0,0.0,0.0,0.0,0.0,0.0,0.0,0.0,0.0,0.0,0.0,0.0,0.0,0.0,0.0,0.0,0.0,0.0,0.0,0.0,0.0,0.0,0.0,0.0,0.0,0.0,0.0,0.0,0.0,0.0,0.0,0.0,0.0,0.0,0.0,0.0,0.0,0.0,0.0,0.0,0.0,0.0,0.0,0.0,0.0,0.0,0.0,0.0,0.0,0.0,0.0,0.0,0.0,0.0,0.0,0.0,0.0,0.0,0.0,0.0,0.0,0.0,0.0,0.0,0.0,0.0,0.0,0.0,0.0,0.0,0.0,0.0,0.0,0.0,0.0,0.0,0.0,0.0,0.0,0.0,0.0,0.0,0.0,0.0,0.0,0.0,0.0,0.0,0.0,0.0,0.0,0.0,0.0,0.0,0.0,0.0,0.0,0.0,0.0,0.0,0.0,0.0,0.0,0.0,0.0,0.0,0.0,0.0,0.0,0.0,0.0,0.0,0.0,0.0,0.0,0.0,0.0,0.0,0.0,0.0,0.0,0.0,0.0,0.0,0.0,0.0,0.0,0.0,0.0,0.0,0.0,0.0,0.0,0.0,0.0,0.0,0.0,0.0,0.0,0.0,0.0,0.0,0.0,0.0,0.0,0.0,0.0,0.0,0.0,0.0,0.0,0.0,0.0,0.0,0.0,0.0,0.0,0.0,0.0,0.0,0.0,0.0,0.0,0.0,0.0,0.0,0.0,0.0,0.0,0.0,0.0,0.0,0.0,0.0,0.0,0.0,0.0,0.0,0.0,0.0,0.0,0.0,0.0,0.0,0.0,0.0,0.0,0.0,0.0,0.0,0.0,0.0,0.0,0.0,0.0,0.0,0.0,0.0,0.0,0.0,0.0,0.0,0.0,0.0,0.0,0.0,0.0,0.0,0.0,0.0,0.0,0.0,0.0,0.0,0.0,0.0,0.0,0.0,0.0,0.0,0.0,0.0,0.0,0.0,0.0,0.0,0.0,0.0,0.0,0.0,0.0,0.0,0.0,0.0,0.0,0.0,0.0,0.0,0.0,0.0,0.0,0.0,0.0,0.0,0.0,0.0,0.0,0.0,0.0,0.0,0.0,0.0,0.0,0.0,0.0,0.0,0.0,0.0,0.0,0.0,0.0,0.0,0.0,0.0,0.0,0.0,0.0,0.0,0.0,0.0,0.0,0.0,0.0,0.0,0.0,0.0,0.0,0.0,0.0,0.0,0.0,0.0,0.0,0.0,0.0,0.0,0.0,0.0,0.0,0.0,0.0,0.0,0.0,0.0,0.0,0.0,0.0,0.0,0.0,0.0,0.0,0.0,0.0,0.0,0.0,0.0,0.0,0.0,0.0,0.0,0.0,0.0,0.0,0.0,0.0,0.0,0.0,0.0,0.0,0.0,0.0,0.0,0.0,0.0,0.0,0.0,0.0,0.0,0.0,0.0,0.0,0.0,0.0,0.0,0.0,0.0,0.0,0.0,0.0,0.0,0.0,0.0,0.0,0.0,0.0,0.0,0.0,0.0,0.0,0.0,0.0,0.0,0.0,0.0,0.0,0.0,0.0,0.0,0.0,0.0,0.0,0.0,0.0,0.0,0.0,0.0,0.0,0.0,0.0,0.0,0.0,0.0,0.0,0.0,0.0,0.0,0.0,0.0,0.0,0.0,0.0,0.0,0.0,0.0,0.0,0.0,0.0,0.0,0.0,0.0,0.0,0.0,0.0,0.0,0.0,0.0,0.0,0.0,0.0,0.0,0.0,0.0,0.0,0.0,0.0,0.0,0.0,0.0,0.0,0.0,0.0,0.0,0.0,0.0,0.0,0.0,0.0,0.0,0.0,0.0,0.0,0.0,0.0,0.0,0.0,0.0,0.0,0.0,0.0,0.0,0.0,0.0,0.0,0.0,0.0,0.0,0.0,0.0,0.0,0.0,0.0,0.0,0.0,0.0,0.0,0.0,0.0,0.0,0.0,0.0,0.0,0.0,0.0,0.0,0.0,0.0,0.0,0.0,0.0,0.0,0.0,0.0,0.0,0.0,0.0,0.0,0.0,0.0,0.0,0.0,0.0,0.0,0.0,0.0,0.0,0.0,0.0,0.0,0.0,0.0,0.0,0.0,0.0,0.0,0.0,0.0,0.0,0.0,0.0,0.0,0.0,0.0,0.0,0.0,0.0,0.0,0.0,0.0,0.0,0.0,0.0,0.0,0.0,0.0,0.0,0.0,0.0,0.0,0.0,0.0,0.0,0.0,0.0,0.0,0.0,0.0,0.0,0.0,0.0,0.0,0.0,0.0,0.0,0.0,0.0,0.0,0.0,0.0,0.0,0.0,0.0,0.0,0.0,0.0,0.0,0.0,0.0,0.0,0.0,0.0,0.0,0.0,0.0,0.0,0.0,0.0,0.0,0.0,0.0,0.0,0.0,0.0,0.0,0.0,0.0,0.0,0.0,0.0,0.0,0.0,0.0,0.0,0.0,0.0,0.0,0.0,0.0,0.0,0.0,0.0,0.0,0.0,0.0,0.0,0.0,0.0,0.0,0.0,0.0,0.0,0.0,0.0,0.0,0.0,0.0,0.0,0.0,0.0,0.0,0.0,0.0,0.0,0.0,0.0,0.0,0.0,0.0,0.0,0.0,0.0,0.0,0.0,0.0,0.0,0.0,0.0,0.0,0.0,0.0,0.0,0.0,0.0,0.0,0.0,0.0,0.0,0.0,0.0,0.0,0.0,0.0,0.0,0.0,0.0,0.0,0.0,0.0,0.0,0.0,0.0,0.0,0.0,0.0,0.0,0.0,0.0,0.0,0.0,0.0,0.0,0.0,0.0,0.0,0.0,0.0,0.0,0.0,0.0,0.0,0.0,0.0,0.0,0.0,0.0,0.0,0.0,0.0,0.0,0.0,0.0,0.0,0.0,0.0,0.0,0.0,0.0,0.0,0.0,0.0,0.0,0.0,0.0,0.0,0.0,0.0,0.0,0.0,0.0,0.0,0.0,0.0,0.0,0.0,0.0,0.0,0.0,0.0,0.0,0.0,0.0,0.0,0.0,0.0,0.0,0.0,0.0,0.0,0.0,0.0,0.0,0.0,0.0,0.0,0.0,0.0,0.0,0.0,0.0,0.0,0.0,0.0,0.0,0.0,0.0,0.0,0.0,0.0,0.0,0.0,0.0,0.0,0.0,0.0,0.0,0.0,0.0,0.0,0.0,0.0,0.0,0.0,0.0,0.0,0.0,0.0,0.0,0.0,0.0,0.0,0.0,0.0,0.0,0.0,0.0,0.0,0.0,0.0,0.0,0.0,0.0,0.0,0.0,0.0,0.0,0.0,0.0,0.0,0.0,0.0,0.0,0.0,0.0,0.0,0.0,0.0,0.0,0.0,0.0,0.0,0.0,0.0,0.0,0.0,0.0,0.0,0.0,0.0,0.0,0.0,0.0,0.0,0.0,0.0,0.0,0.0,0.0,0.0,0.0,0.0,0.0,0.0,0.0,0.0,0.0,0.0,0.0,0.0,0.0,0.0,0.0,0.0,0.0,0.0,0.0,0.0,0.0,0.0,0.0,0.0,0.0,0.0,0.0,0.0,0.0,0.0,0.0,0.0,0.0,0.0,0.0,0.0,0.0,0.0,0.0,0.0,0.0,0.0,0.0,0.0,0.0,0.0,0.0,0.0,0.0,0.0,0.0,0.0,0.0,0.0,0.0,0.0,0.0,0.0,0.0,0.0,0.0,0.0,0.0,0.0,0.0,0.0,0.0,0.0,0.0,0.0,0.0,0.0,0.0,0.0,0.0,0.0,0.0,0.0,0.0,0.0,0.0,0.0,0.0,0.0,0.0,0.0,0.0,0.0,0.0,0.0,0.0,0.0,0.0,0.0,0.0,0.0,0.0,0.0,0.0,0.0,0.0,0.0,0.0,0.0,0.0,0.0,0.0,0.0,0.0,0.0,0.0,0.0,0.0,0.0,0.0,0.0,0.0,0.0,0.0,0.0,0.0,0.0,0.0,0.0,0.0,0.0,0.0,0.0,0.0,0.0,0.0,0.0,0.0,0.0,0.0,0.0,0.0,0.0,0.0,0.0,0.0,0.0,0.0,0.0,0.0,0.0,0.0,0.0,0.0,0.0,0.0,0.0,0.0,0.0,0.0,0.0,0.0,0.0,0.0,0.0,0.0,0.0,0.0,0.0,0.0,0.0,0.0,0.0,0.0,0.0,0.0,0.0,0.0,0.0,0.0,0.0,0.0,0.0,0.0,0.0,0.0,0.0,0.0,0.0,0.0,0.0,0.0,0.0,0.0,0.0,0.0,0.0,0.0,0.0,0.0,0.0,0.0,0.0,0.0,0.0,0.0,0.0,0.0,0.0,0.0,0.0,0.0,0.0,0.0,0.0,0.0,0.0,0.0,0.0,0.0,0.0,0.0,0.0,0.0,0.0,0.0,0.0,0.0,0.0,0.0,0.0,0.0,0.0,0.0,0.0,0.0,0.0,0.0,0.0,0.0,0.0,0.0,0.0,0.0,0.0,0.0,0.0,0.0,0.0,0.0,0.0,0.0,0.0,0.0,0.0,0.0,0.0,0.0,0.0,0.0,0.0,0.0,0.0,0.0,0.0,0.0,0.0,0.0,0.0,0.0,0.0,0.0,0.0,0.0,0.0,0.0,0.0,0.0,0.0,0.0,0.0,0.0,0.0,0.0,0.0,0.0,0.0,0.0,0.0,0.0,0.0,0.0,0.0,0.0,0.0,0.0,0.0,0.0,0.0,0.0,0.0,0.0,0.0,0.0,0.0,0.0,0.0,0.0,0.0,0.0,0.0,0.0,0.0,0.0,0.0,0.0,0.0,0.0,0.0,0.0,0.0,0.0,0.0,0.0,0.0,0.0,0.0,0.0,0.0,0.0,0.0,0.0,0.0,0.0,0.0,0.0,0.0,0.0,0.0,0.0,0.0,0.0,0.0,0.0,0.0,0.0,0.0,0.0,0.0,0.0,0.0,0.0,0.0,0.0,0.0,0.0,0.0,0.0,0.0,0.0,0.0,0.0,0.0,0.0,0.0,0.0,0.0,0.0,0.0,0.0,0.0,0.0,0.0,0.0,0.0,0.0,0.0,0.0,0.0,0.0,0.0,0.0,0.0,0.0,0.0,0.0,0.0,0.0,0.0,0.0,0.0,0.0,0.0,0.0,0.0,0.0,0.0,0.0,0.0,0.0,0.0,0.0,0.0,0.0,0.0,0.0,0.0,0.0,0.0,0.0,0.0,0.0,0.0,0.0,0.0,0.0,0.0,0.0,0.0,0.0,0.0,0.0,0.0,0.0,0.0,0.0,0.0,0.0,0.0,0.0,0.0,0.0,0.0,0.0,0.0,0.0,0.0,0.0,0.0,1.561,0.0,0.0,0.0,0.0,0.0,0.0,0.0,0.0,0.0,0.0,0.0,0.0,0.0,0.0,0.0,0.0,0.0,0.0,0.0,0.0,0.0,0.0,0.0,0.0,0.0,0.0,0.0,0.0,0.0,0.0,0.0,0.0,0.0,0.0,0.0,0.0,0.0,0.0,0.0,-0.7513,-0.511,-0.2209,-0.3036,-0.374,-0.4401,0.0,0.0,0.0,0.0,0.0,0.0,0.0,0.0,0.0,0.0,0.0,0.0,0.0,0.0,0.0,0.0,0.0,0.0,0.0,0.0,0.0,0.0,0.0,0.0,0.0,0.0,0.0,0.0,0.0,0.0,0.0,0.0,0.0,0.0,0.0,0.0,0.0,0.0,0.0,0.0,0.0,0.0,0.0,0.0,0.0,0.0,0.0,0.0,0.0,0.0,0.0,0.0,0.0,0.0,0.0,0.0,0.0,0.0,0.0,0.0,0.0,0.0,0.0,0.0,0.0,0.0,0.0,0.0,0.0,0.0,0.0,1.1559,0.0,0.0,0.0,0.0,0.0,0.0,0.0,0.0,0.0,0.0,0.0,0.0,0.0,0.0,0.0,0.0,0.0,0.0,0.0,0.0,0.0,0.0,0.0,0.0,-0.9176,-0.9431,-0.92,-0.9117,0.0,0.0,0.0,0.0,0.0,0.0,0.0,-0.9106,-0.9478,-1.0169,-0.6639,-0.343,-0.0556,-0.0204,-0.0931,-0.2672,-0.5468,0.0,0.0,0.0,0.0,0.0,0.0,0.0,0.0,0.0,0.0,0.0,0.0,0.0,0.0,0.0,0.0,0.0,0.0,0.0,0.0,0.0,0.0,0.0,0.0,0.0,0.0,0.0,0.0,0.0,0.0,0.0,0.0,0.0,0.0,0.0,0.0,0.0,0.0,0.0,0.0,0.0,0.0,0.0,0.0,0.0,0.0,0.0,0.0,0.0,0.0,0.0,0.0,0.0,0.0,0.0,0.0,0.0,0.0,0.0,0.0,0.0,0.0,0.0,1.5353,1.3579,1.4351,1.3546,1.2238,1.0366,0.5577,0.889,1.7675,0.0,0.0,0.0,0.0,0.0,0.0,0.0,0.0,0.0,0.0,0.0,0.0,0.0,0.0,0.0,0.0,0.0,0.0,0.0,0.0,0.0,0.0,-0.8481,-0.8623,-0.9962,-0.8816,-0.8531,0.0,0.0,0.0,0.0,0.0,0.0,-0.8835,-0.8913,-0.9022,-0.9184,-0.3496,-0.0183,0.0819,0.0968,0.1203,0.1599,0.1315,-0.1424,-0.5672,0.0,0.0,0.0,0.0,0.0,0.0,0.0,0.0,0.0,0.0,0.0,0.0,0.0,0.0,0.0,0.0,0.0,0.0,0.0,0.0,0.0,0.0,0.0,0.0,0.0,0.0,0.0,0.0,0.0,0.0,0.0,0.0,0.0,0.0,0.0,0.0,0.0,0.0,0.0,0.0,0.0,1.6013,1.4458,0.0,0.0,0.0,0.0,0.0,0.0,0.0,0.0,0.0,0.0,0.0,0.0,0.0,0.885,1.0703,1.6042,1.8773,1.884,1.8028,1.7717,1.7844,1.7887,1.7738,1.7221,1.2696,0.0,1.4105,1.6766,0.0,0.0,0.0,0.0,0.0,0.0,0.0,0.0,0.0,0.0,0.0,0.0,0.0,0.0,0.0,0.0,0.0,0.0,0.0,0.0,0.0,-0.8138,-0.8213,-0.8846,-0.8055,-0.788,-0.8716,-0.8531,0.0,0.0,0.0,-0.8264,-0.8672,-0.7647,-0.6424,-0.5023,-0.2907,-0.0045,0.3444,0.3752,0.4558,0.5756,0.6296,0.3454,-0.1651,0.0111,0.0,0.0,0.0,0.0,0.0,0.0,0.0,0.0,0.0,0.0,0.0,0.0,0.0,0.0,0.0,0.0,0.0,0.0,0.0,0.0,0.0,0.0,0.0,0.0,0.0,0.0,0.0,0.0,0.0,0.0,0.0,0.0,0.0,0.0,0.0,0.0,0.0,0.0,0.0,0.5803,1.0892,1.2022,1.015,0.6169,0.0,0.0,0.0,0.0,0.0,0.0,0.0,0.0,0.0,0.9035,1.0313,1.258,1.604,1.8449,1.9675,1.9785,1.9752,1.9934,2.0304,2.0388,2.0239,1.9743,1.7561,1.6576,1.6425,1.4642,1.4309,1.4043,0.0,0.0,0.0,0.0,0.5242,0.4664,0.0,0.0,0.0,0.0,0.0,0.0,0.0,0.0,0.0,0.0,0.0,0.0,-0.804,-0.8081,-0.8171,-0.8326,-0.7748,-0.7766,-0.8711,-0.823,0.0,0.0,-0.8226,-0.7987,-0.8549,-0.6339,-0.4152,-0.2039,-0.2061,0.0205,0.4628,0.5582,0.6679,0.7914,0.8936,0.6292,0.1285,0.2616,0.139,-0.1455,0.0,0.0,0.0,0.0,0.0,0.0,0.0,0.0,0.0,0.0,0.0,0.0,0.0,0.0,0.0,0.0,0.0,0.0,0.0,0.0,0.0,0.0,0.0,0.0,0.0,0.0,0.0,0.0,0.0,0.0,0.0,0.0,0.0,0.0,0.0,0.0,0.0,0.3729,0.6575,0.8753,0.8048,0.6367,0.0,0.0,0.0,0.0,0.0,0.0,0.6499,0.6521,0.8799,1.3797,1.4135,1.5909,1.9482,1.9864,2.0072,2.0104,2.0196,2.0406,2.075,2.0955,2.0784,2.0306,2.0072,1.9771,1.9045,1.4516,1.3066,1.3482,1.1409,0.8918,0.6499,0.6451,0.6523,0.6737,0.0,0.0,0.0,0.0,0.0,0.0,0.0,0.0,0.0,0.0,0.0,-0.8729,-0.865,-0.8558,-0.8752,-0.9439,-0.8339,-0.8662,-1.1239,-0.9039,-0.8453,-1.032,-0.9087,-0.8371,-0.8409,-0.539,-0.3378,-0.2479,0.0211,0.1891,0.2684,0.5033,0.632,0.6822,0.8292,0.5865,0.0869,0.4121,0.2052,-0.3484,-0.3744,0.0,0.0,0.0,0.0,0.0,0.0,0.0,0.0,0.0,0.0,0.0,0.0,0.0,0.0,0.0,0.0,0.0,0.0,0.0,0.0,0.0,0.0,0.0,0.0,0.0,0.0,0.0,0.0,0.0,0.0,0.0,0.0,0.0,0.0,0.0,0.0,0.0,0.0,0.6985,1.1861,0.0,0.0,0.0,0.0,0.5333,0.4001,0.5578,1.0798,1.0898,1.3067,1.8028,1.8827,1.9263,1.951,1.9422,1.9083,1.8533,1.8858,1.8721,1.819,1.8975,1.9302,1.9275,1.9516,1.9722,1.9726,1.8126,1.7327,1.6646,1.1696,0.9527,0.924,0.9466,0.9279,0.9668,0.0,0.0,0.0,0.0,0.0,0.0,0.0,0.0,-0.7522,-0.7711,-0.7679,-0.7946,-0.873,-0.8213,-0.7912,-0.8146,-0.751,-0.7382,-0.8009,-0.7652,-0.7921,-0.9104,-0.8587,-0.7743,-0.6635,-0.4777,-0.3182,-0.1916,-0.083,0.0558,0.2276,0.4097,0.5592,0.6768,0.748,0.6821,0.522,0.7463,0.6143,0.2526,0.2653,0.0365,0.0,0.0,0.0,0.0,0.0,0.0,0.0,0.0,0.0,0.0,0.0,0.0,0.0,0.0,0.0,0.0,0.0,0.0,0.0,0.0,0.0,0.0,0.0,0.0,0.0,0.0,0.0,0.0,0.0,0.0,0.0,0.0,0.0,0.0,0.0,0.0,0.0,0.816,1.1082,0.0,0.9394,0.9613,0.9518,0.8549,1.0928,1.3447,1.5783,1.5862,1.667,1.8597,1.8874,1.8951,1.8946,1.8809,1.8371,1.7704,1.7399,1.7306,1.7404,1.7716,1.787,1.7884,1.8301,1.8317,1.8008,1.7578,1.7316,1.6907,1.3861,1.2922,1.3343,1.3993,1.4449,1.5093,0.0,0.0,0.0,0.0,0.0,0.0,0.0,0.0,-0.716,-0.7766,-0.7619,-0.7745,-0.8499,-0.8005,-0.7644,-0.7654,-0.7115,-0.7173,-0.8087,-0.7747,-0.8259,-0.9981,-0.8828,-0.716,-0.5093,-0.4308,-0.3225,-0.1756,-0.1725,-0.0657,0.1455,0.2854,0.4306,0.5647,0.663,0.7112,0.7267,0.8488,0.8066,0.6542,0.5598,0.1748,-0.3394,0.0,0.0,0.0,0.0,0.0,0.0,0.0,0.0,0.0,0.0,0.0,0.0,0.0,0.0,0.0,0.0,0.0,0.0,0.0,0.0,0.0,0.0,0.0,0.0,0.0,0.0,0.0,0.0,0.0,0.0,0.0,0.0,0.0,0.0,0.0,0.754,0.9038,1.2064,1.333,1.1586,1.2278,1.2829,1.2922,1.599,1.8037,1.8422,1.8329,1.8298,1.8286,1.8108,1.795,1.7793,1.7659,1.7202,1.6381,1.5936,1.5889,1.6187,1.6202,1.6335,1.6537,1.688,1.6796,1.6432,1.6111,1.6071,1.6051,1.5356,1.5339,1.5731,1.6323,1.674,1.7111,0.0,0.0,0.0,0.0,0.0,0.0,0.0,-0.7182,-0.7752,-0.8078,-0.8311,-0.8306,-0.7973,-0.8042,-0.8106,-0.8106,-0.7309,-0.8304,-1.1827,-0.9453,-0.948,-1.3038,-0.9843,-0.6751,-0.4153,-0.3962,-0.3355,-0.2194,-0.2193,-0.1501,-0.007,0.1291,0.2394,0.3342,0.5594,0.6535,0.6433,0.6994,0.7513,0.7649,0.4396,0.0943,-0.252,0.0,0.0,0.0,0.0,0.0,0.0,0.0,0.0,0.0,0.0,0.0,0.0,0.0,0.0,0.0,0.0,0.0,0.0,0.0,0.0,0.0,0.0,0.0,0.0,0.0,0.0,0.0,0.0,0.0,0.0,0.0,0.0,0.0,0.2866,0.8353,1.1328,0.9612,1.5245,1.8688,1.7196,1.7508,1.7991,1.8382,1.8508,1.8543,1.844,1.8187,1.7829,1.7335,1.6845,1.6465,1.6095,1.5934,1.5408,1.4486,1.4412,1.4313,1.4287,1.4363,1.4713,1.5177,1.5177,1.5177,1.509,1.4079,1.3866,1.4323,1.595,1.6405,1.6138,1.6142,1.5818,1.5368,0.0,0.0,0.0,0.0,0.0,0.0,0.0,-0.7486,-0.8333,-0.8585,-0.8949,-0.9037,-0.8649,-0.8535,-0.8247,-0.7729,-0.7485,-0.7727,-0.8594,-0.8323,-0.8876,-1.0534,-0.8552,-0.7203,-0.6741,-0.5186,-0.4122,-0.3779,-0.2799,-0.2106,-0.1731,-0.0072,0.1407,0.2758,0.3597,0.4525,0.5476,0.5994,0.6257,0.6381,0.6673,0.4477,0.0966,0.0,0.0,0.0,0.0,0.0,0.0,0.0,0.0,0.0,0.0,0.0,0.0,0.0,0.0,0.0,0.0,0.0,0.0,0.0,0.0,0.0,0.0,0.0,0.0,0.0,0.0,0.0,0.0,0.0,0.0,0.0,0.0,0.7327,0.7976,1.0179,1.2767,1.5606,1.7984,1.9299,1.8856,1.8438,1.8436,1.885,1.8501,1.7988,1.7463,1.7189,1.6592,1.5607,1.5237,1.4757,1.4189,1.3441,1.2708,1.1974,1.1458,1.1465,1.1927,1.1958,1.2318,1.2926,1.2926,1.2926,1.2918,1.2707,1.2734,1.3076,1.4072,1.4551,1.4703,1.5163,1.528,1.5242,0.0,0.0,0.0,0.0,0.0,0.0,0.0,-0.7281,-0.8139,-0.8499,-0.8706,-0.8746,-0.8485,-0.8187,-0.7866,-0.7463,-0.7895,-0.8372,-0.8663,-0.9241,-0.9244,-0.8539,-0.7715,-0.7091,-0.6723,-0.5555,-0.4819,-0.4563,-0.3542,-0.2709,-0.218,-0.129,-0.0078,0.1291,0.2335,0.3187,0.3938,0.443,0.4809,0.5294,0.651,0.4506,0.0893,0.2197,-0.0142,-0.3942,-0.298,-0.2069,-0.1714,-0.4374,0.0,0.0,0.0,0.0,0.0,0.0,0.0,0.0,0.0,0.0,0.0,0.0,0.0,0.0,0.0,0.0,0.0,0.0,0.0,0.0,0.0,0.0,0.0,0.0,0.7263,1.1136,1.253,1.4232,1.6252,1.8764,1.9777,2.0042,1.9657,1.8923,1.8496,1.8586,1.794,1.7158,1.6333,1.5829,1.5175,1.4279,1.3599,1.3024,1.2503,1.1875,1.1284,1.0708,1.0015,1.0021,1.0577,1.0395,1.0634,0.0,1.126,1.1253,1.1183,1.1315,1.1502,0.0,0.0,0.0,0.0,0.0,1.4105,1.4376,0.0,0.0,0.0,0.0,0.0,0.0,0.0,-0.6938,-0.7615,-0.8197,-0.8155,-0.8032,-0.7889,-0.7603,-0.7344,-0.7259,-0.846,-0.9627,-1.0625,-1.0933,-0.9916,-0.726,-0.7211,-0.6703,-0.5508,-0.5621,-0.5386,-0.485,-0.4423,-0.344,-0.2043,-0.2251,-0.173,-0.0591,0.1095,0.1854,0.1944,0.2443,0.3201,0.4219,0.472,0.2692,-0.0395,0.0747,-0.1549,-0.5155,-0.3986,-0.2599,-0.1393,-0.2123,0.0,0.0,0.0,0.0,0.0,0.0,0.0,0.0,0.0,0.0,0.0,0.0,0.0,0.0,0.0,0.0,0.0,0.0,0.0,0.0,0.0,0.0,0.0,0.0,0.7237,1.1904,1.5786,1.8609,2.0017,1.9688,2.0294,2.0417,1.9629,1.8775,1.8146,1.7777,1.7126,1.6358,1.5386,0.0,0.0,0.0,0.0,1.1552,1.1175,1.0834,1.0498,1.0098,0.9468,0.9332,0.9746,0.9309,0.9356,0.9697,0.9907,0.9888,0.9724,0.9894,1.0091,1.0474,1.2209,1.2802,1.276,1.2573,1.2772,1.3163,0.0,0.0,0.0,0.0,0.0,0.0,0.0,-0.7293,-0.8257,-0.8692,-0.9009,-0.9002,-0.8501,-0.8091,-0.7628,-0.7028,-0.8699,-1.0158,-1.1103,-0.9462,-0.8359,-0.8119,-0.7334,-0.6935,-0.7057,-0.6806,-0.6224,-0.5191,-0.5396,-0.4318,-0.2178,-0.2754,-0.2491,-0.1554,-0.1293,-0.0783,-0.0,0.0176,0.0882,0.2036,0.2653,0.3325,0.3979,0.452,0.4089,0.3255,0.34,0.3781,0.377,0.0603,0.0623,0.1408,-0.1542,-0.3638,0.0,0.0,0.0,0.0,0.0,0.0,0.0,0.0,0.0,0.0,0.0,0.0,0.0,0.0,0.0,0.0,0.0,0.0,0.0,0.5905,0.9754,1.3106,1.4231,1.6577,1.8137,1.8194,1.8198,1.8152,1.7995,1.7414,1.7154,1.7635,1.7052,1.6371,1.5814,1.5506,0.0,1.3918,1.2604,1.1552,1.083,0.9735,0.8986,0.8429,0.0,0.0,0.811,0.8043,0.8016,0.7972,0.8042,0.794,0.7729,0.7965,0.8409,0.9255,1.1256,1.2514,1.3146,1.2742,1.2618,1.2716,0.0,0.0,0.0,0.0,0.0,0.0,0.0,-0.7046,-0.8061,-0.9072,-0.9127,-0.915,-0.9317,-0.888,-0.8444,-0.8099,-0.8917,-0.9829,-1.0804,-0.8968,-0.7894,-0.8043,-0.7456,-0.7228,-0.7351,-0.7061,-0.6447,-0.5417,-0.5172,-0.43,-0.2889,-0.2756,-0.231,-0.1766,-0.1764,-0.1331,-0.0628,-0.0537,-0.0,0.0717,0.0895,0.1557,0.2545,0.3741,0.4247,0.4266,0.426,0.4692,0.4827,0.2728,0.3119,0.4037,0.1949,0.0095,-0.1436,0.0,0.0,0.0,0.0,0.0,0.0,0.0,0.0,0.0,0.0,0.0,0.0,0.0,0.0,0.2501,0.0,0.0,0.652,0.6714,0.9871,1.2794,1.3914,1.4993,1.616,1.7231,1.7645,1.7879,1.7697,1.6862,1.6387,1.6553,1.5921,1.5045,1.418,1.3775,1.3073,1.2082,1.1086,1.0363,0.983,0.9079,0.8554,0.8164,0.8056,0.7953,0.7855,0.7751,0.7648,0.7612,0.7574,0.7534,0.7378,0.7478,0.7902,0.8522,0.9593,1.0728,1.1776,1.1193,1.1296,1.1726,0.0,0.0,0.0,0.0,0.0,0.0,0.0,-0.6802,-0.7768,-0.9102,-0.8822,-0.8825,-0.9623,-0.9161,-0.9014,-0.9531,-0.8943,-0.9159,-1.0527,-0.8917,-0.7854,-0.7737,-0.7663,-0.759,-0.7418,-0.72,-0.6697,-0.5836,-0.5207,-0.4568,-0.3855,-0.2992,-0.2543,-0.2344,-0.1887,-0.1527,-0.1172,-0.1082,-0.072,-0.0179,-0.036,-0.0355,-0.0,0.1388,0.2189,0.2561,0.2905,0.3074,0.3159,0.3569,0.4281,0.4968,0.5212,0.3915,0.1865,-0.0182,-0.079,0.0,0.0,0.0,0.0,0.0,0.0,0.0,0.0,0.0,0.2941,0.3761,0.3914,0.3893,0.383,0.5558,0.7075,0.7394,0.9624,1.1929,1.359,1.3651,1.4075,1.5657,1.7009,1.7564,1.7159,1.6202,1.5524,1.5087,1.443,1.3512,1.237,1.1873,1.1201,1.034,0.9615,0.9194,0.8997,0.8554,0.8219,0.8146,0.7934,0.7744,0.7704,0.7547,0.744,0.7355,0.7315,0.7228,0.719,0.7154,0.7353,0.7782,0.7782,0.8546,0.971,0.9426,0.9944,1.0682,0.0,0.0,0.0,0.0,0.0,0.0,0.0,0.0,-0.8123,-0.8465,-0.8114,-0.7935,-0.8276,-0.7782,-0.8364,-1.0696,-0.8479,-0.8251,-1.1286,-0.8943,-0.7616,-0.7943,-0.8118,-0.8206,-0.8285,-0.8098,-0.7592,-0.6758,-0.7188,-0.6489,-0.4851,-0.4448,-0.4342,-0.4493,-0.3249,-0.2805,-0.285,-0.3039,-0.2096,-0.0629,-0.0549,-0.027,-0.0087,-0.0607,0.0083,0.1326,0.2232,0.0694,-0.1358,0.1743,0.1513,0.0369,0.3054,0.24,0.0598,0.0205,-0.1311,-0.3353,-0.5926,-0.5667,-0.4918,-0.5807,-0.3523,-0.0505,0.0,0.0,0.5209,0.8764,0.8932,0.8761,0.9878,0.9253,0.9029,1.0715,1.0747,1.097,1.2068,1.2071,1.201,1.2256,1.4091,1.5177,1.4599,1.4355,1.4048,1.3309,1.3224,1.2783,1.2076,1.1985,1.1713,1.1078,1.0158,0.9391,0.886,0.7801,0.7232,0.7217,0.7119,0.6961,0.6744,0.6729,0.6558,0.6257,0.5933,0.5944,0.6075,0.5917,0.5944,0.6152,0.6152,0.6654,0.7464,0.8626,0.9511,1.0069,0.0,0.0,0.0,0.0,0.0,0.0,0.0,0.0,0.0,-0.8582,-0.8479,-0.8522,-0.8978,-0.8773,-0.9158,-1.057,-0.8668,-0.8388,-1.0738,-0.8721,-0.7812,-0.8722,-0.8482,-0.824,-0.8157,-0.7647,-0.7064,-0.6314,-0.6407,-0.5996,-0.5186,-0.5002,-0.488,-0.497,-0.4218,-0.3891,-0.3965,-0.3968,-0.3582,-0.2917,-0.3308,-0.3215,-0.288,-0.2229,-0.2033,-0.1895,-0.1472,-0.1884,0.0,-0.1272,-0.0715,-0.0294,0.1665,0.1028,0.0162,0.2971,0.0472,-0.306,-0.2265,-0.3282,-0.3632,0.0378,0.0945,0.1348,0.436,0.5674,0.677,0.8367,0.8698,0.9139,1.0236,0.9389,0.8859,0.0,0.9401,0.8933,1.0165,1.0256,1.0343,1.078,1.1804,1.2388,1.2383,1.2169,1.1912,1.1638,1.1638,1.1209,1.0438,1.0351,1.0058,0.9289,0.8858,0.8512,0.8074,0.7585,0.7211,0.7111,0.6943,0.6827,0.676,0.6667,0.6451,0.6058,0.5752,0.5621,0.5745,0.5552,0.5563,0.5627,0.5627,0.5756,0.6133,0.7177,0.8101,0.8803,0.0,0.0,0.0,0.0,0.0,0.0,0.0,0.0,0.0,0.0,-0.8541,-0.8654,-0.9075,-0.9063,-0.9306,-1.0068,-0.8966,-0.8763,-0.998,-0.8779,-0.8329,-0.8916,-0.8618,-0.8383,-0.8221,-0.7642,-0.7061,-0.6546,-0.6189,-0.6096,-0.6105,-0.5611,-0.5583,-0.5849,-0.5015,-0.4701,-0.4885,-0.4728,-0.4616,-0.4574,-0.5148,-0.5112,-0.4584,-0.3381,-0.3553,-0.4449,-0.481,-0.4693,-0.4297,-0.4009,-0.3349,-0.2395,-0.0696,-0.0896,-0.1028,0.2206,-0.0647,-0.4164,-0.0789,-0.1647,-0.1912,0.4489,0.4312,0.3405,0.6321,0.7135,0.7368,0.7601,0.7966,0.8502,0.9428,0.8646,0.8051,0.8993,0.8051,0.7746,0.9161,0.897,0.8939,0.9558,0.9452,0.941,0.9676,1.023,1.0459,1.0265,1.0178,0.9772,0.887,0.8736,0.8388,0.7649,0.7609,0.753,0.7235,0.7176,0.6957,0.6841,0.6716,0.6617,0.661,0.63,0.5995,0.5706,0.5369,0.5216,0.5216,0.5156,0.5093,0.5093,0.5093,0.5093,0.5143,0.5678,0.6608,0.7589,0.0,0.0,0.0,0.0,0.0,0.0,0.0,0.0,0.0,0.0,0.0,0.0,0.0,-0.76,-0.8071,-0.9323,-0.9198,-0.9098,-0.922,-0.9493,-0.916,-0.8204,-0.864,-0.8902,-0.8885,-0.868,-0.8347,-0.8025,-0.7804,-0.7754,-0.793,-0.6692,-0.6847,-0.7905,-0.5589,-0.506,-0.5804,-0.5265,-0.4822,-0.4572,-0.4658,-0.4495,-0.4133,-0.396,-0.4475,-0.5429,-0.683,-0.7841,-0.8208,-0.6064,-0.6671,-0.7793,-0.4651,-0.3554,-0.3638,-0.4713,-0.6842,-0.7992,-0.4193,-0.2739,-0.1525,0.203,0.4527,0.6189,0.6638,0.6426,0.6649,0.8045,0.7885,0.7667,0.8363,0.7564,0.692,0.7542,0.7629,0.804,0.9486,0.8575,0.7834,0.8078,0.6906,0.6059,0.0,0.8752,1.0124,0.9305,0.9231,0.879,0.7804,0.7663,0.7378,0.7077,0.6863,0.67,0.6422,0.6297,0.623,0.6224,0.5952,0.582,0.5808,0.5271,0.4945,0.4706,0.4461,0.4353,0.4353,0.4353,0.4353,0.4353,0.4353,0.4353,0.4353,0.4348,0.5272,0.6461,0.0,0.0,0.0,0.0,0.0,0.0,0.0,0.0,0.0,0.0,0.0,0.0,0.0,0.0,0.0,0.0,-0.8483,-0.8856,-1.0004,-0.9367,-0.9077,-0.9279,-0.8913,-0.8573,-0.8296,-0.8381,-0.8221,-0.7934,-0.7719,-0.7697,-0.7824,-0.7265,-0.7315,-0.7785,-0.7142,-0.6896,-0.7131,-0.7099,-0.7015,-0.6905,-0.6579,-0.693,-0.7663,-0.6695,-0.6506,-0.697,0.0,-0.8257,-0.8431,-0.9224,-0.9295,-0.8868,-0.8197,-0.7937,-0.7867,-0.7721,-0.7092,-0.5786,-0.2501,-0.064,0.1264,0.4702,0.6254,0.6861,0.7036,0.6938,0.6732,0.6115,0.4849,0.3709,0.3266,0.1166,0.0451,0.3089,0.3028,0.3469,0.6239,0.6376,0.6163,0.5904,0.5583,0.0,0.0,0.0,0.0,0.7318,0.7341,0.72,0.6992,0.6953,0.6859,0.6725,0.6693,0.6532,0.6169,0.5959,0.5769,0.5678,0.5422,0.53,0.5291,0.493,0.4798,0.4712,0.4259,0.3956,0.3754,0.3623,0.3422,0.322,0.322,0.322,0.322,0.322,0.3551,0.4079,0.0,0.0,0.0,0.0,0.0,0.0,0.0,0.0,0.0,0.0,0.0,0.0,0.0,0.0,0.0,0.0,0.0,-0.8833,-0.9821,-0.9432,-0.9401,-0.996,-0.928,-0.8905,-0.8914,-0.886,-0.8724,-0.8608,-0.8012,-0.7815,-0.8078,-0.7526,-0.7283,-0.7332,-0.7365,-0.7392,-0.7252,-0.7586,-0.7911,-0.8229,-0.7733,-0.8188,-0.9011,-0.7542,-0.7211,0.0,-0.7457,-0.776,-0.8393,-0.9944,-0.9912,-0.9222,-0.9101,-0.9459,-0.9609,-0.814,-0.7244,-0.5878,-0.2187,-0.0218,0.1485,0.4628,0.5536,0.556,0.5598,0.5978,0.5552,0.2778,0.1276,0.0078,-0.0955,-0.2683,-0.2986,0.0073,-0.0,0.0715,0.3892,0.4664,0.4788,0.4596,0.475,0.4849,0.0,0.0,0.0,0.5964,0.6139,0.6181,0.6176,0.6179,0.6179,0.6084,0.6062,0.5908,0.5458,0.53,0.5016,0.4696,0.452,0.4339,0.4219,0.4056,0.3962,0.3991,0.3648,0.3487,0.3364,0.3021,0.2739,0.2491,0.2542,0.2545,0.2528,0.2553,0.2545,0.2724,0.0,0.0,0.0,0.0,0.0,0.0,0.0,0.0,0.0,0.0,0.0,0.0,0.0,0.0,0.0,0.0,0.0,0.0,-0.8818,-0.9566,-1.0016,-1.0089,-0.9697,-0.9802,-1.0491,-0.9971,-0.9782,-1.0016,-0.8695,-0.8309,-0.8771,-0.7485,-0.6846,-0.6734,-0.682,-0.6679,-0.6391,-0.6852,-0.7676,-0.8548,-0.7989,-0.8023,-0.827,-0.681,-0.6684,-0.714,-0.5999,-0.6691,-0.8196,-0.8334,-0.8778,-0.8996,-0.7574,-0.8148,-0.8865,-0.6437,-0.7236,-0.7905,-0.3018,-0.1412,-0.0497,0.199,0.2678,0.2714,0.2711,0.3611,0.3258,-0.1299,-0.2459,-0.3011,0.0,0.0,-0.3532,-0.1773,-0.1409,-0.0357,0.2649,0.3402,0.3745,0.0,0.0,0.0,0.0,0.0,0.0,0.5292,0.0,0.5634,0.5465,0.5368,0.5363,0.5177,0.498,0.4743,0.43,0.42,0.3938,0.3359,0.3279,0.3125,0.2744,0.2754,0.2688,0.2699,0.2622,0.2764,0.3059,0.2432,0.2126,0.2107,0.2146,0.2083,0.2115,0.2097,0.2083,0.217,0.0,0.0,0.0,0.0,0.0,0.0,0.0,0.0,0.0,0.0,0.0,0.0,0.0,0.0,0.0,0.0,0.0,0.0,-0.8861,-0.8702,-0.8931,-0.9617,-0.9161,-0.8979,-0.9098,-0.9335,-0.9406,-0.922,-0.8697,-0.8586,-0.8899,-0.8816,-0.8776,-0.8835,-0.9465,-0.9425,-0.8914,-0.9122,-0.8877,-0.8344,-0.7759,-0.8167,-0.9044,-0.8253,-0.8194,-0.8502,-0.8193,-0.7375,-0.6621,-0.7904,-0.8315,-0.8083,-0.6747,-0.6597,-0.6665,-0.5009,-0.4365,-0.3626,-0.0991,0.0358,0.1317,0.2271,0.2481,0.265,0.2803,0.1732,0.0253,-0.124,-0.3798,-0.6126,0.0,0.0,0.0,-0.5688,-0.4509,0.0,0.186,0.3096,0.0,0.3185,0.0,0.3748,0.2291,0.1777,0.0,0.0,0.3577,0.4208,0.4338,0.4284,0.4248,0.4154,0.4108,0.4034,0.3944,0.3476,0.3147,0.2943,0.2744,0.2682,0.2586,0.2525,0.2562,0.2545,0.2057,0.1881,0.2004,0.1813,0.1447,0.093,0.0943,0.0726,0.0506,0.08,0.0726,0.0504,0.0,0.0,0.0,0.0,0.0,0.0,0.0,0.0,0.0,0.0,0.0,0.0,0.0,0.0,0.0,0.0,0.0,0.0,0.0,-0.8164,-0.8451,-0.9504,-0.8991,-0.8773,-0.8999,-0.9003,-0.9056,-0.9114,-0.8359,-0.8314,-0.889,-0.8517,-0.8441,-0.8721,-0.9217,-0.9184,-0.8848,-0.865,-0.8531,0.0,0.0,-0.7853,-0.8733,-0.7945,-0.7715,-0.7778,-0.7543,-0.6776,-0.6,-0.6658,0.0,-0.6187,-0.5518,-0.5446,-0.5347,-0.3808,0.0,-0.3185,-0.1444,-0.0477,0.0098,0.02,0.0493,0.0478,-0.0456,-0.211,-0.4045,-0.5975,-0.7804,0.0,-0.9408,-1.039,0.0,0.0,0.0,0.0,0.0859,0.2067,0.211,0.0,0.1674,0.0,0.0184,0.0186,0.0375,0.0,0.1896,0.3052,0.3482,0.367,0.3251,0.2157,0.211,0.1895,0.152,0.0942,0.0755,0.1092,0.0962,0.1097,0.1412,0.1392,0.1376,0.1361,0.0,0.0819,0.0657,0.0598,0.0374,-0.0,-0.0,-0.0153,-0.0383,-0.031,-0.0307,-0.0377,0.0,0.0,0.0,0.0,0.0,0.0,0.0,0.0,0.0,0.0,0.0,0.0,0.0,0.0,0.0,0.0,0.0,0.0,0.0,0.0,-0.8181,-0.9311,-0.879,-0.8748,-0.9344,-0.8783,-0.8762,-0.9279,-0.8012,-0.7859,-0.8828,-0.7654,-0.7352,-0.7785,-0.7871,-0.7871,-0.7739,-0.7196,-0.7585,-0.8416,-0.7348,-0.7249,-0.7641,0.0,-0.6289,-0.6136,-0.5802,-0.5723,-0.573,-0.5322,-0.474,-0.4104,-0.4142,-0.4426,-0.4502,-0.2968,-0.3605,-0.4466,-0.2863,-0.2455,-0.237,-0.2404,-0.1951,-0.2224,-0.4612,-0.6143,-0.8038,-1.1654,0.0,-1.1456,-1.0201,-0.9605,-0.8119,-0.4427,0.0,-0.3457,-0.0162,0.0769,0.0445,-0.1482,-0.1325,-0.1339,-0.1911,-0.1244,-0.0869,-0.1179,0.0393,0.1757,0.2787,0.292,0.1924,-0.0277,-0.0459,-0.0909,-0.1696,-0.2395,-0.243,-0.1763,-0.1602,-0.1097,-0.0157,-0.0157,-0.0155,-0.0152,0.0,0.0,-0.0817,-0.0778,-0.0861,-0.0848,-0.0885,-0.0981,-0.1146,-0.1337,-0.1231,-0.095,0.0,0.0,0.0,0.0,0.0,0.0,0.0,0.0,0.0,0.0,-0.7097,-0.7168,0.0,0.0,0.0,0.0,0.0,0.0,0.0,0.0,0.0,-0.7998,-0.7869,-0.8069,-0.8662,-0.8572,-0.8551,-0.8654,-0.8408,-0.8385,-0.8581,-0.8775,-0.8855,-0.8866,-0.9359,-0.9281,-0.8729,-0.8536,-0.8048,-0.7438,-0.7167,-0.6586,-0.5876,-0.6083,0.0,0.0,-0.638,-0.5805,-0.4765,-0.545,-0.503,-0.4093,-0.3174,-0.3083,-0.315,-0.2971,-0.295,-0.2997,-0.272,-0.2481,-0.2402,-0.2372,-0.2176,-0.2477,-0.4318,-0.5949,0.0,0.0,-1.0661,-1.0855,-0.9059,-0.8599,-0.7547,-0.4527,0.0,0.0,0.0,0.0,-0.0279,0.0,0.0,0.0,0.0,0.0,0.0,0.0,0.0,-0.0901,0.17,0.0197,-0.1154,-0.2215,-0.2807,-0.3224,-0.3392,-0.4718,-0.5385,-0.5385,-0.4006,-0.2582,-0.1097,-0.1097,-0.1096,-0.1094,-0.1522,0.0,-0.1843,-0.1809,-0.1824,-0.1901,-0.1917,-0.2588,-0.3506,-0.2434,-0.2339,-0.2562,0.0,0.0,0.0,0.0,0.0,0.0,0.0,-0.5813,-0.6436,-0.8806,-0.8855,-0.8392,-0.7697,-0.7304,-0.7096,0.0,0.0,0.0,0.0,0.0,0.0,0.0,0.0,0.0,-0.756,-0.7573,0.0,0.0,0.0,-0.7617,-0.7928,0.0,0.0,-0.8585,-0.8881,-0.8833,-0.8504,-0.8117,-0.766,-0.7158,-0.6785,-0.6265,-0.5705,0.0,0.0,0.0,0.0,-0.6625,-0.5951,-0.6224,-0.6294,-0.5899,-0.3681,-0.295,-0.3232,-0.4654,-0.4087,-0.3177,-0.4614,-0.3983,-0.2813,-0.2759,-0.2494,-0.2934,-0.5375,0.0,0.0,0.0,-1.0396,-1.0294,-0.8335,-0.7977,0.0,-0.5218,-0.374,0.0,0.0,0.0,0.0,0.0,0.0,0.0,0.0,0.0,0.0,0.0,0.0,-0.1916,-0.131,-0.3234,-0.4567,-0.48,-0.5058,-0.5176,-0.5176,-0.5895,-0.6117,-0.563,-0.4864,-0.3878,-0.2738,-0.2738,-0.2836,-0.3033,-0.331,0.0,-0.3551,-0.3588,-0.3544,-0.3581,-0.3666,-0.4034,-0.4508,-0.3386,-0.3102,-0.315,0.0,0.0,0.0,0.0,0.0,0.0,0.0,-0.6841,-0.7612,-1.0487,-1.0281,-0.9491,-0.8476,-0.782,-0.733,0.0,0.0,0.0,0.0,0.0,0.0,0.0,0.0,0.0,0.0,0.0,0.0,0.0,0.0,0.0,0.0,0.0,0.0,0.0,0.0,0.0,-0.769,-0.7198,-0.6989,0.0,0.0,-0.6023,0.0,0.0,0.0,0.0,0.0,-0.7501,-0.7187,-0.7241,-0.7444,-0.7231,-0.4798,-0.4204,-0.4671,-0.6221,-0.5435,-0.4282,-0.5993,-0.5088,-0.3513,-0.3433,-0.3084,-0.354,-0.6717,-0.6814,0.0,-0.999,-1.0452,-0.9775,-0.7922,-0.8044,-0.7811,0.0,-0.4287,-0.2928,-0.2356,0.0,0.0,0.0,0.0,0.0,0.0,0.0,0.0,0.0,0.0,0.0,-0.4209,-0.6088,-0.7047,-0.6838,-0.6505,-0.6416,-0.6386,-0.6282,-0.5808,-0.4994,-0.507,-0.4644,-0.3912,-0.3932,-0.398,-0.4051,-0.4091,0.0,0.0,-0.4407,-0.4462,-0.453,-0.453,-0.4667,-0.4734,-0.3758,-0.3542,-0.3485,0.0,0.0,0.0,0.0,0.0,0.0,0.0,-0.6908,-0.8089,-1.0486,-1.0235,-0.9738,-0.9564,-0.9006,-0.8159,0.0,0.0,0.0,0.0,0.0,0.0,0.0,0.0,0.0,0.0,0.0,0.0,0.0,0.0,0.0,0.0,0.0,0.0,0.0,0.0,0.0,0.0,-0.6343,0.0,0.0,0.0,0.0,0.0,0.0,0.0,0.0,0.0,0.0,-0.7038,-0.823,0.0,-0.6271,-0.6246,-0.7325,-0.8259,-0.6192,0.0,0.0,-0.4687,-0.4451,-0.4595,-0.453,-0.4123,-0.4659,-0.7649,0.0,-0.7308,-1.0475,-1.0387,-0.9338,-0.7864,-0.9243,-0.9656,-0.6719,-0.7676,-0.7967,-0.5805,0.0,0.0,0.0,0.0,0.0,0.0,0.0,0.0,0.0,0.0,0.0,-0.5014,-0.6626,-0.7492,-0.7279,-0.6684,-0.637,-0.6334,-0.5456,-0.4835,-0.4639,-0.4627,-0.4086,-0.3212,-0.3284,-0.2915,-0.2279,-0.2546,0.0,0.0,-0.3009,-0.3127,-0.3132,-0.3132,-0.358,-0.4208,-0.332,-0.3314,-0.3728,0.0,0.0,0.0,0.0,0.0,0.0,-0.6617,-0.6795,-0.7807,-1.0924,-1.0718,-1.0406,-1.0681,-0.9821,-0.8577,-0.6988,0.0,0.0,0.0,0.0,0.0,0.0,0.0,0.0,0.0,0.0,0.0,0.0,0.0,0.0,0.0,0.0,0.0,0.0,0.0,0.0,0.0,0.0,0.0,0.0,0.0,0.0,0.0,0.0,0.0,0.0,0.0,0.0,0.0,0.0,0.0,0.0,-0.8138,-0.9136,0.0,0.0,-0.7599,-0.6338,-0.7803,-0.6489,-0.4792,-0.4616,-0.4259,-0.4553,-0.7003,0.0,-0.7064,-0.9685,-0.9963,-0.9533,-0.9027,-0.9675,-1.0018,-0.9133,-0.8757,-0.8045,-0.6648,0.0,0.0,0.0,0.0,0.0,0.0,0.0,0.0,0.0,0.0,0.0,-0.5197,-0.6438,-0.7053,-0.6786,-0.6014,-0.5518,-0.5561,-0.5055,-0.481,-0.4727,-0.4663,-0.4444,-0.4164,-0.4529,-0.458,-0.4557,-0.4981,0.0,0.0,-0.6051,-0.6334,-0.6776,-0.6776,-0.6956,-0.7221,-0.6242,-0.5977,-0.5954,0.0,0.0,0.0,0.0,0.0,-0.442,-0.6672,-0.6903,-0.7868,-1.0763,-1.0818,-1.0733,-1.1082,-0.983,-0.8521,-0.7397,-0.6945,0.0,0.0,0.0,0.0,0.0,0.0,0.0,0.0,0.0,-0.6455,-0.6437,0.0,0.0,0.0,0.0,0.0,0.0,0.0,0.0,0.0,0.0,0.0,0.0,0.0,0.0,0.0,0.0,0.0,0.0,0.0,0.0,0.0,0.0,0.0,-0.9615,-0.8955,-0.9493,-1.0405,-1.0535,-0.8973,-0.7548,-0.9332,-0.792,-0.5741,-0.511,-0.5045,-0.556,0.0,0.0,-0.7847,-0.9702,-0.9863,-0.971,-0.9788,-0.9828,-1.0055,-1.0689,-0.9757,-0.8839,-0.8333,-0.7074,0.0,0.0,0.0,0.0,0.0,0.0,0.0,0.0,0.0,0.0,0.0,-0.5997,-0.6241,-0.608,-0.5275,-0.4994,-0.5313,-0.5005,-0.4949,-0.5225,-0.5178,-0.522,-0.5272,-0.5644,-0.596,-0.6221,0.0,0.0,0.0,-0.7661,-0.8013,-0.8456,-0.8456,-0.8456,-0.8368,-0.7654,-0.7274,-0.6954,0.0,0.0,0.0,0.0,0.0,0.0,-0.6037,-0.7321,-0.8485,-0.9665,-1.0285,-1.0588,-1.0512,-0.883,-0.7933,-0.8435,-0.7388,0.0,0.0,0.0,0.0,0.0,0.0,0.0,0.0,0.0,-0.6379,-0.629,-0.677,-0.6727,0.0,0.0,0.0,0.0,0.0,0.0,0.0,0.0,0.0,0.0,0.0,0.0,0.0,0.0,0.0,0.0,0.0,0.0,0.0,0.0,0.0,0.0,0.0,-0.8172,-0.8248,-0.833,-0.9749,-1.0733,-0.7791,-0.7702,-0.7932,-0.6283,-0.6993,-0.8192,-0.8854,-0.9405,-1.003,-1.0997,-1.0347,-0.9644,-0.9776,-0.9802,-1.0015,-1.0606,-1.1182,-1.1613,-1.1723,-0.9546,0.0,0.0,0.0,0.0,0.0,0.0,0.0,0.0,0.0,0.0,0.0,-0.5279,-0.4944,-0.5366,-0.4652,-0.487,-0.5966,-0.5036,-0.5155,-0.6179,-0.6229,-0.6223,-0.6179,-0.6232,-0.6294,0.0,0.0,0.0,0.0,-0.6413,-0.6416,-0.6416,-0.6416,-0.6416,-0.6416,-0.6413,-0.6328,-0.6105,0.0,0.0,0.0,0.0,0.0,0.0,0.0,-0.5673,-0.6589,-0.774,-0.7987,-0.8511,-0.9688,-0.8134,-0.7388,-0.8291,-0.7313,0.0,0.0,0.0,0.0,0.0,0.0,0.0,0.0,0.0,-0.6782,-0.6716,-0.722,-0.7549,-0.7702,-0.7166,-0.6973,0.0,0.0,0.0,0.0,0.0,0.0,0.0,0.0,0.0,0.0,0.0,0.0,0.0,0.0,0.0,0.0,0.0,0.0,0.0,0.0,0.0,0.0,-0.7634,-0.8802,-0.9745,-0.877,-0.8875,-0.8774,-0.706,-0.7674,-0.8775,-0.9153,-0.9217,-0.9507,-1.0402,-1.006,-0.9617,-0.9658,-0.971,-1.0183,-1.1584,-1.1665,-1.1639,0.0,0.0,0.0,0.0,0.0,0.0,0.0,0.0,0.0,0.0,0.0,0.0,0.0,-0.4516,-0.4321,-0.466,-0.415,-0.4018,-0.4343,-0.4828,-0.5244,-0.5684,-0.6064,-0.6322,-0.6371,-0.6679,0.0,0.0,0.0,0.0,0.0,-0.8093,-0.8444,-0.8886,-0.8886,-0.8886,-0.8886,-0.8886,-0.8599,-0.8251,0.0,0.0,0.0,0.0,0.0,0.0,0.0,-0.4911,-0.554,-0.6233,-0.6479,-0.7074,-0.8351,-0.7044,-0.6583,-0.7895,-0.6876,0.0,0.0,0.0,0.0,0.0,0.0,0.0,-0.626,-0.6549,-0.6845,-0.7158,-0.7657,-0.8026,-0.8312,-0.784,-0.7463,-0.7124,-0.6504,0.0,0.0,0.0,0.0,0.0,0.0,0.0,-0.7268,0.0,0.0,0.0,0.0,0.0,0.0,0.0,0.0,0.0,0.0,0.0,0.0,0.0,-0.8347,-0.9226,-0.8959,-0.9291,-0.9279,-0.7608,-0.8315,0.0,-0.9289,-0.9521,-0.9895,-1.0232,-0.9912,-0.9564,-0.9591,-0.9644,-1.0116,-1.1436,-1.1554,-1.1754,0.0,0.0,0.0,0.0,0.0,0.0,0.0,0.0,0.0,0.0,0.0,0.0,0.0,-0.4233,-0.4148,-0.4432,-0.4074,-0.4121,-0.4563,-0.5463,-0.6246,-0.6773,-0.7375,-0.7726,-0.7738,-0.8093,0.0,0.0,0.0,0.0,0.0,-0.9331,-0.9598,-1.0038,-1.0038,-1.0038,-1.0028,-0.9866,-0.962,-0.9248,0.0,0.0,0.0,0.0,0.0,0.0,0.0,-0.4833,-0.5195,-0.5134,-0.5621,-0.6142,-0.6626,-0.5635,-0.559,-0.7206,0.0,0.0,0.0,0.0,0.0,0.0,0.0,0.0,-0.6183,-0.6218,-0.6676,-0.7588,-0.802,-0.828,-0.8314,-0.8693,-0.8082,-0.6691,-0.6657,-0.6317,0.0,0.0,0.0,0.0,0.0,0.0,0.0,0.0,0.0,0.0,0.0,0.0,0.0,0.0,0.0,0.0,0.0,0.0,0.0,0.0,0.0,0.0,0.0,-0.9152,-0.9581,-0.7967,-0.8868,-1.0019,-0.9423,-1.0195,0.0,-1.0413,-0.9857,-0.9536,-0.9688,-0.9676,-0.9912,-1.0689,-1.1293,0.0,0.0,0.0,0.0,0.0,0.0,0.0,0.0,0.0,0.0,0.0,0.0,0.0,0.0,-0.443,-0.4626,-0.4447,-0.4441,-0.4919,-0.598,-0.6773,-0.7742,-0.8803,-0.9598,-1.0038,-1.0038,-1.0038,0.0,0.0,0.0,0.0,0.0,-0.9923,-1.0014,-0.9932,-1.0033,-1.0038,-0.9927,-0.9724,-0.9511,-0.9294,0.0,0.0,0.0,0.0,0.0,0.0,0.0,0.0,0.0,0.0,-0.4559,-0.4844,-0.5367,-0.4708,-0.4695,0.0,0.0,0.0,0.0,0.0,0.0,0.0,0.0,0.0,-0.6045,-0.6448,-0.6913,-0.744,-0.8322,-0.8928,-0.9271,-0.9325,-0.8695,-0.7571,-0.7221,-0.6532,0.0,0.0,0.0,0.0,0.0,0.0,0.0,0.0,0.0,0.0,-0.6694,-0.6754,0.0,0.0,0.0,0.0,0.0,0.0,0.0,0.0,-0.6845,-0.7428,-0.7711,0.0,-1.0308,-0.8714,-0.9571,-1.065,0.0,-1.0267,-1.0461,-1.0329,-0.9857,-0.9764,-1.0599,-1.0418,-1.0749,-1.2594,-1.309,0.0,0.0,0.0,0.0,0.0,0.0,0.0,0.0,0.0,0.0,0.0,0.0,0.0,0.0,-0.4945,-0.5128,-0.5103,-0.5294,-0.5371,-0.5275,-0.6861,-0.7742,-0.8097,-0.9419,-1.0038,-1.0038,-1.0038,0.0,0.0,0.0,0.0,-0.9483,-0.9649,-0.9719,-0.9734,-0.9889,-1.0038,-0.9927,-0.9724,-0.9511,-0.9294,0.0,0.0,0.0,0.0,0.0,0.0,0.0,0.0,0.0,0.0,0.0,-0.3859,-0.4149,-0.3849,0.0,0.0,0.0,0.0,0.0,0.0,0.0,0.0,0.0,-0.6039,-0.5954,-0.6238,-0.6829,-0.7731,-0.8205,-0.8923,-0.9833,-0.9697,-0.9093,-0.8096,-0.7167,-0.6308,0.0,0.0,0.0,0.0,0.0,0.0,0.0,0.0,0.0,0.0,-0.6366,-0.6322,0.0,-0.6541,-0.6522,-0.6413,0.0,0.0,0.0,0.0,-0.6881,-0.7554,-0.7853,-0.8992,-0.9962,-0.9356,-0.9919,-1.0588,-1.0319,-1.0096,-0.9944,-0.9944,0.0,-0.9749,-1.0582,-1.0702,0.0,0.0,0.0,0.0,0.0,0.0,0.0,0.0,0.0,0.0,0.0,0.0,0.0,0.0,0.0,0.0,0.0,-0.5315,-0.5513,-0.5465,-0.5621,-0.5552,-0.5282,-0.6956,-0.7834,-0.7834,-0.9331,-1.0038,-1.0038,-1.0038,-0.9838,0.0,0.0,0.0,-0.9474,-0.9488,-0.9559,-0.9649,-0.9658,-0.9663,-0.9639,-0.9436,-0.9285,-0.9157,0.0,0.0,0.0,0.0,0.0,0.0,0.0,0.0,0.0,0.0,0.0,0.0,0.0,0.0,0.0,0.0,0.0,0.0,0.0,0.0,0.0,0.0,-0.5918,-0.5926,-0.5975,-0.5908,-0.6567,-0.7924,-0.8038,-0.8746,-1.007,-1.0163,-0.9595,-0.841,-0.6958,-0.5993,0.0,0.0,0.0,0.0,-0.532,0.0,0.0,0.0,0.0,0.0,0.0,0.0,0.0,-0.6509,-0.6607,-0.6391,-0.6397,0.0,0.0,0.0,0.0,0.0,-0.8243,-0.8835,-0.948,-0.9736,-1.0032,-1.0267,-1.0225,-0.9944,-0.9737,0.0,0.0,0.0,0.0,-1.0677,0.0,0.0,0.0,0.0,0.0,0.0,0.0,0.0,0.0,0.0,0.0,0.0,0.0,0.0,0.0,0.0,0.0,-0.5637,-0.5858,-0.5763,-0.583,-0.5908,-0.5908,-0.7132,-0.7834,-0.8009,-0.9331,-0.9937,-0.9904,-0.9904,-0.9776,0.0,0.0,0.0,-0.9488,-0.9341,-0.9384,-0.9535,-0.9384,-0.9322,-0.9304,-0.9133,-0.9053,-0.8996,0.0,0.0,0.0,0.0,0.0,0.0,0.0,0.0,0.0,0.0,0.0,0.0,0.0,0.0,0.0,0.0,0.0,0.0,0.0,0.0,0.0,-0.5819,-0.5874,-0.6026,-0.6314,-0.5991,-0.6258,-0.7164,-0.8336,-0.9232,-0.9873,-1.1425,-1.1005,-0.8856,-0.7368,-0.623,-0.5407,-0.5418,-0.5369,-0.531,-0.5243,0.0,0.0,0.0,0.0,0.0,0.0,0.0,0.0,-0.5746,-0.6081,-0.6337,-0.6004,0.0,0.0,0.0,0.0,0.0,-0.8059,-0.931,-1.0213,-0.9492,-0.9986,-1.0552,-1.0279,-1.0433,-1.0713,-1.0816,0.0,0.0,0.0,-1.0326,0.0,0.0,0.0,0.0,0.0,0.0,0.0,0.0,0.0,0.0,0.0,0.0,0.0,0.0,0.0,0.0,0.0,0.0,-0.5893,-0.5877,-0.64,-0.6605,-0.6605,-0.7394,-0.8097,-0.8715,-0.9598,-0.9861,-0.9691,-0.9691,-0.9483,0.0,0.0,-0.9015,-0.8859,-0.9011,-0.9091,-0.9133,-0.9271,-0.9322,-0.9322,-0.9289,-0.9167,-0.8996,0.0,0.0,0.0,0.0,0.0,0.0,0.0,0.0,0.0,0.0,0.0,0.0,0.0,0.0,0.0,0.0,0.0,0.0,0.0,0.0,-0.5927,-0.6425,-0.6239,-0.6196,-0.635,-0.6618,-0.7191,-0.8093,-0.9203,-1.013,-1.0846,-1.1155,-1.0584,-0.9192,-0.7535,-0.6415,-0.5766,-0.551,-0.5388,-0.536,0.0,0.0,0.0,0.0,0.0,0.0,0.0,0.0,0.0,0.0,-0.6178,-0.637,-0.6235,0.0,0.0,0.0,0.0,0.0,-0.7383,-0.8584,-0.9496,-0.8258,-0.9972,-1.1862,-1.147,-1.1574,-1.1819,-1.1952,0.0,0.0,0.0,0.0,0.0,0.0,0.0,0.0,0.0,0.0,0.0,0.0,0.0,0.0,0.0,0.0,0.0,0.0,0.0,0.0,0.0,0.0,-0.5812,-0.5812,-0.6307,-0.684,-0.7187,-0.788,-0.8398,-0.8746,-0.9438,-0.9677,-0.9474,-0.9474,-0.9308,-0.9025,0.0,-0.8968,-0.8874,-0.8859,-0.8921,-0.902,-0.8996,-0.8987,-0.8987,-0.8987,-0.9001,-0.9011,0.0,0.0,0.0,0.0,0.0,0.0,0.0,0.0,0.0,0.0,0.0,0.0,0.0,0.0,0.0,0.0,0.0,0.0,0.0,0.0,-0.5948,-0.6762,-0.6423,-0.6444,-0.69,-0.7466,-0.8206,-0.912,-1.0109,-1.1089,-1.1975,-1.0971,-1.0097,-0.9282,-0.769,-0.657,-0.592,-0.5551,-0.5388,-0.54,0.0,0.0,0.0,0.0,0.0,0.0,0.0,0.0,0.0,0.0,0.0,0.0,0.0,0.0,0.0,-0.6065,-0.6511,-0.7259,-0.6964,-0.8045,-0.8989,-0.7871,-0.9883,-1.1959,-1.1441,-1.1456,-1.1622,0.0,0.0,0.0,0.0,0.0,0.0,0.0,0.0,0.0,0.0,0.0,0.0,0.0,0.0,0.0,0.0,0.0,0.0,0.0,0.0,0.0,0.0,0.0,-0.5678,-0.5648,-0.6325,-0.6946,-0.7455,-0.8299,-0.8746,-0.8878,-0.939,-0.953,-0.9322,-0.9275,-0.9143,-0.8949,-0.8949,-0.8949,-0.8935,-0.877,-0.8875,-0.9091,-0.8923,-0.8961,-0.9071,-0.9022,-0.9068,-0.9178,0.0,0.0,0.0,0.0,0.0,0.0,0.0,0.0,0.0,0.0,0.0,0.0,0.0,0.0,0.0,0.0,0.0,0.0,0.0,0.0,-0.5711,-0.6148,-0.6083,-0.6876,-0.8671,-0.8416,-0.8659,-0.9458,-1.0826,-1.1944,-1.2813,-1.1902,-1.0594,-0.888,-0.7897,-0.6704,-0.5439,-0.5409,-0.5369,-0.5301,-0.5283,0.0,0.0,0.0,0.0,0.0,0.0,0.0,0.0,0.0,0.0,0.0,0.0,0.0,-0.6454,-0.5947,-0.6257,-0.6854,-0.7327,-0.8558,-0.9729,-0.9622,-0.9524,-0.9234,-0.8352,-0.8456,-0.8923,-0.9347,0.0,0.0,0.0,0.0,0.0,0.0,0.0,0.0,0.0,0.0,0.0,0.0,0.0,0.0,0.0,0.0,0.0,0.0,0.0,0.0,0.0,0.0,0.0,-0.5398,-0.6629,-0.7368,-0.7368,-0.8604,-0.9363,-0.9559,-0.9559,-0.953,-0.9318,-0.9133,-0.8926,-0.8722,-0.8722,-0.8722,-0.8722,-0.8708,-0.8941,-0.9266,-0.9251,-0.9597,-1.0052,-0.9845,-0.9684,-0.9566,0.0,0.0,0.0,0.0,0.0,0.0,0.0,0.0,0.0,0.0,0.0,0.0,0.0,0.0,0.0,0.0,0.0,0.0,0.0,-0.5387,-0.5694,-0.6429,-0.6414,-0.6981,-0.8316,-0.896,-0.9853,-1.0974,-1.1911,-1.2508,-1.2816,-1.1386,-1.0371,-0.9646,-0.7866,-0.6921,-0.6652,-0.5766,-0.5552,-0.5786,-0.5714,-0.5693,0.0,0.0,0.0,0.0,0.0,0.0,0.0,0.0,-0.5266,-0.5455,-0.5345,-0.5665,-0.6035,-0.5848,-0.5963,-0.619,-0.6428,-0.7062,-0.7489,-0.6864,-0.7559,-0.8647,0.0,-0.9625,-0.9758,-0.9894,-1.0117,0.0,0.0,0.0,0.0,0.0,0.0,0.0,0.0,0.0,0.0,0.0,0.0,0.0,0.0,0.0,0.0,0.0,0.0,0.0,0.0,0.0,0.0,-0.5374,-0.6198,-0.6799,-0.7119,-0.8091,-0.8774,-0.9261,-0.9261,-0.9148,-0.8935,-0.8859,-0.8779,-0.8703,-0.8703,-0.8703,-0.8703,-0.8937,-0.9165,-0.9322,-0.9549,-0.9824,-0.9964,-0.9949,-0.9914,-0.9954,0.0,0.0,0.0,0.0,0.0,0.0,0.0,0.0,0.0,0.0,0.0,0.0,0.0,0.0,0.0,0.0,0.0,0.0,-0.526,-0.5291,-0.5654,-0.6421,-0.6418,-0.6936,-0.8108,-0.9107,-1.0226,-1.1466,-1.2321,-1.2542,-1.2136,-1.0946,-1.0144,-0.9671,-0.8099,-0.7394,-0.7327,-0.6244,-0.5888,-0.602,-0.5835,-0.5754,0.0,0.0,0.0,0.0,0.0,0.0,0.0,0.0,-0.4649,-0.4718,-0.4943,-0.5247,-0.5577,-0.5749,-0.6032,-0.6284,-0.6352,-0.6535,-0.6563,-0.5896,-0.6457,0.0,-0.8904,-0.9879,-1.0399,-1.0031,-0.9575,-0.9013,-0.824,0.0,0.0,0.0,0.0,0.0,0.0,0.0,0.0,0.0,0.0,0.0,0.0,0.0,0.0,0.0,0.0,0.0,0.0,0.0,0.0,0.0,-0.574,-0.6245,-0.6637,-0.7348,-0.806,-0.8608,-0.8608,-0.8645,-0.8803,-0.8732,-0.8703,-0.8703,-0.8703,-0.878,-0.8932,-0.917,-0.9473,-0.9695,-1.0143,-1.0293,-1.0293,-1.0293,-1.0318,-1.0241,0.0,0.0,0.0,0.0,0.0,0.0,0.0,0.0,0.0,0.0,0.0,0.0,0.0,0.0,0.0,0.0,0.0,0.0,-0.5261,-0.5291,-0.5472,-0.5868,-0.5888,-0.6686,-0.8342,-0.877,-0.9521,-1.0582,-1.191,-1.1966,-1.0774,-1.0774,-1.0057,-0.8715,-0.8704,-0.8157,-0.7167,-0.6775,-0.6324,-0.5862,-0.5402,-0.5195,-0.5195,0.0,0.0,0.0,0.0,0.0,0.0,0.0,-0.4198,-0.4298,-0.4829,-0.5013,-0.5122,-0.5661,-0.6517,-0.7301,-0.7371,-0.7473,-0.7568,-0.7654,0.0,0.0,-0.5962,-0.837,-1.0314,-0.9232,-0.7069,-0.6125,-0.8498,0.0,0.0,0.0,0.0,0.0,0.0,0.0,0.0,0.0,0.0,0.0,0.0,0.0,0.0,0.0,0.0,0.0,0.0,0.0,0.0,0.0,-0.5553,-0.586,-0.5864,-0.6553,-0.7169,-0.7778,-0.7783,-0.8194,-0.9015,-0.8798,-0.8703,-0.8703,-0.8703,-0.8932,-0.9322,-0.9322,-0.9771,-1.0513,-1.0962,-1.1111,-1.1111,-1.1111,-1.0887,-1.0553,0.0,0.0,0.0,0.0,0.0,0.0,0.0,0.0,0.0,0.0,0.0,0.0,0.0,0.0,0.0,0.0,0.0,0.0,-0.5146,-0.5108,-0.5146,-0.5251,-0.5819,-0.6208,-0.6419,-0.7473,-0.8921,-1.0794,-1.1313,-1.1035,-1.0083,-0.9843,-0.9352,-0.8622,-0.8269,-0.7977,-0.7609,-0.6561,-0.6199,-0.6265,-0.545,-0.5137,-0.5107,0.0,0.0,0.0,0.0,0.0,0.0,0.0,0.0,0.0,-0.4829,-0.5678,-0.6446,-0.6324,-0.6543,-0.6676,-0.6081,-0.547,0.0,-0.4969,0.0,0.0,0.0,-0.8123,0.0,0.0,-0.8378,-0.6086,-0.8836,0.0,0.0,0.0,0.0,0.0,0.0,0.0,0.0,0.0,0.0,0.0,0.0,0.0,0.0,0.0,0.0,0.0,0.0,0.0,0.0,0.0,-0.5084,-0.5384,-0.586,-0.6066,-0.6618,-0.7597,-0.7723,-0.8119,-0.8798,-0.8732,-0.8703,-0.8703,-0.8703,-0.8699,-0.8718,-0.9005,-0.9468,-1.0143,-1.0513,-1.0663,-1.0738,-1.1037,-1.1037,-1.0899,0.0,0.0,0.0,0.0,0.0,0.0,0.0,0.0,0.0,0.0,-0.5492,0.0,0.0,0.0,0.0,0.0,0.0,0.0,0.0,-0.5019,-0.5066,-0.5227,-0.57,-0.6013,-0.6107,-0.7243,-0.8332,-0.9349,-0.981,-0.9659,-0.9011,-0.9201,-0.9091,-0.8798,-0.8878,-0.8596,-0.8019,-0.7042,-0.6464,-0.6159,-0.541,-0.5108,-0.5069,0.0,0.0,0.0,0.0,0.0,0.0,0.0,0.0,0.0,-0.4803,-0.5552,-0.6327,-0.6684,-0.6601,-0.6408,-0.6308,-0.5284,0.0,-0.4285,-0.4807,-0.5683,-0.7242,0.0,0.0,0.0,0.0,0.0,0.0,0.0,0.0,0.0,0.0,0.0,0.0,0.0,0.0,0.0,0.0,0.0,0.0,0.0,0.0,0.0,0.0,0.0,0.0,0.0,0.0,0.0,-0.48,-0.4944,-0.5394,-0.539,-0.5892,-0.6845,-0.7167,-0.7706,-0.8318,-0.8623,-0.8703,-0.8703,-0.8856,-0.8864,-0.8822,-0.9188,-0.9564,-0.9916,-1.0143,-1.0293,-1.0293,-1.0513,-1.0738,-1.0812,0.0,0.0,0.0,0.0,0.0,0.0,0.0,0.0,0.0,0.0,-0.5473,-0.5368,0.0,0.0,0.0,0.0,0.0,0.0,0.0,0.0,-0.517,-0.5555,-0.565,-0.6055,-0.6855,-0.7616,-0.7646,-0.6884,-0.7871,-0.8116,-0.7763,-0.8674,-0.908,-0.9066,-0.9896,-0.9534,-0.8291,-0.7812,-0.6904,-0.5764,-0.5283,-0.5108,-0.5069,-0.4641,0.0,0.0,0.0,0.0,0.0,0.0,0.0,0.0,-0.4797,-0.5071,-0.5429,-0.675,-0.6767,-0.6525,-0.7279,0.0,0.0,-0.478,-0.4037,0.0,-0.6864,-0.8083,-0.8783,0.0,0.0,0.0,0.0,0.0,0.0,0.0,0.0,0.0,0.0,0.0,0.0,0.0,0.0,0.0,0.0,0.0,0.0,0.0,0.0,0.0,0.0,0.0,0.0,0.0,-0.4715,-0.4715,-0.4726,-0.4715,-0.5053,0.0,-0.6437,-0.7037,-0.7787,-0.8447,-0.8703,-0.8699,-0.9069,-0.9226,-0.9241,-0.9573,-0.9728,-0.9765,-0.982,-0.9825,-0.9922,-0.9922,-1.0218,-1.0513,0.0,0.0,0.0,0.0,0.0,0.0,0.0,0.0,0.0,0.0,0.0,0.0,0.0,0.0,0.0,0.0,0.0,0.0,0.0,0.0,-0.5079,-0.5423,-0.6058,-0.6508,-0.6729,-0.6661,-0.6417,-0.5982,-0.722,-0.7646,-0.7283,-0.8167,-0.858,-0.8558,-0.9077,-0.875,-0.7783,-0.7005,-0.6338,-0.5764,-0.5283,-0.5108,-0.5069,-0.4641,-0.4502,0.0,0.0,0.0,0.0,0.0,0.0,0.0,-0.5283,-0.5968,-0.6564,-0.6576,-0.7102,-0.7308,-0.5455,-0.4862,0.0,0.0,-0.3405,-0.4009,-0.5119,-0.582,0.0,0.0,0.0,0.0,0.0,0.0,0.0,0.0,0.0,0.0,0.0,0.0,0.0,0.0,0.0,0.0,0.0,0.0,0.0,0.0,0.0,0.0,0.0,0.0,0.0,-0.4726,-0.4632,-0.4626,-0.4723,-0.4629,-0.5011,0.0,-0.6362,-0.6948,-0.7855,-0.8407,-0.8703,-0.8694,-0.8613,-0.8707,-0.8827,-0.8568,-0.87,-0.8988,-0.9114,-0.9458,-0.9922,-1.0218,-1.0663,-1.0962,0.0,0.0,0.0,0.0,0.0,0.0,0.0,0.0,0.0,0.0,0.0,0.0,0.0,0.0,0.0,0.0,0.0,0.0,0.0,0.0,-0.5038,-0.5577,-0.605,-0.6319,-0.631,-0.6033,-0.5693,-0.5312,-0.6045,-0.6532,-0.6797,-0.7871,-0.8518,-0.8682,-0.8906,-0.8525,-0.7637,-0.6777,-0.6045,-0.5449,-0.5205,-0.5108,-0.5069,-0.4641,-0.4629,-0.4746,-0.4408,0.0,0.0,0.0,0.0,0.0,0.0,0.0,-0.6393,-0.6651,-0.6786,-0.6543,-0.5083,0.0,0.0,-0.292,0.0,-0.3722,-0.451,-0.4665,0.0,0.0,0.0,0.0,0.0,0.0,0.0,0.0,0.0,0.0,0.0,0.0,0.0,0.0,0.0,0.0,0.0,0.0,0.0,0.0,0.0,0.0,0.0,-0.4599,-0.4539,-0.4488,-0.4423,-0.442,-0.4485,-0.442,-0.4825,-0.5714,-0.6146,-0.6884,-0.7933,-0.8255,-0.8401,-0.8396,-0.8292,-0.8307,-0.8396,-0.8283,-0.8363,-0.8557,-0.8767,-0.906,-0.9387,-0.9765,-1.0071,-1.0341,0.0,0.0,0.0,0.0,0.0,0.0,0.0,0.0,0.0,0.0,0.0,0.0,0.0,0.0,0.0,0.0,0.0,0.0,0.0,0.0,0.0,-0.5686,-0.5882,-0.5968,-0.5909,-0.5639,-0.5328,-0.5005,-0.5074,-0.5585,-0.6493,-0.7686,-0.8574,-0.9077,-0.9033,-0.8525,-0.7637,-0.6777,-0.5886,-0.5108,-0.5108,-0.5108,-0.5069,-0.4728,-0.4806,-0.5069,-0.4792,-0.4963,-0.531,-0.5369,0.0,0.0,0.0,0.0,-0.5764,-0.6586,-0.6358,-0.5708,-0.5265,0.0,-0.3365,-0.2891,-0.3029,0.0,-0.4281,0.0,0.0,0.0,0.0,0.0,0.0,0.0,0.0,0.0,0.0,0.0,0.0,0.0,0.0,0.0,0.0,0.0,0.0,0.0,0.0,0.0,0.0,0.0,-0.4474,-0.4452,-0.4398,-0.4303,-0.43,-0.43,-0.43,-0.43,-0.4686,-0.5405,-0.6056,-0.6933,-0.7919,-0.7919,-0.7976,-0.808,-0.808,-0.808,-0.8094,-0.8236,-0.834,-0.8415,-0.8543,-0.8713,-0.8927,-0.92,-0.9516,-0.9785,0.0,0.0,0.0,0.0,0.0,0.0,0.0,0.0,0.0,0.0,0.0,0.0,0.0,0.0,0.0,0.0,0.0,0.0,0.0,0.0,0.0,-0.5352,-0.5721,-0.5934,-0.5993,-0.5607,-0.5423,-0.5421,-0.5477,-0.5946,-0.6753,-0.7396,-0.8332,-0.9406,-0.9135,-0.8525,-0.7637,-0.6777,-0.5886,-0.5108,-0.5108,-0.5108,-0.5108,-0.5049,-0.5059,-0.5108,-0.5126,-0.5194,-0.531,-0.5369,-0.5446,0.0,0.0,0.0,-0.5635,-0.5764,-0.636,-0.6666,0.0,0.0,-0.3322,0.0,-0.3249,-0.3792,0.0,0.0,0.0,0.0,0.0,0.0,0.0,0.0,0.0,0.0,0.0,0.0,0.0,0.0,0.0,0.0,0.0,0.0,0.0,0.0,0.0,0.0,0.0,0.0,-0.4471,-0.4376,-0.4317,-0.43,-0.43,-0.43,-0.43,-0.43,-0.484,-0.5855,-0.6681,-0.7126,-0.7345,-0.7345,-0.7574,-0.808,-0.808,-0.808,-0.8066,-0.7924,-0.8075,-0.8387,-0.8226,-0.8822,-0.9744,-0.9548,-0.9958,-1.0545,0.0,0.0,0.0,0.0,0.0,0.0,0.0,0.0,0.0,0.0,0.0,0.0,0.0,0.0,0.0,0.0,0.0,0.0,0.0,0.0,0.0,-0.4858,-0.5059,-0.5285,-0.5545,-0.5235,-0.5068,-0.5098,-0.5131,-0.5898,-0.7356,-0.7919,-0.8711,-0.9706,-0.9095,-0.8632,-0.816,-0.6611,-0.5751,-0.5416,-0.5185,-0.5389,-0.5769,-0.5292,-0.5409,-0.5759,-0.5312,-0.5214,-0.531,-0.534,-0.5416,-0.5492,-0.5492,0.0,0.0,0.0,-0.6155,-0.6588,-0.58,-0.4481,-0.3406,0.0,-0.3811,-0.378,-0.4157,0.0,0.0,0.0,0.0,0.0,0.0,0.0,0.0,0.0,0.0,0.0,0.0,0.0,0.0,0.0,0.0,0.0,0.0,0.0,0.0,0.0,0.0,-0.4376,-0.4376,-0.4262,-0.423,-0.4298,-0.4235,-0.4197,-0.4197,-0.4197,-0.4678,-0.5605,-0.6533,-0.6988,-0.6988,-0.7106,-0.7431,-0.773,-0.773,-0.773,-0.7735,-0.7763,-0.7886,-0.8066,-0.8207,-0.8592,-0.9119,-0.939,-0.9625,-0.982,0.0,0.0,0.0,0.0,0.0,0.0,0.0,0.0,0.0,0.0,0.0,0.0,0.0,0.0,0.0,0.0,0.0,0.0,0.0,0.0,0.0,-0.4475,-0.4524,-0.4703,-0.5046,-0.4856,-0.4773,-0.4793,-0.4913,-0.592,-0.7803,-0.844,-0.9292,-1.0293,-0.962,-0.9065,-0.8592,-0.681,-0.6022,-0.5946,-0.5578,-0.5825,-0.6353,-0.5925,-0.6168,-0.6606,-0.574,-0.55,-0.5573,-0.5372,-0.5378,-0.5473,-0.5492,-0.5492,0.0,0.0,0.0,-0.6196,0.0,0.0,-0.4081,-0.4488,-0.4248,-0.4047,0.0,0.0,0.0,0.0,0.0,0.0,0.0,0.0,0.0,0.0,0.0,0.0,0.0,0.0,0.0,0.0,0.0,0.0,0.0,0.0,0.0,0.0,0.0,-0.424,-0.4208,-0.4121,-0.4113,-0.4205,-0.4118,-0.4072,-0.4072,-0.4322,-0.4752,-0.5325,-0.6287,-0.6712,-0.6721,-0.6988,-0.7191,-0.745,-0.7502,-0.7521,-0.7536,-0.7631,-0.773,-0.7815,-0.8322,-0.8539,-0.8679,-0.9336,-0.9466,-0.9353,0.0,0.0,0.0,0.0,0.0,0.0,0.0,0.0,0.0,0.0,0.0,0.0,-0.4507,-0.4507,-0.4507,-0.4507,-0.4507,-0.4507,-0.4507,-0.4386,-0.4333,-0.4411,-0.4411,0.0,-0.4619,-0.4671,-0.4742,-0.4793,-0.5187,-0.621,-0.7803,-0.8691,-0.9907,-1.1417,-1.1109,-1.0136,-0.8649,-0.7694,-0.7093,-0.6734,-0.6453,-0.6358,-0.6484,-0.7267,-0.7588,-0.7511,-0.6635,-0.6372,-0.6311,-0.5553,-0.534,-0.5407,-0.5473,-0.5492,-0.5511,0.0,0.0,0.0,0.0,-0.5347,0.0,-0.4284,0.0,0.0,0.0,0.0,0.0,0.0,0.0,0.0,0.0,0.0,0.0,0.0,0.0,0.0,0.0,0.0,0.0,0.0,0.0,0.0,0.0,0.0,0.0,0.0,0.0,-0.4077,-0.3899,-0.3886,-0.3886,-0.3891,-0.3886,-0.3883,-0.3883,-0.4854,-0.5258,-0.5104,-0.6085,-0.6492,-0.6496,-0.6712,-0.6979,-0.7245,-0.744,-0.7521,-0.7521,-0.7536,-0.766,-0.7869,-0.8444,-0.8881,-0.9222,-0.9583,-0.9771,-0.9856,0.0,0.0,0.0,0.0,0.0,0.0,0.0,0.0,0.0,0.0,0.0,0.0,0.0,-0.4374,-0.4301,-0.4301,-0.4301,-0.4301,-0.4301,-0.4293,-0.4333,-0.4391,-0.4411,-0.4472,-0.4593,-0.4613,-0.4693,-0.4793,-0.4949,-0.5844,-0.7433,-0.8323,-0.9161,-0.9971,-1.0132,-1.0003,-0.9616,-0.7701,-0.697,-0.7111,-0.6818,-0.7252,-0.7984,-0.7763,-0.8376,0.0,0.0,0.0,0.0,-0.5672,-0.556,-0.5969,-0.5609,-0.5681,-0.5837,-0.5661,-0.5905,-0.619,0.0,0.0,0.0,-0.58,-0.6047,0.0,0.0,0.0,0.0,0.0,0.0,0.0,0.0,0.0,0.0,0.0,0.0,0.0,0.0,0.0,0.0,0.0,0.0,0.0,0.0,0.0,0.0,0.0,0.0,0.0,-0.3875,-0.386,-0.3854,-0.387,-0.386,-0.3819,-0.3819,-0.4663,-0.5042,-0.4986,-0.5887,-0.6351,-0.6482,-0.6693,-0.6965,-0.7231,-0.7436,-0.7521,-0.7521,-0.7521,-0.7569,-0.7674,-0.8443,-0.8703,-0.8717,-0.9436,-0.9616,-0.9504,0.0,0.0,0.0,0.0,0.0,0.0,0.0,0.0,0.0,-0.6037,0.0,0.0,0.0,0.0,-0.4399,-0.4878,-0.4478,-0.4207,-0.4207,-0.424,-0.4301,-0.4362,-0.4507,-0.4637,-0.4763,-0.4784,-0.4847,-0.4942,-0.4951,-0.5651,-0.6993,-0.7812,-0.8511,-0.9059,-0.9022,-0.9435,-1.0008,-0.8344,-0.773,-0.7895,0.0,-0.8147,-0.8862,-0.8798,0.0,0.0,0.0,0.0,0.0,0.0,0.0,-0.6051,-0.6091,-0.6106,-0.6055,-0.5714,-0.6004,-0.6433,-0.63,0.0,0.0,0.0,0.0,0.0,0.0,0.0,0.0,0.0,0.0,0.0,0.0,0.0,0.0,0.0,0.0,0.0,0.0,0.0,0.0,0.0,0.0,0.0,0.0,0.0,0.0,0.0,0.0,0.0,-0.3819,-0.374,-0.3732,-0.3814,-0.3738,-0.3754,-0.3754,-0.4507,-0.4897,-0.4901,-0.5786,-0.6281,-0.6482,-0.6693,-0.6965,-0.7231,-0.7436,-0.7521,-0.7521,-0.7521,-0.7521,-0.7559,-0.8465,-0.8607,-0.8497,-0.9417,-0.9626,-0.9389,0.0,0.0,0.0,0.0,0.0,0.0,0.0,0.0,-0.4507,-0.4507,0.0,0.0,0.0,0.0,0.0,-0.6195,-0.5021,-0.4207,-0.4207,-0.4207,-0.4228,-0.4309,-0.4705,-0.4972,-0.5117,-0.5163,-0.5199,-0.5195,-0.5263,-0.5688,-0.6475,-0.7222,-0.804,-0.8894,-0.8096,-0.8439,-0.9609,-0.96,-0.9419,-0.9087,0.0,-0.9047,-0.9007,0.0,0.0,0.0,-1.1221,-0.8855,0.0,-0.326,0.0,0.0,0.0,-0.6812,-0.6118,-0.5746,-0.6006,-0.6337,0.0,0.0,0.0,0.0,0.0,0.0,0.0,0.0,0.0,0.0,0.0,0.0,0.0,0.0,0.0,0.0,0.0,0.0,0.0,0.0,0.0,0.0,0.0,0.0,0.0,0.0,0.0,0.0,0.0,-0.3757,-0.3591,-0.3585,-0.3585,-0.3585,-0.3585,-0.3585,-0.3585,-0.446,-0.4897,-0.4901,-0.5791,-0.629,-0.6492,-0.6707,-0.6974,-0.724,-0.7436,-0.7521,-0.7521,-0.7521,-0.7521,-0.7611,-0.8497,-0.8721,-0.8609,-0.9579,-0.9706,-0.9484,0.0,0.0,0.0,0.0,0.0,-0.482,-0.5788,-0.5129,-0.4507,0.0,0.0,0.0,-0.6055,-0.612,-0.6149,-0.6283,-0.5021,-0.4207,-0.4207,-0.4207,-0.438,-0.4785,-0.5007,-0.522,-0.5464,-0.5246,-0.5154,-0.5199,-0.4932,-0.509,-0.5652,-0.6375,-0.6892,-0.7233,-0.7864,-0.8017,-0.7807,-0.757,0.0,-0.9059,-0.87,-0.9191,0.0,0.0,0.0,0.0,0.0,-1.0713,-1.0112,0.0,-0.476,-0.5464,0.0,0.0,-0.6254,-0.6475,-0.6712,-0.6879,-0.6782,0.0,0.0,0.0,0.0,0.0,0.0,0.0,0.0,0.0,0.0,0.0,0.0,0.0,0.0,0.0,0.0,0.0,0.0,0.0,0.0,0.0,0.0,0.0,0.0,0.0,0.0,0.0,-0.3632,-0.3615,-0.3585,-0.3585,-0.3585,-0.3585,-0.3585,-0.3585,-0.3585,-0.4128,-0.4567,-0.4901,-0.5638,-0.6267,-0.6712,-0.6979,-0.7187,-0.744,-0.7497,-0.7521,-0.7521,-0.7521,-0.7521,-0.7611,-0.8497,-0.8721,-0.8609,-0.9579,-0.9706,-0.9484,0.0,0.0,0.0,0.0,0.0,-0.5385,-0.5174,-0.5326,-0.5238,0.0,0.0,0.0,-0.6717,-0.7206,-0.7402,-0.7193,-0.5928,-0.4885,-0.4247,-0.4377,-0.4645,-0.4989,-0.5207,-0.5482,-0.5803,-0.5634,-0.5496,-0.5373,-0.4998,-0.4863,-0.4976,-0.5567,-0.5881,-0.5993,-0.6688,-0.6919,-0.6788,0.0,0.0,0.0,-0.9105,0.0,0.0,-0.8686,-0.7394,0.0,0.0,0.0,-0.733,-0.6057,-0.6374,0.0,0.0,0.0,-0.7337,-0.7007,-0.7238,-0.7567,-0.7438,-0.7766,-0.8208,0.0,0.0,0.0,-0.9637,-0.8875,0.0,0.0,0.0,0.0,0.0,0.0,0.0,0.0,0.0,0.0,0.0,0.0,0.0,0.0,0.0,0.0,0.0,0.0,0.0,-0.3591,-0.3585,-0.3585,-0.3585,-0.3585,-0.3585,-0.3585,-0.3585,-0.3585,-0.3585,-0.4018,-0.4487,-0.5005,-0.5612,-0.6271,-0.6984,-0.7106,-0.7331,-0.7521,-0.7521,-0.7521,-0.7521,-0.7521,-0.7521,-0.7536,-0.8261,-0.8504,-0.8598,-0.9254,-0.9545,-0.9484,0.0,0.0,-0.6236,-0.5299,-0.6048,-0.6379,-0.5157,-0.6101,-0.6483,0.0,-0.6126,-0.7094,-0.7391,-0.8154,-0.8646,-0.8646,-0.7387,-0.5973,-0.4526,-0.4743,-0.5014,-0.5151,-0.5431,-0.5784,-0.6127,-0.6169,-0.5992,-0.5592,-0.5266,-0.488,-0.4515,-0.4911,-0.5119,-0.5134,-0.5173,0.0,-0.6251,0.0,0.0,-0.796,-0.9349,-0.902,0.0,0.0,-0.5793,-0.411,-0.1078,-0.0,-0.0641,-0.5076,-0.8336,0.0,0.0,0.0,-0.8931,-0.7647,-0.7817,-0.8382,-0.8107,-0.8327,-0.8861,0.0,0.0,0.0,-1.081,-0.9397,-0.7742,0.0,0.0,0.0,0.0,0.0,0.0,0.0,0.0,0.0,0.0,0.0,0.0,0.0,0.0,0.0,0.0,-0.3585,-0.3585,-0.3585,-0.3585,-0.3585,-0.3585,-0.3585,-0.3585,-0.3585,-0.3585,-0.3585,-0.3585,-0.3962,-0.4468,-0.5182,-0.5616,-0.6342,-0.7188,-0.7235,-0.735,-0.7521,-0.7521,-0.7521,-0.7521,-0.7521,-0.7521,-0.7521,-0.7922,-0.8252,-0.8511,-0.8894,-0.9215,-0.9484,0.0,-0.5899,-0.5901,-0.5414,-0.6158,-0.7026,-0.7709,-0.7975,-0.798,-0.7669,-0.7908,-0.8963,-1.1198,-1.0625,-1.0106,-1.0106,-0.8286,-0.6786,-0.5955,-0.5418,-0.5428,-0.6112,-0.6177,-0.628,-0.6414,-0.6153,-0.5876,-0.5533,-0.518,-0.4845,-0.4515,-0.4911,-0.4928,-0.4656,-0.4984,-0.5209,0.0,0.0,0.0,-0.7435,-0.5682,0.0,-1.1149,-1.0997,-0.6764,-0.0881,-0.0225,-0.0,-0.0788,-0.5761,-0.9644,-1.2222,0.0,0.0,0.0,-0.9475,-0.9416,-0.9392,-0.934,0.0,0.0,0.0,0.0,0.0,-0.7933,-0.838,-0.8598,0.0,0.0,0.0,0.0,0.0,0.0,0.0,0.0,0.0,0.0,0.0,0.0,0.0,0.0,0.0,0.0,-0.3585,-0.3585,-0.3585,-0.3585,-0.3585,-0.3585,-0.3585,-0.3585,-0.3585,-0.3585,-0.3585,-0.3585,-0.3694,-0.4147,-0.4953,-0.5389,-0.604,-0.6862,-0.7253,-0.7483,-0.7521,-0.7521,-0.7521,-0.7521,-0.7521,-0.7521,-0.7591,-0.8187,-0.8447,-0.8582,-0.9157,-0.942,-0.9484,-0.6091,-0.6454,-0.6828,-0.6884,-0.7862,-0.8864,-0.9447,-0.9514,-0.9468,-0.9468,-0.9468,-1.0003,-1.1424,-1.0945,-1.033,-0.9867,-0.8588,-0.7467,-0.6602,-0.6045,-0.5852,-0.6086,-0.6131,-0.6332,-0.6681,-0.64,-0.6095,-0.5757,-0.5374,-0.4932,-0.4414,-0.4608,-0.4823,-0.5046,-0.5046,-0.5385,0.0,0.0,-0.6909,-0.7626,-0.7019,0.0,-1.1913,-1.2071,-0.9598,-0.5512,-0.1455,-0.0,-0.0391,-0.2982,-0.7889,0.0,0.0,-1.0111,-1.1402,0.0,-1.0502,-1.0474,0.0,0.0,0.0,-0.9982,0.0,0.0,0.0,-0.8736,-0.8787,0.0,0.0,0.0,0.0,0.0,0.0,0.0,0.0,0.0,0.0,0.0,0.0,0.0,0.0,0.0,0.0,-0.3585,-0.3585,-0.3585,-0.3585,-0.3585,-0.3585,-0.3585,-0.3585,-0.3585,-0.3585,-0.3585,-0.3585,-0.364,-0.4098,-0.4803,-0.5336,-0.5996,-0.6786,-0.7302,-0.7521,-0.7521,-0.7521,-0.7521,-0.7521,-0.7521,-0.7521,-0.7521,-0.8052,-0.8382,-0.8582,-0.9092,-0.935,-0.9484,-0.6738,-0.7105,-0.756,-0.7943,-0.9404,-1.0434,-1.0154,-1.0346,-1.0617,-1.0889,-1.0689,-1.0522,-1.0522,-1.0522,-1.028,-0.9795,-0.9117,-0.8286,-0.7467,-0.6824,-0.6378,-0.6091,-0.6021,-0.6247,-0.6884,-0.6616,-0.6277,-0.5869,-0.5528,-0.5012,-0.4313,-0.4313,-0.471,-0.5457,-0.5188,-0.5657,0.0,0.0,0.0,-0.7204,0.0,-1.0342,-1.1072,-1.0122,-0.9781,-0.893,-0.2341,-0.0,-0.0,-0.0,-0.4622,-1.0141,-0.8436,-0.9695,0.0,0.0,0.0,0.0,0.0,0.0,0.0,0.0,0.0,-1.0327,0.0,0.0,0.0,0.0,0.0,0.0,0.0,0.0,0.0,0.0,0.0,0.0,0.0,0.0,0.0,0.0,0.0,0.0,0.0,-0.3785,-0.3585,-0.3585,-0.3585,-0.3585,-0.3585,-0.3585,-0.3585,-0.3585,-0.3585,-0.3585,-0.3585,-0.3754,-0.4098,-0.4629,-0.5234,-0.5898,-0.649,-0.6981,-0.7199,-0.7199,-0.7199,-0.7199,-0.7199,-0.7199,-0.7199,-0.7265,-0.7787,-0.8187,-0.8511,-0.8894,-0.9215,-0.9484,-0.7943,-0.7257,-0.649,-0.6538,-0.8749,-1.0098,-0.8845,-0.9715,-1.0969,-1.2222,-1.1296,-1.0522,-1.0522,-1.0522,-1.0985,-1.2126,-1.0649,0.0,-0.9573,0.0,-0.7166,-0.7126,-0.6578,-0.6434,-0.68,-0.649,-0.6016,-0.5386,-0.532,-0.4957,-0.4313,-0.4313,-0.4535,-0.4992,-0.525,0.0,0.0,0.0,-0.5879,0.0,-0.769,-0.9179,0.0,-0.3372,-0.1363,-0.1266,-0.0331,-0.0,-0.0,0.0,-0.0648,-0.2861,0.0,-1.0442,-0.7788,0.0,0.0,0.0,0.0,0.0,0.0,0.0,-1.1397,0.0,0.0,0.0,0.0,0.0,0.0,0.0,0.0,0.0,0.0,0.0,0.0,0.0,0.0,0.0,0.0,0.0,0.0,0.0,0.0,0.0,-0.3585,-0.3585,-0.3585,-0.3585,-0.3585,-0.3585,-0.3585,-0.3585,-0.3585,-0.3585,-0.3585,-0.3754,-0.3993,-0.4419,-0.4807,-0.5262,-0.5732,-0.5952,-0.6086,-0.6086,-0.6086,-0.6086,-0.6086,-0.6086,-0.6086,-0.6218,-0.7526,-0.8187,-0.8511,-0.8894,-0.9215,-0.9484,-0.7046,-0.6862,-0.6575,-0.6575,-0.7621,-0.8524,-0.8653,-0.9731,-1.0729,-1.1328,-1.1599,-1.1988,0.0,0.0,0.0,0.0,0.0,-1.0903,0.0,0.0,-0.7556,-0.6745,-0.6819,-0.6761,-0.6509,-0.656,-0.6275,-0.5583,-0.5349,-0.4909,-0.4248,-0.4436,-0.4981,-0.577,-0.5643,0.0,-0.7175,0.0,-0.6361,0.0,0.0,0.0,0.0,-0.6013,-0.306,-0.0,-0.0,-0.0,-0.0,0.0,-0.0,0.0,0.0,0.0,0.0,0.0,0.0,0.0,0.0,0.0,0.0,0.0,0.0,0.0,-0.9552,0.0,-0.9679,0.0,0.0,0.0,0.0,0.0,0.0,0.0,0.0,0.0,0.0,0.0,0.0,0.0,0.0,0.0,0.0,0.0,0.0,0.0,0.0,-0.4655,-0.5263,-0.4226,-0.3585,-0.3585,-0.3585,-0.3615,-0.3738,-0.38,-0.3953,-0.4212,-0.4772,-0.5127,-0.5325,-0.5723,-0.5888,-0.5888,-0.5888,-0.5888,-0.5888,-0.5888,-0.5888,-0.5958,-0.6548,-0.7068,-0.7526,-0.7842,-0.8102,-0.8301,-0.6576,-0.6674,-0.6635,-0.6535,-0.6893,-0.7648,-0.9004,-0.9927,-1.074,0.0,0.0,0.0,-1.3958,-0.5641,0.0,0.0,-1.064,-0.9072,0.0,0.0,-0.7669,-0.6931,-0.7216,0.0,-0.67,-0.6673,-0.6368,-0.5808,-0.5516,-0.5108,-0.4646,-0.4774,-0.5381,-0.6376,0.0,-0.6287,-0.6685,0.0,0.0,-0.7097,-1.0339,-0.9295,-0.5967,-0.8184,-0.5245,-0.0,-0.0,-0.0,-0.0,-0.0,-0.0,0.0,-0.0,0.0,0.0,0.0,0.0,0.0,-1.2112,0.0,0.0,0.0,0.0,0.0,0.0,0.0,0.0,0.0,0.0,0.0,0.0,0.0,0.0,-1.0113,0.0,0.0,0.0,0.0,0.0,0.0,0.0,0.0,0.0,0.0,0.0,-0.6895,-0.6183,-0.6002,-0.6486,-0.5167,-0.4171,-0.3638,-0.3585,-0.364,-0.3809,-0.3873,-0.3996,-0.4118,-0.4629,-0.4891,-0.4891,-0.5292,-0.5491,-0.5491,-0.5491,-0.5491,-0.5491,-0.5491,-0.5491,-0.5491,-0.5491,-0.5752,-0.621,-0.6793,-0.7116,-0.7316,-0.7404,-0.6937,-0.6207,-0.5896,0.0,-0.8194,-0.9748,0.0,0.0,0.0,0.0,0.0,0.0,0.0,0.0,0.0,0.0,-0.2376,-0.7078,0.0,-0.7438,-0.831,-0.7933,-0.7673,-0.7666,-0.6793,-0.6149,-0.5808,-0.5792,-0.5784,-0.5752,-0.5354,-0.5577,-0.6323,-0.6617,-0.5448,-0.3299,-0.4008,-0.5272,-0.6834,-0.6936,-0.4317,-0.0874,0.0,-0.5276,-0.0,-0.0,0.0,0.0,-0.0,-0.0,0.0,0.0,0.0,0.0,0.0,0.0,0.0,0.0,0.0,0.0,-0.7318,0.0,0.0,0.0,0.0,-1.0629,0.0,0.0,0.0,0.0,0.0,-1.0616,-1.0179,-1.0113,0.0,0.0,0.0,0.0,0.0,0.0,0.0,0.0,0.0,0.0,-0.7675,-0.7748,-0.7381,-0.6538,-0.6458,-0.5533,-0.3638,-0.3585,-0.364,-0.3809,-0.3873,-0.3996,-0.4118,-0.424,-0.43,-0.43,-0.4367,-0.4367,-0.4367,-0.4367,-0.4367,-0.4367,-0.4367,-0.4367,-0.4367,-0.4367,-0.4498,-0.4824,-0.6005,-0.6789,-0.7181,0.0,-0.744,-0.7041,0.0,0.0,0.0,0.0,-0.9653,0.0,0.0,0.0,0.0,0.0,-0.4804,-0.1513,0.0,0.0,-0.0677,-0.2388,-0.2425,0.0,0.0,0.0,-0.5606,-0.6041,-0.6805,-0.7094,-0.6776,-0.6354,-0.6131,-0.6123,-0.5764,-0.5979,-0.6624,0.0,-0.6828,0.0,0.0,0.0,0.0,0.0,-0.7376,-0.7852,0.0,0.0,-0.0,-0.0,-0.0,0.0,-0.0,-0.0,-0.0,-0.0,-0.0,-0.0562,-0.3515,-0.6369,0.0,0.0,0.0,-1.159,-1.1336,0.0,0.0,0.0,0.0,0.0,0.0,0.0,0.0,0.0,-1.1093,-1.0638,-1.0179,-0.9797,-0.9221,0.0,0.0,0.0,0.0,0.0,0.0,0.0,0.0,0.0,-0.9733,-0.9433,-0.8981,-0.8388,-0.7169,-0.5582,-0.3635,-0.3585,-0.3678,-0.3871,-0.3914,-0.4037,-0.4238,-0.4281,-0.43,-0.43,-0.43,-0.43,-0.43,-0.43,-0.43,-0.43,-0.43,-0.43,-0.43,-0.43,-0.4367,-0.4498,-0.502,-0.5352,-0.5613,-0.8048,0.0,0.0,0.0,0.0,0.0,0.0,0.0,0.0,0.0,-0.8635,0.0,-0.7496,0.0,-0.0,0.0,-0.0,-0.0,-0.0,-0.0,0.0,-0.657,-0.6561,0.0,-0.3412,-0.6872,-0.8298,-0.7433,0.0,-0.6832,-0.6824,-0.6378,-0.6435,-0.6972,0.0,-0.7584,-0.8117,0.0,-0.4357,0.0,0.0,-0.9814,0.0,0.0,-0.2352,-0.0,0.0,-0.0,-0.0,-0.0,-0.0,-0.0,-0.0,-0.0,-0.0,-0.0,-0.1953,-0.4742,-0.756,-0.8339,0.0,-0.8679,-0.7372,0.0,-0.9159,0.0,0.0,0.0,0.0,0.0,0.0,0.0,-1.0612,-1.0331,-0.9743,-0.9047,0.0,-0.8148,0.0,0.0,0.0,0.0,0.0,0.0,-1.0669,-1.0845,-1.0468,-0.9866,0.0,0.0,-0.613,-0.3691,-0.3585,-0.3678,-0.3868,-0.3914,-0.4037,-0.4235,-0.4278,-0.43,-0.43,-0.43,-0.43,-0.43,-0.43,-0.43,-0.43,-0.43,-0.43,-0.43,-0.43,-0.43,-0.43,-0.4431,-0.4561,-0.4761,0.0,0.0,0.0,0.0,-0.7807,0.0,0.0,0.0,-0.8533,0.0,-0.495,-0.0633,-0.0079,-0.0,-0.0,-0.0,-0.0,0.0,-0.0,-0.0,0.0,0.0,-0.6417,-0.6861,-0.0117,0.0,0.0,0.0,0.0,-0.7802,-0.7802,-0.7142,-0.6975,-0.7277,-0.7293,0.0,-0.8238,-0.5597,-0.7388,-1.1914,-1.0989,-1.1274,-1.221,-1.1554,-0.6852,-0.0488,-0.0131,-0.0,-0.0,-0.0,-0.0,-0.0,-0.0,-0.0,-0.0,-0.0,-0.0,-0.0,-0.0,-0.0,-0.0,-0.0,0.0,0.0,0.0,0.0,-0.9788,0.0,0.0,0.0,0.0,0.0,0.0,-1.0583,-0.982,-0.9101,-0.8655,-0.8578,0.0,0.0,0.0,0.0,0.0,-0.8413,-0.9073,-1.1013,-1.0818,-1.0089,0.0,0.0,-0.7058,-0.3785,-0.3635,-0.3642,-0.382,-0.3876,-0.3998,-0.4126,-0.4243,-0.43,-0.43,-0.43,-0.43,-0.43,-0.43,-0.43,-0.43,-0.43,-0.43,-0.43,-0.43,-0.43,-0.43,-0.43,-0.4431,-0.4628,-0.8077,-0.7938,-0.8012,0.0,-0.9124,-0.9241,0.0,0.0,0.0,0.0,-1.2195,-0.9561,-0.0952,-0.0,-0.0,-0.0,-0.0,0.0,0.0,0.0,0.0,-0.0,-0.1724,-0.1872,-0.0062,-0.3801,0.0,-0.9761,0.0,0.0,-0.8214,-0.7253,-0.6856,-0.6951,0.0,0.0,-0.8388,-0.8385,-0.636,-0.374,-0.969,-1.1642,0.0,0.0,-1.009,-0.7641,-0.1989,-0.0,-0.0,-0.0,-0.0,-0.0,-0.0,-0.0,-0.0,-0.0,-0.0,-0.0,-0.0,-0.0,-0.0,-0.0,-0.0874,-0.1912,0.0,0.0,0.0,0.0,0.0,0.0,0.0,0.0,0.0,-1.0248,-0.9071,-0.8355,-0.8568,0.0,0.0,-0.9047,0.0,0.0,0.0,-0.8778,-0.9578,-1.0603,-1.0899,-1.0804,0.0,0.0,0.0,-0.5224,-0.4171,-0.3683,-0.3887,-0.392,-0.4042,-0.4254,-0.4284,-0.43,-0.43,-0.43,-0.43,-0.43,-0.43,-0.43,-0.43,-0.43,-0.43,-0.43,-0.43,-0.43,-0.43,-0.43,-0.43,-0.4431,-0.7712,0.0,0.0,-1.0243,0.0,0.0,-0.8955,0.0,0.0,-1.1589,-1.4416,0.0,-0.1189,-0.0,-0.0,-0.0,-0.0,0.0,-0.0,0.0,0.0,-0.0,-0.0,-0.0,-0.0,-0.1575,0.0,-0.9574,0.0,-0.8279,-0.8119,-0.7221,-0.6808,-0.6824,0.0,-0.7707,0.0,-0.9632,-0.8111,-0.5148,-0.652,0.0,0.0,-1.1058,-1.1111,-1.0288,-0.2746,-0.0,-0.0,-0.0,-0.0,-0.0,-0.0,-0.0,-0.0,-0.0,-0.0,-0.0,-0.0,-0.0,-0.0,-0.0,-0.0,-0.0,-0.0,-0.1612,-0.3071,0.0,0.0,0.0,0.0,0.0,0.0,-0.9765,-0.8947,0.0,0.0,0.0,0.0,0.0,0.0,0.0,0.0,-0.8491,-0.9018,-0.9419,-1.014,-1.0046,0.0,0.0,0.0,-0.6123,-0.5295,-0.5482,-0.6625,-0.4844,-0.4571,-0.5721,-0.4785,-0.43,-0.43,-0.43,-0.43,-0.43,-0.43,-0.43,-0.43,-0.43,-0.43,-0.43,-0.43,-0.43,-0.43,-0.43,-0.43,-0.4367,0.0,0.0,0.0,0.0,0.0,0.0,0.0,-0.948,0.0,-1.0061,0.0,-1.1282,-0.1101,-0.0,-0.0,-0.0,0.0,-0.0,-0.0,-0.0,-0.0,-0.0,-0.0,-0.0,-0.0,-0.0,0.0,0.0,0.0,-0.8549,-0.7779,-0.7126,-0.6784,-0.676,0.0,0.0,0.0,-0.9896,-1.0847,-1.0713,-0.3043,-0.4382,-1.0923,-1.0599,-1.0236,-0.8934,-0.2364,-0.0,-0.0,-0.0,-0.0,-0.0,-0.0,-0.0,-0.0,-0.0,-0.0,-0.0,-0.0,-0.0,-0.0,-0.0,-0.0,-0.0,-0.0,-0.0,-0.0,-0.0,-0.0117,-0.217,0.0,0.0,0.0,-0.9195,0.0,0.0,0.0,0.0,0.0,0.0,0.0,0.0,0.0,0.0,-0.8043,-0.8186,-0.9052,-0.878,0.0,0.0,0.0,-0.7063,-0.6637,0.0,-0.9617,0.0,-0.513,-0.7116,-0.5175,-0.4284,-0.43,-0.43,-0.43,-0.43,-0.43,-0.43,-0.43,-0.43,-0.43,-0.43,-0.43,-0.43,-0.43,-0.43,-0.43,-0.43,0.0,0.0,0.0,0.0,0.0,-1.2182,-1.3818,-0.7223,-0.2002,-0.2049,-0.891,-1.0319,-0.1015,-0.0,-0.0,-0.0,-0.0,0.0,0.0,0.0,0.0,-0.0,-0.0,-0.0,-0.0,-0.0,-0.1609,0.0,-0.6968,-0.791,-0.7779,-0.7126,-0.6657,-0.6387,0.0,0.0,-0.8493,-0.9896,0.0,-1.0026,-0.2868,-0.0913,-0.2825,-0.8348,-0.6949,-0.1822,-0.0472,-0.0,-0.0,-0.0,-0.0,-0.0,-0.0,-0.0,-0.0,-0.0,-0.0,-0.0,-0.0,-0.0,-0.0,-0.0,-0.0,-0.0,-0.0,-0.0,-0.0,-0.0,-0.0794,-0.1849,-0.3154,0.0,0.0,0.0,0.0,0.0,0.0,0.0,0.0,0.0,0.0,0.0,0.0,0.0,0.0,0.0,0.0,0.0,0.0,0.0,0.0,0.0,-0.7171,0.0,0.0,0.0,-0.4209,-0.4904,-0.4375,-0.4202,-0.43,-0.43,-0.43,-0.43,-0.43,-0.43,-0.43,-0.43,-0.43,-0.43,-0.43,-0.43,-0.43,-0.43,-0.43,-0.43,0.0,0.0,0.0,0.0,0.0,0.0,0.0,-0.7044,0.0,-0.0,-0.3827,-0.4805,-0.0467,-0.0,-0.0,-0.0,-0.0,-0.0,-0.0,-0.0,-0.0,-0.0,-0.0,0.0,-0.0,-0.0,-0.1545,-0.4702,-0.6945,-0.7968,-0.7779,-0.7126,-0.6617,-0.6331,0.0,-0.7802,0.0,0.0,0.0,-0.9869,-0.2816,-0.0,-0.0337,-0.3794,-0.2975,-0.0,-0.0,-0.0,-0.0,-0.0,-0.0,-0.0,-0.0,-0.0,-0.0,-0.0,-0.0,-0.0,-0.0,-0.0,-0.0,-0.0,-0.0,-0.0,-0.0,-0.0,-0.0,-0.0,-0.1645,-0.302,-0.2781,-0.546,0.0,0.0,0.0,0.0,0.0,0.0,0.0,0.0,0.0,0.0,0.0,0.0,0.0,0.0,0.0,0.0,0.0,0.0,0.0,0.0,0.0,0.0,0.0,0.0,0.0,-0.7756,-0.5293,-0.4183,-0.43,-0.43,-0.43,-0.43,-0.43,-0.43,-0.43,-0.43,-0.43,-0.43,-0.43,-0.43,-0.43,-0.43,-0.43,-0.4308,0.0,-1.2672,0.0,0.0,-1.203,0.0,-1.6777,-0.7458,-0.0,-0.0,-0.0,-0.0,-0.0,-0.0,-0.0,-0.0,-0.0,-0.0,-0.0,-0.0,-0.0,-0.0,-0.0,-0.0,-0.0,-0.0,-0.1349,0.0,-0.7106,-0.8378,-0.7913,-0.7213,-0.6747,0.0,0.0,0.0,0.0,0.0,-0.9358,-0.7767,-0.22,-0.0,-0.0,-0.0,-0.0,-0.0,-0.0,-0.0,-0.0,-0.0,-0.0,-0.0,-0.0,-0.0,-0.0,-0.0,-0.0,-0.0,-0.0,-0.0,-0.0,-0.0,-0.0,-0.0,-0.0,-0.0,-0.0,-0.0,-0.1809,-0.3441,-0.3605,-0.4772,0.0,0.0,0.0,0.0,0.0,0.0,0.0,0.0,0.0,0.0,0.0,0.0,0.0,0.0,0.0,-0.8348,-0.7447,-0.996,0.0,0.0,0.0,-1.0035,-1.2395,0.0,-0.6092,0.0,-0.577,-0.4143,-0.4262,-0.4289,-0.43,-0.43,-0.43,-0.43,-0.43,-0.43,-0.43,-0.43,-0.43,-0.43,-0.43,-0.43,-0.43,-0.4317,0.0,0.0,0.0,0.0,0.0,0.0,0.0,-0.7446,-0.0,-0.0,-0.0,-0.0,-0.0,-0.0,-0.0,-0.0,-0.0,-0.0,-0.0,-0.0,-0.0,-0.0,-0.0,-0.0,-0.0,-0.0,-0.013,0.0,0.0,-0.8989,0.0,-0.7594,0.0,0.0,0.0,0.0,0.0,-0.8023,-0.565,-0.0939,-0.0269,-0.0,-0.0,-0.0,-0.0,-0.0,-0.0,-0.0,-0.0,-0.0,-0.0,-0.0,-0.0,-0.0,-0.0,-0.0,-0.0,-0.0,-0.0,-0.0,-0.0,-0.0,-0.0,-0.0,-0.0,-0.0,-0.0,-0.0,-0.0193,-0.111,-0.3432,-0.3843,-0.4444,0.0,0.0,0.0,0.0,0.0,0.0,0.0,0.0,0.0,0.0,0.0,0.0,0.0,0.0,-0.8249,-0.7447,-0.9211,-1.0189,-1.0048,0.0,-0.969,-0.8896,-0.6988,-0.5551,-0.4559,-0.4133,-0.4015,-0.414,-0.4249,-0.43,-0.43,-0.43,-0.43,-0.43,-0.43,-0.43,-0.43,-0.43,-0.43,-0.43,-0.43,-0.43,-0.4317,0.0,0.0,0.0,0.0,0.0,0.0,0.0,-0.2984,-0.0,-0.0,-0.0,-0.0,-0.0,-0.0,-0.0,-0.0,-0.0,-0.0,-0.0,-0.0,-0.0,-0.0,-0.0,-0.0,-0.0,-0.0,-0.1052,0.0,0.0,0.0,0.0,0.0,0.0,0.0,0.0,-0.7112,-0.736,-0.4535,-0.2043,-0.0,-0.0,-0.0,-0.0,-0.0,-0.0,-0.0,-0.0,-0.0,-0.0,-0.0,-0.0,-0.0,-0.0,-0.0,-0.0,-0.0,-0.0,-0.0,-0.0,-0.0,-0.0,-0.0,-0.0,-0.0,-0.0,-0.0,-0.0,-0.0,-0.0,-0.0514,-0.2296,-0.3241,-0.4273,0.0,0.0,0.0,0.0,0.0,0.0,0.0,0.0,0.0,0.0,0.0,0.0,0.0,0.0,0.0,-0.8521,-0.8761,-0.8823,-0.8595,0.0,-0.8869,-0.7561,-0.6981,-0.6435,-0.5862,-0.4524,-0.3998,-0.4121,-0.4243,-0.43,-0.43,-0.43,-0.43,-0.43,-0.43,-0.43,-0.43,-0.43,-0.43,-0.43,-0.43,-0.43,-0.4327,-0.5227,0.0,-0.7126,0.0,-1.2565,-1.0075,-0.2612,-0.1489,-0.1489,-0.1489,-0.0628,-0.0,-0.0,-0.0,-0.0,-0.0,-0.0,-0.0,-0.0,-0.0,-0.0,-0.0,-0.0,0.0,-0.0,-0.0,-0.1197,-0.3694,-0.5715,0.0,0.0,0.0,0.0,0.0,-0.7102,-0.6574,-0.5664,-0.172,-0.0,-0.0,-0.0,-0.0,-0.0,-0.0,-0.0,-0.0,-0.0,-0.0,-0.0,-0.0,-0.0,-0.0,-0.0,-0.0,-0.0,-0.0,-0.0,-0.0,-0.0,-0.0,-0.0,-0.0,-0.0,-0.0,-0.0,-0.0,-0.0,-0.0,-0.0669,-0.1378,-0.1823,-0.2954,-0.4213,-0.5533,0.0,0.0,0.0,0.0,0.0,0.0,-0.7128,-0.6068,-0.6539,0.0,0.0,0.0,0.0,0.0,0.0,-0.8926,0.0,0.0,0.0,0.0,0.0,-0.7735,-0.7258,-0.6182,-0.4619,-0.3998,-0.4121,-0.4243,-0.43,-0.43,-0.43,-0.43,-0.43,-0.43,-0.43,-0.43,-0.43,-0.43,-0.43,-0.43,-0.43,-0.4325,-0.5725,-0.573,-0.5733,-0.5819,-0.5822,-0.5656,-0.501,-0.4937,-0.4937,-0.4937,-0.2037,-0.0,-0.0,-0.0,-0.0,-0.0,-0.0,-0.0,-0.0,-0.0,-0.0,0.0,0.0,-0.0,-0.0,-0.0,-0.0,-0.0067,0.0,0.0,-1.043,0.0,-0.5711,-0.8386,-0.8404,-0.5297,-0.0067,-0.0,-0.0,-0.0,-0.0,-0.0,-0.0,-0.0,-0.0,-0.0,-0.0,-0.0,-0.0,-0.0,-0.0,-0.0,-0.0,-0.0,-0.0,-0.0,-0.0,-0.0,-0.0,-0.0,-0.0,-0.0,-0.0,-0.0,-0.0,-0.0,-0.0,-0.0,-0.2242,-0.3816,-0.2378,-0.3003,-0.4023,-0.4786,0.0,0.0,0.0,0.0,0.0,0.0,-0.6633,-0.5579,-0.599,0.0,0.0,0.0,0.0,0.0,0.0,0.0,0.0,-1.0965,-1.314,0.0,-0.8987,-0.9453,-0.772,-0.3815,-0.3876,-0.3998,-0.4121,-0.4243,-0.43,-0.43,-0.43,-0.43,-0.43,-0.43,-0.43,-0.43,-0.43,-0.43,-0.43,-0.43,-0.43,-0.43,-0.5733,-0.5733,-0.5733,-0.5733,-0.5733,-0.5572,-0.5091,-0.5018,-0.5018,-0.5018,-0.4075,-0.3284,-0.2992,-0.2949,-0.2956,0.0,-0.2956,-0.2083,0.0,-0.0,-0.0876,-0.2827,-0.1077,-0.0,-0.0,-0.0,-0.0,-0.0,0.0,0.0,0.0,-0.4181,-0.1806,-0.2661,-0.2707,-0.166,-0.0,-0.0,-0.0,-0.0,-0.0,-0.0,-0.0,-0.0,-0.0,-0.0,-0.0,-0.0,-0.0,-0.0,-0.0,-0.0,-0.0,-0.0,-0.0,-0.0,-0.0,-0.0,-0.0,-0.0,-0.0,-0.0,-0.0,-0.0,-0.0,-0.0,-0.0539,-0.2495,-0.3687,-0.4109,-0.3558,-0.3748,-0.4406,-0.5656,-0.5001,0.0,0.0,0.0,0.0,0.0,-0.6867,-0.614,0.0,-0.5622,0.0,0.0,0.0,0.0,0.0,0.0,0.0,0.0,-0.8669,0.0,-0.5505,-0.7131,-0.6624,-0.3879,-0.4001,-0.4124,-0.4243,-0.4281,-0.43,-0.43,-0.43,-0.43,-0.43,-0.43,-0.43,-0.43,-0.43,-0.43,-0.43,-0.43,-0.43,-0.4311,-0.5996,-0.5855,-0.5733,-0.5733,-0.5733,-0.5632,-0.533,-0.5135,-0.5018,-0.5018,-0.5018,-0.4904,-0.4602,-0.4409,0.0,-0.43,-0.43,-0.356,-0.1747,-0.1614,-0.242,-0.4241,-0.2554,-0.1344,-0.0805,0.0,0.0,-0.0,-0.0,-0.2255,-0.6455,-0.2063,-0.0,-0.0,-0.0,-0.0,-0.0,-0.0,-0.0,-0.0,-0.0,-0.0,-0.0,-0.0,-0.0,-0.0,-0.0,-0.0,-0.0,-0.0,-0.0,-0.0,-0.0,-0.0,-0.0,-0.0,-0.0,-0.0,-0.0,-0.0,-0.0,-0.0,-0.0,-0.0,-0.0,-0.0809,-0.2157,-0.3919,-0.4322,-0.4292,-0.4211,-0.4156,-0.4364,-0.5232,-0.4523,-0.4551,-0.6676,0.0,0.0,0.0,0.0,0.0,0.0,-0.5185,0.0,0.0,0.0,0.0,0.0,0.0,0.0,-0.6866,-0.7649,0.0,-0.5075,-0.6561,-0.6134,-0.4004,-0.4126,-0.4227,-0.43,-0.43,-0.43,-0.43,-0.43,-0.43,-0.43,-0.43,-0.43,-0.43,-0.43,-0.43,-0.43,-0.43,-0.43,-0.4311,-0.6429,-0.6056,0.0,0.0,-0.5733,0.0,-0.5689,-0.5303,-0.5018,-0.5018,-0.5018,-0.5018,-0.5018,-0.4618,-0.4338,-0.4303,0.0,0.0,0.0,-0.43,-0.4306,-0.4317,-0.4317,-0.371,-0.2294,-0.2493,-0.1754,-0.0,-0.0,-0.0,-0.0,-0.0,-0.0,-0.0,-0.0,-0.0,-0.0,-0.0,-0.0,-0.0,-0.0,-0.0,-0.0,-0.0,-0.0,-0.0,-0.0,-0.0,-0.0,-0.0,-0.0,-0.0,-0.0,-0.0,-0.0,-0.0,-0.0,-0.0,-0.0,-0.0,-0.0,-0.0,-0.0,-0.0,-0.0,-0.2225,-0.4327,-0.4327,-0.4314,-0.43,-0.43,-0.4208,-0.4088,-0.3894,-0.3841,-0.4178,-0.5224,0.0,0.0,0.0,0.0,0.0,0.0,-0.4693,-0.4944,0.0,0.0,0.0,0.0,0.0,-0.7688,-0.8591,-0.9173,-0.8687,-0.6978,-0.7104,-0.6129,-0.4132,-0.4246,-0.43,-0.43,-0.43,-0.43,-0.43,-0.43,-0.43,-0.43,-0.43,-0.43,-0.43,-0.43,-0.4306,-0.4311,-0.4303,-0.4306,-0.4311,0.0,0.0,-0.5733,-0.5733,-0.5733,-0.561,-0.5243,-0.5091,-0.5018,-0.5018,-0.5018,-0.5018,-0.5018,-0.4915,-0.47,-0.4333,-0.43,-0.43,-0.43,-0.43,-0.4355,-0.4477,-0.456,-0.4377,-0.393,-0.4106,-0.2817,-0.0,-0.0,-0.0,-0.0,-0.0,-0.0,-0.0,-0.0,-0.0,-0.0,-0.0,-0.0,-0.0,-0.0,-0.0,-0.0,-0.0,-0.0,-0.0,-0.0,-0.0,-0.0,-0.0,-0.0,-0.0,-0.0,-0.0,-0.0,-0.0,-0.0,-0.0,-0.0,-0.0,-0.0,-0.0,-0.0,-0.0,-0.0,-0.2225,-0.4327,-0.4319,-0.4308,-0.43,-0.43,-0.4276,-0.4186,-0.3907,-0.3912,-0.4232,-0.5245,-0.5159,-0.5139,0.0,-0.5421,-0.4912,-0.3962,-0.3866,-0.4247,0.0,0.0,0.0,0.0,-0.5673,-0.4866,-0.5039,-0.5167,-0.5103,-0.4866,-0.4835,-0.4662,-0.4257,-0.4287,-0.43,-0.43,-0.43,-0.43,-0.43,-0.43,-0.43,-0.43,-0.43,-0.43,-0.43,-0.43,-0.4355,-0.442,-0.4333,-0.4355,-0.4417,-0.7081,-0.6341,-0.5733,-0.5733,-0.5733,-0.5646,-0.5385,-0.5156,-0.5018,-0.5018,-0.5018,-0.5018,-0.5018,-0.5018,-0.4912,-0.4651,-0.4428,-0.43,-0.43,-0.4401,-0.4485,-0.4466,-0.4687,-0.4731,-0.4587,-0.4719,-0.395,-0.2258,-0.1505,-0.1137,-0.1152,-0.0384,-0.0,-0.0,-0.0,-0.0,-0.0,-0.0,-0.0,-0.0,-0.0,-0.0,-0.0,-0.0,-0.0,-0.0,-0.0,-0.0,-0.0,-0.0,-0.0,-0.0,-0.0,-0.0,-0.0,-0.0,-0.0,-0.0,-0.0,-0.0,-0.0,-0.0,-0.0,-0.0337,-0.1684,-0.2627,-0.3502,-0.4175,-0.4306,-0.43,-0.43,-0.43,-0.4221,-0.3974,-0.4527,-0.5144,-0.5677,-0.5658,-0.569,-0.5775,-0.5155,-0.4395,-0.3767,-0.3713,-0.3915,-0.4426,0.0,0.0,-0.5909,-0.5416,-0.5092,-0.5048,-0.4326,-0.3982,-0.4115,-0.4172,-0.4235,-0.43,-0.43,-0.43,-0.4303,-0.4355,-0.4379,-0.4382,-0.4436,-0.4431,-0.4379,-0.4379,-0.4346,-0.43,-0.43,-0.4371,-0.4463,-0.4401,-0.4417,-0.4461,-0.8038,-0.6904,-0.5908,-0.5908,-0.5822,-0.5733,-0.5733,-0.5325,-0.5018,-0.5018,-0.5018,-0.5018,-0.5018,-0.5018,-0.5018,-0.5018,-0.4645,-0.4387,-0.4341,-0.4501,-0.4586,-0.4558,-0.4686,-0.4743,-0.4781,-0.4809,-0.4912,-0.5018,-0.36,-0.2895,-0.2818,-0.1409,-0.0626,-0.0392,-0.0078,-0.0,-0.0,-0.0,-0.0,-0.0,-0.0,-0.0,-0.0,-0.0,-0.0,-0.0,-0.0,-0.0,-0.0,-0.0,-0.0,-0.0,-0.0,-0.0,-0.0,-0.0,-0.0,-0.0,-0.0,-0.0,-0.0,-0.0,-0.0338,-0.128,-0.3715,-0.3299,-0.2818,-0.403,-0.43,-0.43,-0.43,-0.43,-0.4279,-0.4189,-0.5389,-0.6307,-0.6304,0.0,-0.6028,-0.6183,-0.4786,-0.384,-0.384,-0.3873,-0.3901,-0.3873,-0.5299,-0.5667,0.0,-0.5578,-0.632,-0.6516,-0.4969,-0.4126,-0.4145,-0.4249,-0.43,-0.43,-0.43,-0.4308,-0.4327,-0.4425,-0.448,-0.4504,-0.4679,-0.4665,-0.4499,-0.4499,-0.4439,-0.4355,-0.4355,-0.4425,-0.4523,-0.4504,-0.451,-0.4518,-0.8038,-0.7366,-0.6877,-0.6877,-0.6263,-0.5733,-0.5733,-0.5325,-0.5018,-0.5018,-0.5018,-0.5018,-0.5018,-0.5018,-0.5018,-0.5018,-0.4947,-0.479,-0.452,-0.4409,-0.4439,-0.4626,-0.4731,-0.4762,-0.4958,-0.498,-0.4996,-0.5018,-0.4701,-0.4626,-0.4633,-0.4318,-0.345,-0.2034,-0.0627,-0.0,-0.0,-0.0,-0.0,-0.0,-0.0,-0.0,-0.0,-0.0,-0.0,-0.0,-0.0,-0.0,-0.0,-0.0,-0.0,-0.0,-0.0,-0.0,-0.0,-0.0,-0.0,-0.0,-0.0,-0.0,-0.0,-0.0,-0.1851,-0.3782,-0.4193,-0.411,-0.403,-0.4233,-0.43,-0.43,-0.43,-0.43,-0.4502,-0.5217,-0.5889,-0.6482,-0.7064,0.0,-0.601,-0.5871,-0.471,-0.3906,-0.3906,-0.3922,-0.3969,-0.4056,-0.4325,-0.5004,-0.6269,-0.525,-0.5314,-0.6707,-0.5014,-0.4167,-0.427,-0.4289,-0.43,-0.43,-0.43,-0.4352,-0.4444,-0.4461,-0.4596,-0.4698,-0.4718,-0.4715,-0.4695,-0.4695,-0.4684,-0.4671,-0.4671,-0.4673,-0.4765,-0.4662,-0.4689,-0.4749,-0.8038,-0.7814,-0.7522,-0.7197,-0.67,-0.6438,-0.6438,-0.6065,-0.5562,-0.5096,-0.5018,-0.5018,-0.5018,-0.5018,-0.5018,-0.5018,-0.5018,-0.4917,-0.4683,-0.4518,-0.4526,-0.4741,-0.4814,-0.4901,-0.5015,-0.5018,-0.5018,-0.5018,-0.5018,-0.5021,-0.5023,-0.5023,-0.4548,-0.3837,-0.3057,-0.1724,-0.0,-0.0,-0.0,-0.0,-0.0,-0.0,-0.0,-0.0,-0.0,-0.0,-0.0,-0.0,-0.0,-0.0,-0.0,-0.0,-0.0,-0.0,-0.0,-0.0,-0.0,-0.0,-0.0,-0.0,-0.0,-0.0,-0.1021,-0.2359,-0.3914,-0.4314,-0.4306,-0.4303,-0.43,-0.43,-0.43,-0.43,-0.473,-0.6069,-0.6315,0.0,0.0,-0.7084,-0.624,-0.6228,-0.4897,-0.4034,-0.4034,-0.4091,-0.4126,-0.4118,-0.4178,-0.4596,-0.5413,-0.4719,-0.4659,-0.5413,-0.4659,-0.4243,-0.43,-0.43,-0.43,-0.4303,-0.4363,-0.442,-0.4474,-0.4605,-0.4697,-0.4754,-0.4819,-0.4811,-0.4751,-0.4751,-0.4711,-0.4726,-0.4726,-0.4798,-0.4972,-0.4913,-0.5007,-0.519,-0.8038,-0.7926,-0.7685,-0.7221,-0.7139,-0.7139,-0.7139,-0.6637,-0.5951,-0.5093,-0.5171,-0.5326,-0.5326,-0.5326,-0.5251,-0.5174,-0.5174,-0.512,-0.4916,-0.4789,-0.4705,-0.4828,-0.495,-0.5018,-0.5018,-0.5018,-0.5018,-0.5018,-0.5018,-0.5018,-0.5018,-0.5018,-0.5018,-0.5018,-0.5031,-0.3452,-0.0702,-0.0223,-0.0,-0.0,-0.0,-0.0,-0.0,-0.0,-0.0,-0.0,-0.0,-0.0,-0.0,-0.0,-0.0,-0.0,-0.0,-0.0,-0.0,-0.0,-0.0,-0.0,-0.0,-0.0,-0.014,-0.0821,-0.0816,-0.1223,-0.3738,-0.4374,-0.4384,-0.4346,-0.4341,-0.4333,-0.4306,-0.43,-0.4838,-0.6412,0.0,0.0,0.0,-0.726,-0.6288,-0.6061,-0.4877,-0.4129,-0.4221,-0.4219,-0.423,-0.4294,-0.4339,-0.4327,-0.4367,-0.4392,-0.4395,-0.4434,-0.4367,-0.43,-0.43,-0.43,-0.43,-0.4303,-0.4417,-0.4485,-0.4518,-0.4735,-0.4849,-0.4882,-0.4974,-0.5038,-0.4949,-0.4952,-0.4955,-0.4843,-0.4871,-0.4995,-0.5205,-0.5237,-0.5327,-0.5551,-0.8038,-0.759,-0.7193,-0.7146,-0.7139,-0.7139,-0.7139,-0.6637,-0.5951,-0.5093,-0.5715,-0.6183,-0.6183,-0.6183,-0.6028,-0.5559,-0.5559,-0.5476,-0.5384,-0.5369,-0.5163,-0.4838,-0.495,-0.5018,-0.5018,-0.5018,-0.5018,-0.5018,-0.5018,-0.5018,-0.5018,-0.5018,-0.5018,-0.5018,-0.5018,-0.4304,-0.2958,-0.0892,-0.0,-0.0,-0.0,-0.0,-0.0,-0.0,-0.0,-0.0,-0.0,-0.0,-0.0,-0.0,-0.0,-0.0,-0.0,-0.0,-0.0,-0.0,-0.0,-0.0,-0.0,-0.0,-0.0632,-0.3297,-0.3147,-0.272,-0.4122,-0.4553,-0.4665,-0.4482,-0.4458,-0.4425,-0.4319,-0.43,-0.4713,-0.5876,0.0,0.0,-0.6279,-0.6459,-0.6063,-0.4607,-0.4248,-0.4223,-0.4535,-0.4319,-0.4302,-0.474,-0.4597,-0.4477,-0.4567,-0.4606,-0.4685,-0.4767,-0.4434,-0.43,-0.43,-0.43,-0.43,-0.4303,-0.4417,-0.4599,-0.4718,-0.4773,-0.4896,-0.5004,-0.5165,-0.5237,-0.5306,-0.5467,-0.5466,-0.5355,-0.5481,-0.546,-0.5373,-0.5499,-0.5544,-0.5604,-0.7553,-0.7295,-0.7139,-0.7139,-0.7139,-0.7139,-0.7139,-0.6949,-0.6592,-0.5918,-0.6106,-0.6338,-0.6338,-0.6028,-0.5951,-0.6028,-0.5867,-0.5634,-0.5559,-0.5559,-0.5381,-0.495,-0.4991,-0.5093,-0.5168,-0.5093,-0.5093,-0.5168,-0.5093,-0.5018,-0.5018,-0.5018,-0.5018,-0.5018,-0.5018,-0.4779,-0.4292,-0.335,-0.1821,-0.0,-0.0,-0.0,-0.0,-0.0,-0.0,-0.0,-0.0,-0.0,-0.0,-0.0,-0.0,-0.0,-0.0,-0.0,-0.0,-0.0,-0.0,-0.0,-0.0,-0.0,-0.0791,-0.3968,-0.4204,-0.3808,-0.4512,-0.4643,-0.4553,-0.4649,-0.4654,-0.464,-0.4529,-0.4518,-0.5047,-0.6591,0.0,-0.5786,-0.6924,-0.6245,-0.5411,-0.4801,-0.4827,-0.4812,-0.4865,-0.4824,-0.4951,-0.5075,-0.5053,-0.4989,-0.5008,-0.5053,-0.502,-0.5021,-0.4881,-0.4707,-0.4495,-0.4495,-0.4467,-0.4406,-0.4526,-0.4718,-0.4987,-0.5039,-0.52,-0.5404,-0.5479,-0.5479,-0.5479,-0.5559,-0.5607,-0.5564,-0.5616,-0.5681,-0.5714,-0.5767,-0.5867,-0.6018,-0.7258,-0.7139,-0.7139,-0.7139,-0.7139,-0.7139,-0.7139,-0.7139,-0.6993,-0.659,-0.6376,-0.6338,-0.6338,-0.6028,-0.5948,-0.6261,-0.6099,-0.5864,-0.5712,-0.5637,-0.5482,-0.5174,-0.5174,-0.5249,-0.5401,-0.5249,-0.5249,-0.5401,-0.5249,-0.5174,-0.5174,-0.5174,-0.5171,-0.5093,-0.5093,-0.5093,-0.5002,-0.4773,-0.3427,-0.1304,-0.0412,-0.0,-0.0,-0.0,-0.0,-0.0,-0.0,-0.0,-0.0,-0.0,-0.0,-0.0,-0.0,-0.0,-0.0,-0.0,-0.0,-0.0,-0.0,-0.0,-0.0669,-0.3522,-0.4359,-0.4563,-0.4778,-0.4759,-0.4662,-0.4703,-0.4711,-0.4697,-0.4731,-0.4726,-0.5087,-0.6395,-0.5561,-0.5277,-0.6686,-0.5854,-0.5137,-0.5096,-0.5194,-0.5182,-0.5159,-0.5191,-0.5325,-0.544,-0.5412,-0.5365,-0.5434,-0.5324,-0.5328,-0.53,-0.5227,-0.5114,-0.4884,-0.4733,-0.4692,-0.468,-0.4808,-0.5006,-0.5208,-0.534,-0.5479,-0.5637,-0.5637,-0.5712,-0.5712,-0.5792,-0.5767,-0.573,-0.5777,-0.5841,-0.5956,-0.6002,-0.618,-0.6338,-0.7258,-0.7139,-0.7139,-0.7139,-0.7139,-0.7139,-0.7139,-0.7139,-0.7139,-0.7139,-0.663,-0.6345,-0.6338,-0.6338,-0.6338,-0.6338,-0.6338,-0.618,-0.5941,-0.5712,-0.5637,-0.5637,-0.5637,-0.5637,-0.5637,-0.5637,-0.5637,-0.5637,-0.5637,-0.5637,-0.5637,-0.5637,-0.5479,-0.5321,-0.5321,-0.5168,-0.5002,-0.4842,-0.4667,-0.4205,-0.1235,-0.0,-0.0,-0.0,-0.0,-0.0,-0.0,-0.0,-0.0,-0.0,-0.0,-0.0,-0.0,-0.0,-0.0,-0.0,-0.0,-0.0,-0.0,-0.0,-0.0388,-0.2065,-0.3789,-0.5,-0.4838,-0.4928,-0.4982,-0.486,-0.4836,-0.48,-0.4751,-0.4729,-0.4694,-0.4817,-0.498,-0.5127,-0.5127,-0.5358,-0.5461,-0.5318,-0.5182,-0.5224,-0.5512,-0.5252,-0.5294,-0.5793,-0.5651,-0.5582,-0.5725,-0.5447,-0.5447,-0.5803,-0.5591,-0.5522,-0.5522,-0.5036,-0.4898,-0.5095,-0.5164,-0.5301,-0.5517,-0.5576,-0.5637,-0.5637,-0.5786,-0.5941,-0.5941,-0.618,-0.6169,-0.6047,-0.62,-0.6166,-0.6051,-0.6203,-0.6338,-0.6338,-0.7258,-0.7139,-0.7139,-0.7139,-0.7139,-0.7139,-0.7139,-0.7139,-0.7139,-0.7139,-0.6987,-0.6719,-0.6305,-0.6338,-0.6338,-0.6338,-0.6338,-0.6261,-0.618,-0.6103,-0.6106,-0.6106,-0.5792,-0.5637,-0.5786,-0.5637,-0.5637,-0.5786,-0.5637,-0.5637,-0.5637,-0.5637,-0.5559,-0.5479,-0.5479,-0.5348,-0.5101,-0.4944,-0.4756,-0.4383,-0.3406,-0.1812,-0.0,-0.0,-0.0,-0.0,-0.0,-0.0,-0.0,-0.0,-0.0,-0.0,-0.0,-0.0,-0.0,-0.0,-0.0,-0.0,-0.0,-0.0,-0.0399,-0.2086,-0.3737,-0.4955,-0.4947,-0.4923,-0.4904,-0.4953,-0.4961,-0.495,-0.5061,-0.4983,-0.4996,-0.534,-0.5266,-0.534,-0.5647,-0.5723,-0.5787,-0.5743,-0.5855,-0.5924,-0.5812,-0.5855,-0.5999,-0.6122,-0.609,-0.6113,-0.6113,-0.6069,-0.5999,-0.5966,-0.5889,-0.5838,-0.5734,-0.5435,-0.5321,-0.5386,-0.5427,-0.5517,-0.5803,-0.5767,-0.5944,-0.6106,-0.618,-0.618,-0.618,-0.6261,-0.6234,-0.6196,-0.6244,-0.6234,-0.6196,-0.6244,-0.6338,-0.6338,-0.7214,-0.7139,-0.7139,-0.7139,-0.6946,-0.6793,-0.6793,-0.6793,-0.6875,-0.7109,-0.6939,-0.6702,-0.6461,-0.6332,-0.6338,-0.6338,-0.6338,-0.6338,-0.6338,-0.6338,-0.6338,-0.6338,-0.6028,-0.5948,-0.6022,-0.5948,-0.5948,-0.6022,-0.5948,-0.587,-0.587,-0.587,-0.5792,-0.5712,-0.5653,-0.5506,-0.519,-0.4942,-0.4756,-0.4538,-0.4349,-0.3288,-0.161,-0.1074,-0.047,-0.0067,-0.0749,-0.0547,-0.0,-0.0,-0.0,-0.0,-0.0,-0.0,-0.0,-0.0,-0.0,-0.0,-0.0,-0.0952,-0.2083,-0.2545,-0.3857,-0.5004,-0.5015,-0.4958,-0.4939,-0.5059,-0.5165,-0.5244,-0.532,-0.5398,-0.5398,-0.5714,-0.559,-0.5649,-0.594,-0.6058,-0.6022,-0.6022,-0.618,-0.6257,-0.6099,-0.618,-0.6338,-0.6338,-0.6338,-0.6338,-0.6338,-0.6338,-0.6217,-0.6125,-0.6122,-0.6078,-0.5983,-0.5966,-0.5832,-0.5732,-0.5732,-0.5806,-0.6022,-0.6022,-0.618,-0.6338,-0.6338,-0.6338,-0.6338,-0.6338,-0.6338,-0.6338,-0.6338,-0.6338,-0.6338,-0.6338,-0.6338,-0.6338,-0.7139,-0.7139,-0.7139,-0.7139,-0.6675,-0.6291,-0.6342,-0.6285,-0.6485,-0.6993,-0.6593,-0.6363,-0.663,-0.642,-0.6338,-0.6338,-0.6338,-0.6338,-0.6338,-0.6338,-0.6338,-0.6338,-0.6338,-0.6338,-0.6338,-0.6338,-0.6338,-0.6338,-0.6338,-0.6338,-0.6338,-0.6338,-0.618,-0.5935,-0.5802,-0.5663,-0.5414,-0.4944,-0.476,-0.474,-0.4414,-0.43,-0.4167,-0.2818,-0.1476,-0.0607,-0.2149,-0.1751,-0.0423,-0.0072,-0.0,-0.0,-0.0,-0.0,-0.0,-0.0,-0.0,-0.0,-0.0,-0.2451,-0.4711,-0.3485,-0.4082,-0.5046,-0.4999,-0.5048,-0.5078,-0.5181,-0.5367,-0.5531,-0.5531,-0.5758,-0.5913,-0.5928,-0.5972,-0.6006,-0.6221,-0.6287,-0.6274,-0.6264,-0.6338,-0.6345,-0.6278,-0.6281,-0.6274,-0.6264,-0.6274,-0.6281,-0.6281,-0.6281,-0.6281,-0.6281,-0.6268,-0.6338,-0.6338,-0.639,-0.6318,-0.6051,-0.6078,-0.6149,-0.6338,-0.6352,-0.6274,-0.6338,-0.6338,-0.6338,-0.6338,-0.6338,-0.6338,-0.6338,-0.6338,-0.6338,-0.6338,-0.6338,-0.6338,-0.6338,-0.7139,-0.7139,-0.7139,-0.7139,-0.6844,-0.6529,-0.6295,-0.6458,-0.6569,-0.6464,-0.6339,-0.6285,-0.6349,-0.6298,-0.6338,-0.6338,-0.6338,-0.6338,-0.6338,-0.6338,-0.6338,-0.6338,-0.6338,-0.6338,-0.6338,-0.6338,-0.6338,-0.6338,-0.6338,-0.6338,-0.6338,-0.6338,-0.6261,-0.618,-0.6146,-0.599,-0.5715,-0.5328,-0.5124,-0.5011,-0.4678,-0.4431,-0.4233,-0.3964,-0.3629,-0.3446,-0.4181,-0.4227,-0.3545,-0.0888,-0.0,-0.0,-0.0,-0.0,-0.0,-0.0,-0.0,-0.0,-0.0,-0.2738,-0.5455,-0.4951,-0.5165,-0.5368,-0.5322,-0.5459,-0.555,-0.5408,-0.5661,-0.5992,-0.5909,-0.5903,-0.6028,-0.6466,-0.6283,-0.6201,-0.6388,-0.6447,-0.6386,-0.6352,-0.6338,-0.6305,-0.6417,-0.6427,-0.638,-0.6271,-0.6363,-0.6427,-0.6427,-0.6427,-0.6427,-0.6427,-0.6318,-0.6338,-0.6338,-0.6291,-0.6274,-0.6213,-0.6444,-0.6451,-0.6342,-0.6376,-0.6366,-0.6338,-0.6338,-0.6338,-0.6338,-0.6338,-0.6338,-0.6338,-0.6338,-0.6338,-0.6338,-0.6338,-0.6338,-0.6338,-0.7139,-0.7139,-0.7139,-0.7139,-0.6858,-0.658,-0.6427,-0.6536,-0.661,-0.6546,-0.6376,-0.6376,-0.6472,-0.6318,-0.6338,-0.6338,-0.6338,-0.6338,-0.6338,-0.6338,-0.6338,-0.6338,-0.619,-0.6183,-0.6335,-0.6186,-0.6186,-0.6338,-0.6338,-0.6338,-0.6338,-0.6338,-0.6338,-0.6257,-0.6183,-0.6029,-0.5864,-0.5506,-0.523,-0.5152,-0.4812,-0.4631,-0.4564,-0.4498,-0.4367,-0.4333,-0.4728,-0.4579,-0.3795,-0.0915,-0.0,-0.0308,-0.1877,-0.1256,-0.0,-0.0,-0.0,-0.0402,-0.2221,-0.351,-0.4568,-0.5379,-0.5604,-0.5695,-0.5569,-0.5624,-0.5725,-0.5782,-0.6132,-0.6298,-0.6298,-0.6325,-0.6466,-0.6713,-0.6602,-0.6528,-0.6681,-0.6627,-0.6552,-0.6478,-0.6471,-0.6502,-0.6573,-0.658,-0.6552,-0.6474,-0.6539,-0.658,-0.658,-0.658,-0.658,-0.658,-0.6437,-0.6396,-0.6471,-0.6471,-0.6471,-0.6471,-0.6552,-0.6549,-0.6474,-0.6549,-0.6539,-0.6468,-0.6393,-0.6363,-0.6356,-0.6288,-0.6338,-0.6338,-0.6338,-0.6338,-0.6338,-0.6338,-0.6338,-0.6338,-0.7139,-0.7139,-0.7139,-0.7139,-0.6854,-0.6624,-0.6624,-0.6624,-0.6668,-0.68,-0.6559,-0.642,-0.6532,-0.6376,-0.6338,-0.6338,-0.6338,-0.6338,-0.6338,-0.6338,-0.6338,-0.6338,-0.6139,-0.6129,-0.6257,-0.6135,-0.6132,-0.6338,-0.6338,-0.6338,-0.6338,-0.6338,-0.6338,-0.6254,-0.6125,-0.6067,-0.6051,-0.5558,-0.5361,-0.5329,-0.5051,-0.4849,-0.4827,-0.4758,-0.4576,-0.4425,-0.4577,-0.4204,-0.3283,-0.1487,-0.0626,-0.0861,-0.3377,-0.2671,-0.0867,-0.0968,-0.0482,-0.0802,-0.4279,-0.4358,-0.3835,-0.5373,-0.5846,-0.5981,-0.5879,-0.5855,-0.5972,-0.6251,-0.6529,-0.6701,-0.6615,-0.6771,-0.6939,-0.6959,-0.6837,-0.6783,-0.6912,-0.682,-0.6729,-0.6705,-0.6722,-0.6729,-0.6702,-0.6722,-0.6729,-0.6702,-0.6725,-0.6739,-0.6739,-0.6739,-0.6739,-0.6739,-0.659,-0.6573,-0.6698,-0.6702,-0.6712,-0.6736,-0.661,-0.6603,-0.6702,-0.6725,-0.6725,-0.6695,-0.6566,-0.6498,-0.6464,-0.6346,-0.6359,-0.6338,-0.6338,-0.6338,-0.6338,-0.6338,-0.6338,-0.6338,-0.7139,-0.7139,-0.7139,-0.7139,-0.6997,-0.6878,-0.6878,-0.6878,-0.6841,-0.6732,-0.6787,-0.6749,-0.6512,-0.6349,-0.6338,-0.6338,-0.6338,-0.6338,-0.6338,-0.6338,-0.6338,-0.6338,-0.624,-0.624,-0.6261,-0.624,-0.624,-0.6338,-0.6338,-0.6338,-0.6338,-0.6338,-0.6338,-0.6335,-0.624,-0.623,-0.6217,-0.5891,-0.5745,-0.5688,-0.5332,-0.5135,-0.5087,-0.502,-0.5029,-0.4948,-0.461,-0.467,-0.4711,-0.4396,-0.337,-0.1956,-0.1018,-0.235,-0.442,-0.4781,-0.2551,-0.0502,-0.2661,-0.4552,-0.5863,-0.5716,-0.5974,-0.631,-0.6292,-0.6471,-0.6565,-0.6401,-0.6757,-0.6936,-0.6763,-0.684,-0.697,-0.7092,-0.699,-0.6905,-0.6926,-0.6912,-0.6848,-0.6715,-0.6817,-0.6848,-0.6712,-0.682,-0.6844,-0.6712,-0.6824,-0.6898,-0.6898,-0.6898,-0.6898,-0.6898,-0.6749,-0.6678,-0.6702,-0.6702,-0.6766,-0.6898,-0.6875,-0.681,-0.6705,-0.6837,-0.6824,-0.6698,-0.6678,-0.6597,-0.6471,-0.6451,-0.6373,-0.6338,-0.6338,-0.6338,-0.6338,-0.6338,-0.6338,-0.6338,-0.7156,-0.7139,-0.7139,-0.7139,-0.7021,-0.6929,-0.6929,-0.6929,-0.6905,-0.6837,-0.6888,-0.6844,-0.6624,-0.6396,-0.6338,-0.6338,-0.6338,-0.6338,-0.6338,-0.6338,-0.6338,-0.6338,-0.6176,-0.6173,-0.6335,-0.6176,-0.6173,-0.6338,-0.6338,-0.6338,-0.6335,-0.6173,-0.6132,-0.6129,-0.604,-0.6051,-0.6115,-0.5808,-0.5765,-0.5901,-0.5517,-0.5335,-0.5338,-0.5186,-0.5177,-0.5193,-0.4904,-0.4944,-0.5174,-0.5021,-0.4472,-0.3765,-0.3056,-0.251,-0.2609,-0.4851,-0.4394,-0.3338,-0.4197,-0.539,-0.6283,-0.6266,-0.645,-0.6612,-0.6612,-0.6789,-0.6966,-0.6786,-0.6962,-0.7051,-0.6966,-0.7004,-0.7068,-0.7129,-0.7088,-0.7048,-0.7048,-0.7048,-0.7021,-0.6953,-0.7007,-0.7021,-0.6953,-0.7007,-0.7017,-0.6953,-0.7007,-0.7048,-0.7048,-0.7048,-0.7048,-0.7048,-0.6905,-0.6865,-0.6946,-0.6868,-0.6902,-0.7048,-0.7048,-0.701,-0.6949,-0.7014,-0.701,-0.6943,-0.6861,-0.679,-0.6715,-0.6542,-0.6434,-0.6373,-0.6291,-0.6338,-0.6257,-0.5786,-0.5553,-0.5473]},{"header":{"parameterUnit":"m.s-1","parameterCategory":1,"la1":30.6,"la2":28.766,"lo1":-90.7593,"lo2":-88.6598,"dy":0.0162,"dx":0.0183,"nx":116,"ny":114,"refTime":"2023-06-08T06:00:00:Z","depth":0,"parameterNumber":3,"parameterNumberName":"V-component_of_WINDS"},"data":[0.0,0.0,0.0,0.0,0.0,0.0,0.0,0.0,0.0,0.0,0.0,0.0,0.0,0.0,0.0,0.0,0.0,0.0,0.0,0.0,0.0,0.0,0.0,0.0,0.0,0.0,0.0,0.0,0.0,0.0,0.0,0.0,0.0,0.0,0.0,0.0,0.0,0.0,0.0,0.0,0.0,0.0,0.0,0.0,0.0,0.0,0.0,0.0,0.0,0.0,0.0,0.0,0.0,0.0,0.0,0.0,0.0,0.0,0.0,0.0,0.0,0.0,0.0,0.0,0.0,0.0,0.0,0.0,0.0,0.0,0.0,0.0,0.0,0.0,0.0,0.0,0.0,0.0,0.0,0.0,0.0,0.0,0.0,0.0,0.0,0.0,0.0,0.0,0.0,0.0,0.0,0.0,0.0,0.0,0.0,0.0,0.0,0.0,0.0,0.0,0.0,0.0,0.0,0.0,0.0,0.0,0.0,0.0,0.0,0.0,0.0,0.0,0.0,0.0,0.0,0.0,0.0,0.0,0.0,0.0,0.0,0.0,0.0,0.0,0.0,0.0,0.0,0.0,0.0,0.0,0.0,0.0,0.0,0.0,0.0,0.0,0.0,0.0,0.0,0.0,0.0,0.0,0.0,0.0,0.0,0.0,0.0,0.0,0.0,0.0,0.0,0.0,0.0,0.0,0.0,0.0,0.0,0.0,0.0,0.0,0.0,0.0,0.0,0.0,0.0,0.0,0.0,0.0,0.0,0.0,0.0,0.0,0.0,0.0,0.0,0.0,0.0,0.0,0.0,0.0,0.0,0.0,0.0,0.0,0.0,0.0,0.0,0.0,0.0,0.0,0.0,0.0,0.0,0.0,0.0,0.0,0.0,0.0,0.0,0.0,0.0,0.0,0.0,0.0,0.0,0.0,0.0,0.0,0.0,0.0,0.0,0.0,0.0,0.0,0.0,0.0,0.0,0.0,0.0,0.0,0.0,0.0,0.0,0.0,0.0,0.0,0.0,0.0,0.0,0.0,0.0,0.0,0.0,0.0,0.0,0.0,0.0,0.0,0.0,0.0,0.0,0.0,0.0,0.0,0.0,0.0,0.0,0.0,0.0,0.0,0.0,0.0,0.0,0.0,0.0,0.0,0.0,0.0,0.0,0.0,0.0,0.0,0.0,0.0,0.0,0.0,0.0,0.0,0.0,0.0,0.0,0.0,0.0,0.0,0.0,0.0,0.0,0.0,0.0,0.0,0.0,0.0,0.0,0.0,0.0,0.0,0.0,0.0,0.0,0.0,0.0,0.0,0.0,0.0,0.0,0.0,0.0,0.0,0.0,0.0,0.0,0.0,0.0,0.0,0.0,0.0,0.0,0.0,0.0,0.0,0.0,0.0,0.0,0.0,0.0,0.0,0.0,0.0,0.0,0.0,0.0,0.0,0.0,0.0,0.0,0.0,0.0,0.0,0.0,0.0,0.0,0.0,0.0,0.0,0.0,0.0,0.0,0.0,0.0,0.0,0.0,0.0,0.0,0.0,0.0,0.0,0.0,0.0,0.0,0.0,0.0,0.0,0.0,0.0,0.0,0.0,0.0,0.0,0.0,0.0,0.0,0.0,0.0,0.0,0.0,0.0,0.0,0.0,0.0,0.0,0.0,0.0,0.0,0.0,0.0,0.0,0.0,0.0,0.0,0.0,0.0,0.0,0.0,0.0,0.0,0.0,0.0,0.0,0.0,0.0,0.0,0.0,0.0,0.0,0.0,0.0,0.0,0.0,0.0,0.0,0.0,0.0,0.0,0.0,0.0,0.0,0.0,0.0,0.0,0.0,0.0,0.0,0.0,0.0,0.0,0.0,0.0,0.0,0.0,0.0,0.0,0.0,0.0,0.0,0.0,0.0,0.0,0.0,0.0,0.0,0.0,0.0,0.0,0.0,0.0,0.0,0.0,0.0,0.0,0.0,0.0,0.0,0.0,0.0,0.0,0.0,0.0,0.0,0.0,0.0,0.0,0.0,0.0,0.0,0.0,0.0,0.0,0.0,0.0,0.0,0.0,0.0,0.0,0.0,0.0,0.0,0.0,0.0,0.0,0.0,0.0,0.0,0.0,0.0,0.0,0.0,0.0,0.0,0.0,0.0,0.0,0.0,0.0,0.0,0.0,0.0,0.0,0.0,0.0,0.0,0.0,0.0,0.0,0.0,0.0,0.0,0.0,0.0,0.0,0.0,0.0,0.0,0.0,0.0,0.0,0.0,0.0,0.0,0.0,0.0,0.0,0.0,0.0,0.0,0.0,0.0,0.0,0.0,0.0,0.0,0.0,0.0,0.0,0.0,0.0,0.0,0.0,0.0,0.0,0.0,0.0,0.0,0.0,0.0,0.0,0.0,0.0,0.0,0.0,0.0,0.0,0.0,0.0,0.0,0.0,0.0,0.0,0.0,0.0,0.0,0.0,0.0,0.0,0.0,0.0,0.0,0.0,0.0,0.0,0.0,0.0,0.0,0.0,0.0,0.0,0.0,0.0,0.0,0.0,0.0,0.0,0.0,0.0,0.0,0.0,0.0,0.0,0.0,0.0,0.0,0.0,0.0,0.0,0.0,0.0,0.0,0.0,0.0,0.0,0.0,0.0,0.0,0.0,0.0,0.0,0.0,0.0,0.0,0.0,0.0,0.0,0.0,0.0,0.0,0.0,0.0,0.0,0.0,0.0,0.0,0.0,0.0,0.0,0.0,0.0,0.0,0.0,0.0,0.0,0.0,0.0,0.0,0.0,0.0,0.0,0.0,0.0,0.0,0.0,0.0,0.0,0.0,0.0,0.0,0.0,0.0,0.0,0.0,0.0,0.0,0.0,0.0,0.0,0.0,0.0,0.0,0.0,0.0,0.0,0.0,0.0,0.0,0.0,0.0,0.0,0.0,0.0,0.0,0.0,0.0,0.0,0.0,0.0,0.0,0.0,0.0,0.0,0.0,0.0,0.0,0.0,0.0,0.0,0.0,0.0,0.0,0.0,0.0,0.0,0.0,0.0,0.0,0.0,0.0,0.0,0.0,0.0,0.0,0.0,0.0,0.0,0.0,0.0,0.0,0.0,0.0,0.0,0.0,0.0,0.0,0.0,0.0,0.0,0.0,0.0,0.0,0.0,0.0,0.0,0.0,0.0,0.0,0.0,0.0,0.0,0.0,0.0,0.0,0.0,0.0,0.0,0.0,0.0,0.0,0.0,0.0,0.0,0.0,0.0,0.0,0.0,0.0,0.0,0.0,0.0,0.0,0.0,0.0,0.0,0.0,0.0,0.0,0.0,0.0,0.0,0.0,0.0,0.0,0.0,0.0,0.0,0.0,0.0,0.0,0.0,0.0,0.0,0.0,0.0,0.0,0.0,0.0,0.0,0.0,0.0,0.0,0.0,0.0,0.0,0.0,0.0,0.0,0.0,0.0,0.0,0.0,0.0,0.0,0.0,0.0,0.0,0.0,0.0,0.0,0.0,0.0,0.0,0.0,0.0,0.0,0.0,0.0,0.0,0.0,0.0,0.0,0.0,0.0,0.0,0.0,0.0,0.0,0.0,0.0,0.0,0.0,0.0,0.0,0.0,0.0,0.0,0.0,0.0,0.0,0.0,0.0,0.0,0.0,0.0,0.0,0.0,0.0,0.0,0.0,0.0,0.0,0.0,0.0,0.0,0.0,0.0,0.0,0.0,0.0,0.0,0.0,0.0,0.0,0.0,0.0,0.0,0.0,0.0,0.0,0.0,0.0,0.0,0.0,0.0,0.0,0.0,0.0,0.0,0.0,0.0,0.0,0.0,0.0,0.0,0.0,0.0,0.0,0.0,0.0,0.0,0.0,0.0,0.0,0.0,0.0,0.0,0.0,0.0,0.0,0.0,0.0,0.0,0.0,0.0,0.0,0.0,0.0,0.0,0.0,0.0,0.0,0.0,0.0,0.0,0.0,0.0,0.0,0.0,0.0,0.0,0.0,0.0,0.0,0.0,0.0,0.0,0.0,0.0,0.0,0.0,0.0,0.0,0.0,0.0,0.0,0.0,0.0,0.0,0.0,0.0,0.0,0.0,0.0,0.0,0.0,0.0,0.0,0.0,0.0,0.0,0.0,0.0,0.0,0.0,0.0,0.0,0.0,0.0,0.0,0.0,0.0,0.0,0.0,0.0,0.0,0.0,0.0,0.0,0.0,0.0,0.0,0.0,0.0,0.0,0.0,0.0,0.0,0.0,0.0,0.0,0.0,0.0,0.0,0.0,0.0,0.0,0.0,0.0,0.0,0.0,0.0,0.0,0.0,0.0,0.0,0.0,0.0,0.0,0.0,0.0,0.0,0.0,0.0,0.0,0.0,0.0,0.0,0.0,0.0,0.0,0.0,0.0,0.0,0.0,0.0,0.0,0.0,0.0,0.0,0.0,0.0,0.0,0.0,0.0,0.0,0.0,0.0,0.0,0.0,0.0,0.0,0.0,0.0,0.0,0.0,0.0,0.0,0.0,0.0,0.0,0.0,0.0,0.0,0.0,0.0,0.0,0.0,0.0,0.0,0.0,0.0,0.0,0.0,0.0,0.0,0.0,0.0,0.0,0.0,0.0,0.0,0.0,0.0,0.0,0.0,0.0,0.0,0.0,0.0,0.0,0.0,0.0,0.0,0.0,0.0,0.0,0.0,0.0,0.0,0.0,0.0,0.0,0.0,0.0,0.0,0.0,0.0,0.0,0.0,0.0,0.0,0.0,0.0,0.0,0.0,0.0,0.0,0.0,0.0,0.0,0.0,0.0,0.0,0.0,0.0,0.0,0.0,0.0,0.0,0.0,0.0,0.0,0.0,0.0,0.0,0.0,0.0,0.0,0.0,0.0,0.0,0.0,0.0,0.0,0.0,0.0,0.0,0.0,0.0,0.0,0.0,0.0,0.0,0.0,0.0,0.0,0.0,0.0,0.0,0.0,0.0,0.0,0.0,0.0,0.0,0.0,0.0,0.0,0.0,0.0,0.0,0.0,0.0,0.0,0.0,0.0,0.0,0.0,0.0,0.0,0.0,0.0,0.0,0.0,0.0,0.0,0.0,0.0,0.0,0.0,0.0,0.0,0.0,0.0,0.0,0.0,0.0,0.0,0.0,0.0,0.0,0.0,0.0,0.0,0.0,0.0,0.0,0.0,0.0,0.0,0.0,0.0,0.0,0.0,0.0,0.0,0.0,0.0,0.0,0.0,0.0,0.0,0.0,0.0,0.0,0.0,0.0,0.0,0.0,0.0,0.0,0.0,0.0,0.0,0.0,0.0,0.0,0.0,0.0,0.0,0.0,0.0,0.0,0.0,0.0,0.0,0.0,0.0,0.0,0.0,0.0,0.0,0.0,0.0,0.0,0.0,0.0,0.0,0.0,0.0,0.0,0.0,0.0,0.0,0.0,0.0,0.0,0.0,0.0,0.0,0.0,0.0,0.0,0.0,0.0,0.0,0.0,0.0,0.0,0.0,0.0,0.0,0.0,0.0,0.0,0.0,0.0,0.0,0.0,0.0,0.0,0.0,0.0,0.0,0.0,0.0,0.0,0.0,0.0,0.0,0.0,0.0,0.0,0.0,0.0,0.0,0.0,0.0,0.0,0.0,0.0,0.0,0.0,0.0,0.0,0.0,0.0,0.0,0.0,0.0,0.0,0.0,0.0,0.0,0.0,0.0,0.0,0.0,0.0,0.0,0.0,0.0,0.0,0.0,0.0,0.0,0.0,0.0,0.0,0.0,0.0,0.0,0.0,0.0,0.0,0.0,0.0,0.0,0.0,0.0,0.0,0.0,0.0,0.0,0.0,0.0,0.0,0.0,0.0,0.0,0.0,0.0,0.0,0.0,0.0,0.0,0.0,0.0,0.0,0.0,0.0,0.0,0.0,0.0,0.0,0.0,0.0,0.0,0.0,0.0,0.0,0.0,0.0,0.0,0.0,0.0,0.0,0.0,0.0,0.0,0.0,0.0,0.0,0.0,0.0,0.0,0.0,0.0,0.0,0.0,0.0,0.0,0.0,0.0,0.0,0.0,0.0,0.0,0.0,0.0,0.0,0.0,0.0,0.0,0.0,0.0,0.0,0.0,0.0,0.0,0.0,0.0,0.0,0.0,0.0,-0.7868,0.0,0.0,0.0,0.0,0.0,0.0,0.0,0.0,0.0,0.0,0.0,0.0,0.0,0.0,0.0,0.0,0.0,0.0,0.0,0.0,0.0,0.0,0.0,0.0,0.0,0.0,0.0,0.0,0.0,0.0,0.0,0.0,0.0,0.0,0.0,0.0,0.0,0.0,0.0,-0.4926,-0.669,-0.9292,-0.7241,-0.5032,-0.2724,0.0,0.0,0.0,0.0,0.0,0.0,0.0,0.0,0.0,0.0,0.0,0.0,0.0,0.0,0.0,0.0,0.0,0.0,0.0,0.0,0.0,0.0,0.0,0.0,0.0,0.0,0.0,0.0,0.0,0.0,0.0,0.0,0.0,0.0,0.0,0.0,0.0,0.0,0.0,0.0,0.0,0.0,0.0,0.0,0.0,0.0,0.0,0.0,0.0,0.0,0.0,0.0,0.0,0.0,0.0,0.0,0.0,0.0,0.0,0.0,0.0,0.0,0.0,0.0,0.0,0.0,0.0,0.0,0.0,0.0,0.0,-0.5794,0.0,0.0,0.0,0.0,0.0,0.0,0.0,0.0,0.0,0.0,0.0,0.0,0.0,0.0,0.0,0.0,0.0,0.0,0.0,0.0,0.0,0.0,0.0,0.0,-0.4352,-0.4498,-0.4438,-0.4521,0.0,0.0,0.0,0.0,0.0,0.0,0.0,-0.4715,-0.5013,-0.5666,-0.8346,-1.096,-1.3406,-1.3377,-1.1505,-0.8044,-0.4902,0.0,0.0,0.0,0.0,0.0,0.0,0.0,0.0,0.0,0.0,0.0,0.0,0.0,0.0,0.0,0.0,0.0,0.0,0.0,0.0,0.0,0.0,0.0,0.0,0.0,0.0,0.0,0.0,0.0,0.0,0.0,0.0,0.0,0.0,0.0,0.0,0.0,0.0,0.0,0.0,0.0,0.0,0.0,0.0,0.0,0.0,0.0,0.0,0.0,0.0,0.0,0.0,0.0,0.0,0.0,0.0,0.0,0.0,0.0,0.0,0.0,0.0,0.0,-0.8954,-0.8079,-0.8538,-0.8019,-0.7353,-0.6446,-0.3384,-0.4579,-0.8716,0.0,0.0,0.0,0.0,0.0,0.0,0.0,0.0,0.0,0.0,0.0,0.0,0.0,0.0,0.0,0.0,0.0,0.0,0.0,0.0,0.0,0.0,-0.4392,-0.4585,-0.5269,-0.4762,-0.4753,0.0,0.0,0.0,0.0,0.0,0.0,-0.5127,-0.5069,-0.6114,-0.8306,-1.3641,-1.6796,-1.7872,-1.8471,-1.8359,-1.7407,-1.2784,-0.9385,-0.7068,0.0,0.0,0.0,0.0,0.0,0.0,0.0,0.0,0.0,0.0,0.0,0.0,0.0,0.0,0.0,0.0,0.0,0.0,0.0,0.0,0.0,0.0,0.0,0.0,0.0,0.0,0.0,0.0,0.0,0.0,0.0,0.0,0.0,0.0,0.0,0.0,0.0,0.0,0.0,0.0,0.0,-1.5667,-1.319,0.0,0.0,0.0,0.0,0.0,0.0,0.0,0.0,0.0,0.0,0.0,0.0,0.0,-0.783,-0.9061,-1.2365,-1.3702,-1.307,-1.28,-1.2696,-1.2787,-1.2525,-1.2363,-1.2114,-0.9698,0.0,-0.8226,-0.9631,0.0,0.0,0.0,0.0,0.0,0.0,0.0,0.0,0.0,0.0,0.0,0.0,0.0,0.0,0.0,0.0,0.0,0.0,0.0,0.0,0.0,-0.5912,-0.6984,-0.7324,-0.8752,-0.9065,-0.7745,-0.792,0.0,0.0,0.0,-0.524,-0.5472,-0.6977,-0.9987,-1.4589,-1.7851,-2.0469,-2.2373,-2.3036,-2.3448,-2.3525,-2.1255,-1.6976,-1.1385,-1.0136,0.0,0.0,0.0,0.0,0.0,0.0,0.0,0.0,0.0,0.0,0.0,0.0,0.0,0.0,0.0,0.0,0.0,0.0,0.0,0.0,0.0,0.0,0.0,0.0,0.0,0.0,0.0,0.0,0.0,0.0,0.0,0.0,0.0,0.0,0.0,0.0,0.0,0.0,0.0,-0.6444,-1.123,-1.1814,-1.0885,-0.7895,0.0,0.0,0.0,0.0,0.0,0.0,0.0,0.0,0.0,-0.8918,-0.9617,-1.113,-1.3579,-1.4675,-1.5234,-1.525,-1.5293,-1.5504,-1.5792,-1.5715,-1.546,-1.5081,-1.372,-1.2662,-1.1716,-1.0348,-0.9697,-0.9251,0.0,0.0,0.0,0.0,-0.6561,-0.6629,0.0,0.0,0.0,0.0,0.0,0.0,0.0,0.0,0.0,0.0,0.0,0.0,-0.5474,-0.8188,-1.0046,-1.0146,-1.2339,-1.2673,-1.0154,-1.0073,0.0,0.0,-0.5548,-0.5413,-0.5767,-0.9223,-1.3905,-1.9817,-2.1405,-2.3456,-2.5918,-2.6548,-2.7039,-2.7375,-2.71,-2.2881,-1.5886,-1.4651,-1.197,-0.847,0.0,0.0,0.0,0.0,0.0,0.0,0.0,0.0,0.0,0.0,0.0,0.0,0.0,0.0,0.0,0.0,0.0,0.0,0.0,0.0,0.0,0.0,0.0,0.0,0.0,0.0,0.0,0.0,0.0,0.0,0.0,0.0,0.0,0.0,0.0,0.0,0.0,-0.504,-0.7766,-0.9937,-0.9894,-0.8845,0.0,0.0,0.0,0.0,0.0,0.0,-0.8356,-0.8537,-1.0078,-1.3323,-1.3591,-1.49,-1.7388,-1.7041,-1.7219,-1.7865,-1.779,-1.8054,-1.852,-1.8377,-1.8067,-1.7574,-1.7068,-1.6516,-1.577,-1.2235,-1.0771,-1.0724,-1.0183,-0.9035,-0.7779,-0.822,-0.8163,-0.8064,0.0,0.0,0.0,0.0,0.0,0.0,0.0,0.0,0.0,0.0,0.0,-0.8393,-0.839,-1.1306,-1.3413,-1.3799,-1.381,-1.3402,-1.2482,-1.049,-0.8753,-0.7361,-0.6363,-0.5888,-0.597,-1.1494,-1.6792,-2.1754,-2.4179,-2.6221,-2.7879,-2.8544,-2.8807,-2.8692,-2.8221,-2.5406,-2.0958,-1.981,-1.734,-1.3846,-0.9818,0.0,0.0,0.0,0.0,0.0,0.0,0.0,0.0,0.0,0.0,0.0,0.0,0.0,0.0,0.0,0.0,0.0,0.0,0.0,0.0,0.0,0.0,0.0,0.0,0.0,0.0,0.0,0.0,0.0,0.0,0.0,0.0,0.0,0.0,0.0,0.0,0.0,0.0,-0.9483,-1.4647,0.0,0.0,0.0,0.0,-0.9009,-0.8435,-0.9859,-1.3697,-1.4139,-1.5781,-1.908,-1.9667,-2.0035,-2.0203,-2.0288,-2.0554,-2.0947,-2.0761,-2.0884,-2.1297,-2.0707,-2.0429,-2.0401,-2.0034,-1.9722,-1.9216,-1.5826,-1.4475,-1.4343,-1.2487,-1.1712,-1.1617,-1.1586,-1.1157,-1.0927,0.0,0.0,0.0,0.0,0.0,0.0,0.0,0.0,-0.4431,-0.461,-0.6824,-0.8903,-1.0267,-1.4225,-1.7064,-1.7773,-1.9188,-1.8861,-1.6063,-1.3735,-1.1525,-0.9427,-0.7238,-0.8053,-1.2221,-1.6388,-2.0674,-2.5044,-2.7155,-2.8412,-2.8914,-2.962,-3.017,-3.0528,-3.0281,-2.9254,-2.7497,-2.4412,-2.1076,-1.7692,-1.5438,-1.1948,0.0,0.0,0.0,0.0,0.0,0.0,0.0,0.0,0.0,0.0,0.0,0.0,0.0,0.0,0.0,0.0,0.0,0.0,0.0,0.0,0.0,0.0,0.0,0.0,0.0,0.0,0.0,0.0,0.0,0.0,0.0,0.0,0.0,0.0,0.0,0.0,0.0,-1.3187,-1.6743,0.0,-1.518,-1.5089,-1.4941,-1.4299,-1.5975,-1.7844,-1.9665,-1.9852,-2.0403,-2.1488,-2.1713,-2.2188,-2.2881,-2.2817,-2.3096,-2.3709,-2.3838,-2.3929,-2.3954,-2.3725,-2.3289,-2.2685,-2.2299,-2.1829,-2.1272,-2.0044,-1.865,-1.7204,-1.6158,-1.5469,-1.5081,-1.5338,-1.4963,-1.4511,0.0,0.0,0.0,0.0,0.0,0.0,0.0,0.0,-0.4717,-0.5986,-0.8462,-1.0909,-1.3088,-1.7365,-2.0308,-2.0888,-2.2229,-2.1594,-1.8164,-1.5539,-1.2964,-1.0426,-0.8905,-1.1186,-1.7761,-2.005,-2.3313,-2.7718,-2.9246,-3.009,-3.0297,-3.106,-3.1642,-3.2025,-3.1876,-3.1752,-3.1477,-2.8428,-2.539,-2.2445,-2.0358,-1.6293,-1.1278,0.0,0.0,0.0,0.0,0.0,0.0,0.0,0.0,0.0,0.0,0.0,0.0,0.0,0.0,0.0,0.0,0.0,0.0,0.0,0.0,0.0,0.0,0.0,0.0,0.0,0.0,0.0,0.0,0.0,0.0,0.0,0.0,0.0,0.0,0.0,-1.4107,-1.6138,-1.9591,-2.1127,-1.9379,-1.9365,-1.9661,-2.009,-2.2109,-2.3506,-2.39,-2.3996,-2.3847,-2.3511,-2.3599,-2.4038,-2.483,-2.4757,-2.503,-2.5713,-2.5878,-2.5929,-2.5905,-2.5804,-2.5395,-2.4749,-2.4446,-2.4099,-2.3686,-2.3552,-2.2531,-2.0918,-1.9479,-1.8691,-1.8337,-1.8208,-1.7718,-1.7111,0.0,0.0,0.0,0.0,0.0,0.0,0.0,-0.4466,-0.5842,-0.8624,-1.1705,-1.4532,-1.6905,-2.0679,-2.305,-2.305,-2.2495,-2.108,-1.8564,-1.5579,-1.2811,-1.0371,-1.1474,-1.5252,-2.1875,-2.2188,-2.4655,-2.9528,-3.0409,-3.1253,-3.2051,-3.2846,-3.3195,-3.3191,-3.2986,-3.2852,-3.2713,-3.1878,-3.0414,-2.8301,-2.4313,-2.0564,-1.6863,0.0,0.0,0.0,0.0,0.0,0.0,0.0,0.0,0.0,0.0,0.0,0.0,0.0,0.0,0.0,0.0,0.0,0.0,0.0,0.0,0.0,0.0,0.0,0.0,0.0,0.0,0.0,0.0,0.0,0.0,0.0,0.0,0.0,-1.1081,-1.6393,-1.9621,-1.827,-2.3588,-2.6566,-2.4559,-2.4888,-2.5575,-2.6375,-2.631,-2.6238,-2.6334,-2.6462,-2.6186,-2.546,-2.5693,-2.5845,-2.6009,-2.613,-2.6421,-2.696,-2.6822,-2.6919,-2.7155,-2.6871,-2.6681,-2.6555,-2.6555,-2.6555,-2.6537,-2.6203,-2.5941,-2.5445,-2.2258,-2.1188,-2.1319,-2.0203,-1.936,-1.8643,0.0,0.0,0.0,0.0,0.0,0.0,0.0,-0.4932,-0.6337,-0.8623,-1.2038,-1.5418,-1.8444,-2.1807,-2.3952,-2.4145,-2.3382,-2.1671,-1.8749,-1.5571,-1.3284,-1.2064,-1.567,-1.9139,-2.2223,-2.4935,-2.7584,-3.0233,-3.1203,-3.2138,-3.3021,-3.3183,-3.3916,-3.5048,-3.4952,-3.5573,-3.6644,-3.6305,-3.5488,-3.4016,-2.9489,-2.5072,-2.1072,0.0,0.0,0.0,0.0,0.0,0.0,0.0,0.0,0.0,0.0,0.0,0.0,0.0,0.0,0.0,0.0,0.0,0.0,0.0,0.0,0.0,0.0,0.0,0.0,0.0,0.0,0.0,0.0,0.0,0.0,0.0,0.0,-2.1129,-1.7914,-2.0416,-2.376,-2.6894,-2.9204,-3.0293,-2.9741,-2.8803,-2.8526,-2.9305,-2.8902,-2.8787,-2.9063,-2.9181,-2.903,-2.8596,-2.8064,-2.79,-2.815,-2.7865,-2.7885,-2.8208,-2.8359,-2.8377,-2.827,-2.8172,-2.7996,-2.772,-2.772,-2.772,-2.7703,-2.7564,-2.7465,-2.7109,-2.4622,-2.3174,-2.2426,-2.1857,-2.1031,-2.0135,0.0,0.0,0.0,0.0,0.0,0.0,0.0,-0.5027,-0.6739,-0.9951,-1.2668,-1.5697,-1.9397,-2.1898,-2.3339,-2.3491,-2.2296,-2.0463,-1.7961,-1.5456,-1.4721,-1.623,-1.9338,-2.2319,-2.5091,-2.7611,-2.9591,-3.0994,-3.2346,-3.3484,-3.4404,-3.4761,-3.5664,-3.697,-3.686,-3.7364,-3.8274,-3.8142,-3.7801,-3.7085,-3.429,-3.0153,-2.557,-2.4491,-2.1738,-1.8351,-1.7343,-1.7161,-1.7023,-1.4532,0.0,0.0,0.0,0.0,0.0,0.0,0.0,0.0,0.0,0.0,0.0,0.0,0.0,0.0,0.0,0.0,0.0,0.0,0.0,0.0,0.0,0.0,0.0,0.0,-2.5753,-2.901,-2.7494,-2.8084,-2.9624,-3.2174,-3.2914,-3.3028,-3.2393,-3.1649,-3.1244,-3.1395,-3.123,-3.0953,-3.0557,-3.0734,-3.0604,-3.0106,-2.984,-2.9776,-2.9999,-2.9391,-2.9204,-2.942,-2.9292,-2.9104,-2.8865,-2.8952,-2.8824,0.0,-2.8585,-2.8567,-2.8573,-2.8542,-2.8467,0.0,0.0,0.0,0.0,0.0,-2.1929,-2.1213,0.0,0.0,0.0,0.0,0.0,0.0,0.0,-0.4972,-0.707,-1.1761,-1.3374,-1.568,-1.99,-2.1322,-2.1948,-2.1853,-2.03,-1.8593,-1.6921,-1.5687,-1.6918,-2.1235,-2.2526,-2.5016,-2.9013,-2.9965,-3.0941,-3.1978,-3.3597,-3.4929,-3.5977,-3.6806,-3.7734,-3.8726,-3.8598,-3.8608,-3.8701,-3.8555,-3.852,-3.852,-3.8442,-3.519,-3.0173,-2.8525,-2.6263,-2.3744,-2.2045,-2.1169,-2.0558,-1.8629,0.0,0.0,0.0,0.0,0.0,0.0,0.0,0.0,0.0,0.0,0.0,0.0,0.0,0.0,0.0,0.0,0.0,0.0,0.0,0.0,0.0,0.0,0.0,0.0,-2.9577,-3.457,-3.7644,-3.712,-3.6112,-3.5155,-3.5328,-3.5009,-3.3659,-3.3697,-3.3596,-3.3085,-3.3251,-3.2808,-3.1545,0.0,0.0,0.0,0.0,-3.1524,-3.1556,-3.0807,-3.0489,-3.0624,-3.0027,-2.9599,-2.9342,-2.9524,-2.9448,-2.9193,-2.9185,-2.9129,-2.9061,-2.9148,-2.9101,-2.8778,-2.7103,-2.596,-2.5042,-2.3399,-2.2575,-2.2236,0.0,0.0,0.0,0.0,0.0,0.0,0.0,-0.5347,-0.7467,-1.1693,-1.3547,-1.5911,-1.9667,-2.1078,-2.1541,-2.1004,-2.0369,-1.9307,-1.7682,-1.8371,-1.9813,-2.2007,-2.496,-2.7559,-2.968,-3.07,-3.2018,-3.3724,-3.4067,-3.5166,-3.6928,-3.7066,-3.8004,-3.9559,-3.949,-3.9875,-4.0566,-4.0429,-4.0439,-4.0535,-4.0479,-3.7999,-3.4262,-3.3209,-3.1592,-2.9725,-2.8725,-2.8717,-2.864,-2.5129,-2.38,-2.3023,-1.9588,-1.5757,0.0,0.0,0.0,0.0,0.0,0.0,0.0,0.0,0.0,0.0,0.0,0.0,0.0,0.0,0.0,0.0,0.0,0.0,0.0,-3.1104,-3.6088,-4.0038,-4.1329,-4.1289,-4.0263,-3.7932,-3.7106,-3.6606,-3.6291,-3.5119,-3.4594,-3.4987,-3.4579,-3.4323,-3.4304,-3.4422,0.0,-3.381,-3.3488,-3.308,-3.2604,-3.2091,-3.1862,-3.2014,0.0,0.0,-3.0806,-3.0823,-3.0447,-2.9751,-2.9753,-2.9375,-2.8846,-2.947,-2.957,-2.9132,-2.7513,-2.6533,-2.5941,-2.5007,-2.4632,-2.4427,0.0,0.0,0.0,0.0,0.0,0.0,0.0,-0.5286,-0.71,-1.0668,-1.2002,-1.3759,-1.6809,-1.7811,-1.8108,-1.7773,-1.7596,-1.7642,-1.798,-1.9566,-2.1985,-2.5316,-2.7584,-2.9539,-3.1217,-3.2184,-3.3168,-3.4202,-3.5129,-3.6328,-3.7761,-3.8221,-3.917,-4.045,-4.0411,-4.0662,-4.1108,-4.1032,-4.1035,-4.1087,-4.1025,-3.9637,-3.757,-3.7156,-3.5882,-3.4129,-3.2909,-3.2357,-3.1823,-2.8993,-2.7912,-2.7419,-2.5472,-2.1758,-1.7754,0.0,0.0,0.0,0.0,0.0,0.0,0.0,0.0,0.0,0.0,0.0,0.0,0.0,0.0,-2.1535,0.0,0.0,-3.3154,-3.4947,-3.9226,-4.2511,-4.3144,-4.3236,-4.2375,-4.0107,-3.8943,-3.8125,-3.7736,-3.6788,-3.6168,-3.6114,-3.597,-3.5879,-3.5768,-3.5884,-3.5917,-3.5851,-3.5701,-3.5267,-3.4567,-3.3883,-3.3374,-3.305,-3.2613,-3.2196,-3.1798,-3.1381,-3.0964,-3.053,-3.0097,-2.9664,-2.932,-2.9718,-2.975,-2.9476,-2.8672,-2.7765,-2.6762,-2.5589,-2.5372,-2.5435,0.0,0.0,0.0,0.0,0.0,0.0,0.0,-0.522,-0.6693,-0.9591,-1.0239,-1.1347,-1.3743,-1.4311,-1.4496,-1.4537,-1.4883,-1.6024,-1.8234,-2.0508,-2.3817,-2.8378,-2.9631,-3.1018,-3.2784,-3.3513,-3.4055,-3.4411,-3.5913,-3.7201,-3.8283,-3.9104,-4.0134,-4.1281,-4.1148,-4.1163,-4.1311,-4.1333,-4.1244,-4.1113,-4.1229,-4.0643,-3.9726,-3.9761,-3.8551,-3.6629,-3.4958,-3.3453,-3.2071,-3.0731,-2.9989,-2.9685,-2.994,-2.7003,-2.305,-2.0839,-1.8088,0.0,0.0,0.0,0.0,0.0,0.0,0.0,0.0,0.0,-2.1262,-2.3094,-2.5067,-2.6848,-2.8139,-3.2774,-3.6826,-3.8038,-4.1276,-4.3755,-4.4106,-4.3964,-4.3318,-4.1876,-4.0562,-3.945,-3.854,-3.8169,-3.7711,-3.7109,-3.7348,-3.7379,-3.697,-3.7091,-3.7218,-3.7284,-3.7518,-3.7221,-3.6425,-3.5628,-3.4905,-3.426,-3.3367,-3.2889,-3.2718,-3.2053,-3.1597,-3.1236,-3.0181,-2.982,-2.995,-2.9798,-2.9769,-2.9822,-2.9822,-2.9083,-2.7806,-2.6436,-2.6246,-2.6439,0.0,0.0,0.0,0.0,0.0,0.0,0.0,0.0,-0.6999,-0.9197,-0.9713,-1.0675,-1.2744,-1.321,-1.3451,-1.3628,-1.5219,-1.7011,-1.8876,-2.2276,-2.5508,-2.8402,-3.0035,-3.1729,-3.3543,-3.3729,-3.4247,-3.5177,-3.5331,-3.6339,-3.813,-3.8297,-3.9646,-4.1869,-4.1279,-4.1409,-4.2071,-4.2137,-4.1744,-4.1167,-4.193,-4.1269,-3.9785,-3.9722,-3.8144,-3.5737,-3.4048,-3.1809,-2.9617,-2.9558,-2.8867,-2.8201,-2.9059,-2.7434,-2.4934,-2.3476,-2.0701,-1.7454,-1.4394,-1.4204,-1.5365,-1.7355,-1.9727,-2.3139,0.0,0.0,-3.113,-3.451,-3.6159,-3.7205,-3.7853,-4.0078,-4.2029,-4.2579,-4.3919,-4.483,-4.4648,-4.3898,-4.3307,-4.3096,-4.181,-4.0324,-3.8789,-3.8651,-3.8597,-3.8652,-3.8681,-3.8767,-3.8891,-3.8898,-3.8614,-3.8008,-3.8244,-3.8017,-3.7262,-3.67,-3.6358,-3.6281,-3.5385,-3.46,-3.3906,-3.3829,-3.2967,-3.1454,-2.9826,-2.9545,-3.0196,-2.9411,-2.9545,-3.024,-3.024,-3.0013,-2.9661,-2.912,-2.8843,-2.8633,0.0,0.0,0.0,0.0,0.0,0.0,0.0,0.0,0.0,-0.8038,-0.8369,-0.8903,-1.0103,-1.0409,-1.0723,-1.1187,-1.3606,-1.6375,-1.9371,-2.272,-2.6163,-2.9683,-3.0584,-3.1862,-3.3654,-3.3794,-3.4339,-3.5359,-3.5878,-3.682,-3.8106,-3.8642,-3.9741,-4.1225,-4.0994,-4.136,-4.2138,-4.2177,-4.1996,-4.1714,-4.2038,-4.085,-3.876,-3.7805,-3.5802,-3.3364,-3.2115,-2.9745,0.0,-2.7744,-2.7295,-2.6991,-2.9328,-2.7696,-2.4804,-2.4193,-2.1616,-1.9053,-1.9498,-1.961,-2.06,-2.4782,-2.7054,-2.9403,-3.3684,-3.5328,-3.6526,-3.8536,-4.0063,-4.1226,-4.1832,-4.2791,-4.3541,0.0,-4.4227,-4.4403,-4.3596,-4.3133,-4.2268,-4.0585,-3.9851,-3.9591,-3.9879,-3.9496,-3.9268,-3.9289,-3.9289,-3.9414,-3.9645,-3.9668,-3.9602,-3.9448,-3.9547,-3.9204,-3.8398,-3.7702,-3.7099,-3.6581,-3.5718,-3.5124,-3.4779,-3.4299,-3.3187,-3.1533,-3.0299,-2.9965,-3.026,-2.9958,-3.0016,-3.0362,-3.0362,-3.0318,-3.0144,-2.933,-2.921,-2.9251,0.0,0.0,0.0,0.0,0.0,0.0,0.0,0.0,0.0,0.0,-0.7262,-0.749,-0.7958,-0.8089,-0.8491,-0.9307,-1.1952,-1.5102,-1.8672,-2.2005,-2.5634,-2.9625,-3.0302,-3.1562,-3.3598,-3.3775,-3.432,-3.5316,-3.6015,-3.6922,-3.8009,-3.8697,-3.9727,-4.0971,-4.0846,-4.1256,-4.2061,-4.2315,-4.215,-4.1762,-4.1931,-4.0184,-3.7337,-3.5935,-3.3111,-2.9767,-2.9137,-2.6958,-2.437,-2.4281,-2.3828,-2.3786,-2.6573,-2.5668,-2.3552,-2.3451,-2.1181,-1.9382,-2.2584,-2.3556,-2.4986,-3.0492,-3.3316,-3.5364,-3.7775,-3.9458,-4.0745,-4.1517,-4.2462,-4.3234,-4.3422,-4.3465,-4.344,-4.3235,-4.344,-4.3376,-4.264,-4.2202,-4.117,-3.9062,-3.8264,-3.8455,-3.9918,-3.9558,-3.9377,-3.969,-3.9712,-3.9935,-4.0425,-4.0234,-4.0328,-4.0773,-4.0562,-4.014,-3.9519,-3.8716,-3.8001,-3.7367,-3.6238,-3.5701,-3.5662,-3.4408,-3.3154,-3.1955,-3.0845,-3.0356,-3.0356,-3.0406,-3.0436,-3.0436,-3.0436,-3.0436,-3.0329,-2.9557,-2.9503,-2.9609,0.0,0.0,0.0,0.0,0.0,0.0,0.0,0.0,0.0,0.0,0.0,0.0,0.0,-0.7056,-0.7526,-0.8732,-1.0817,-1.3299,-1.6214,-1.9903,-2.3555,-2.7045,-2.8708,-3.079,-3.3449,-3.3564,-3.4111,-3.511,-3.52,-3.609,-3.771,-3.795,-3.933,-4.1639,-4.1067,-4.1214,-4.1964,-4.2881,-4.2324,-4.0917,-4.1694,-3.9452,-3.5581,-3.4756,-3.0395,-2.4743,-2.484,-2.31,-2.0445,-1.8525,-1.7607,-1.7504,-1.8829,-2.0158,-2.1174,-2.1041,-1.9188,-1.795,-2.1569,-2.4044,-2.6851,-3.2045,-3.6871,-4.0803,-4.2512,-4.365,-4.4486,-4.5049,-4.472,-4.4045,-4.3023,-4.2357,-4.1913,-4.1706,-4.1671,-4.1852,-4.2349,-4.1227,-4.03,-4.0152,-3.8189,-3.7205,0.0,-3.829,-3.8798,-3.9906,-3.9983,-4.0482,-4.1598,-4.085,-4.0803,-4.1728,-4.1012,-4.0583,-4.0549,-3.9758,-3.9334,-3.9295,-3.7578,-3.6749,-3.6672,-3.4245,-3.3089,-3.2966,-3.1246,-3.0492,-3.0492,-3.0492,-3.0492,-3.0492,-3.0492,-3.0492,-3.0492,-3.0453,-3.0287,-3.0075,0.0,0.0,0.0,0.0,0.0,0.0,0.0,0.0,0.0,0.0,0.0,0.0,0.0,0.0,0.0,0.0,-1.0245,-1.2707,-1.5627,-1.9313,-2.2327,-2.4492,-2.7231,-2.9177,-3.0169,-3.1279,-3.2371,-3.3367,-3.3437,-3.4363,-3.6035,-3.6112,-3.7198,-3.9136,-3.9496,-4.0134,-4.0966,-4.1863,-4.1917,-4.1262,-3.9851,-3.739,-3.4211,-3.1164,-2.7101,-2.2622,0.0,-1.7808,-1.6111,-1.5896,-1.5469,-1.5516,-1.7986,-1.8038,-1.7363,-1.8301,-1.9617,-2.1784,-2.6582,-2.9348,-3.2182,-3.7617,-4.0635,-4.2714,-4.4427,-4.5075,-4.5046,-4.4208,-4.175,-3.9416,-3.8298,-3.5625,-3.4489,-3.7176,-3.8475,-3.9653,-4.1131,-4.1426,-4.0629,-3.8357,-3.7358,0.0,0.0,0.0,0.0,-3.9484,-4.0095,-4.0835,-4.1782,-4.1551,-4.1547,-4.1866,-4.1099,-4.067,-4.0668,-3.987,-3.9187,-3.8569,-3.6829,-3.5999,-3.5941,-3.4,-3.3091,-3.3005,-3.1293,-3.0565,-3.0571,-3.0607,-3.063,-3.0632,-3.0632,-3.0632,-3.0632,-3.0632,-3.0576,-3.047,0.0,0.0,0.0,0.0,0.0,0.0,0.0,0.0,0.0,0.0,0.0,0.0,0.0,0.0,0.0,0.0,0.0,-1.1563,-1.4224,-1.7103,-1.96,-2.1604,-2.3864,-2.5501,-2.6448,-2.7269,-2.8315,-2.9533,-3.0165,-3.1345,-3.301,-3.3601,-3.4633,-3.6039,-3.661,-3.7162,-3.7747,-3.8578,-3.8452,-3.7506,-3.5615,-3.2842,-2.9474,-2.6303,-2.2526,0.0,-1.581,-1.3786,-1.2502,-1.2901,-1.2976,-1.3356,-1.6169,-1.655,-1.6395,-1.861,-2.0599,-2.3575,-3.0331,-3.328,-3.5809,-4.1422,-4.3516,-4.4478,-4.5595,-4.5409,-4.442,-4.2389,-3.8983,-3.5742,-3.3678,-3.0664,-2.9655,-3.3262,-3.4687,-3.6419,-3.9516,-4.016,-3.9712,-3.8122,-3.7336,-3.6831,0.0,0.0,0.0,-3.9316,-4.0474,-4.1357,-4.195,-4.1969,-4.1969,-4.1963,-4.1177,-4.0746,-4.0769,-4.0258,-3.9428,-3.8248,-3.6813,-3.5989,-3.565,-3.4272,-3.3477,-3.31,-3.2019,-3.1212,-3.0715,-3.1378,-3.1306,-3.0798,-3.1421,-3.146,-3.1246,-3.1557,-3.146,-3.1131,0.0,0.0,0.0,0.0,0.0,0.0,0.0,0.0,0.0,0.0,0.0,0.0,0.0,0.0,0.0,0.0,0.0,0.0,-1.1917,-1.3473,-1.5572,-1.8391,-1.893,-2.0209,-2.2498,-2.2007,-2.2497,-2.4031,-2.5615,-2.7176,-2.8689,-3.03,-3.1531,-3.2373,-3.2435,-3.2465,-3.2502,-3.3306,-3.2283,-3.0058,-2.9302,-2.6242,-2.1972,-2.05,-1.7078,-1.3014,-1.2437,-1.1246,-0.9899,-0.9758,-1.0277,-1.1412,-1.3734,-1.5905,-1.8276,-2.1906,-2.2436,-2.3799,-3.285,-3.5949,-3.7946,-4.3411,-4.5409,-4.6014,-4.5975,-4.4639,-4.259,-3.9686,-3.6303,-3.2772,0.0,0.0,-2.7292,-3.0065,-3.0729,-3.2693,-3.7876,-3.7934,-3.8019,0.0,0.0,0.0,0.0,0.0,0.0,-3.953,0.0,-4.2085,-4.2226,-4.2199,-4.216,-4.2164,-4.1302,-4.0839,-4.0907,-4.082,-3.9982,-3.8388,-3.7474,-3.6644,-3.5872,-3.4989,-3.4152,-3.3367,-3.3315,-3.2402,-3.1061,-3.2722,-3.243,-3.1101,-3.2742,-3.2883,-3.2274,-3.3098,-3.2883,-3.2036,0.0,0.0,0.0,0.0,0.0,0.0,0.0,0.0,0.0,0.0,0.0,0.0,0.0,0.0,0.0,0.0,0.0,0.0,-0.9972,-1.1977,-1.3622,-1.4738,-1.7139,-1.872,-1.929,-2.0365,-2.1126,-2.159,-2.2079,-2.2813,-2.3801,-2.4725,-2.567,-2.6598,-2.7684,-2.7966,-2.7641,-2.8497,-2.794,-2.6265,-2.4238,-2.1989,-1.9617,-1.74,-1.4483,-1.1543,-1.1381,-1.1466,-1.1468,-1.0208,-1.2155,-1.561,-1.8537,-2.0303,-2.2144,-2.6702,-2.9207,-3.1825,-3.7839,-4.1014,-4.3105,-4.5216,-4.544,-4.4941,-4.4247,-4.1761,-3.869,-3.5506,-2.9857,-2.4801,0.0,0.0,0.0,-2.7344,-3.11,0.0,-4.0563,-4.1662,0.0,-4.1636,0.0,-4.0785,-4.0345,-4.0703,0.0,0.0,-4.1937,-4.2723,-4.4045,-4.35,-4.3131,-4.314,-4.1712,-4.0954,-4.0963,-3.9731,-3.8896,-3.8462,-3.6929,-3.6092,-3.5864,-3.5007,-3.4475,-3.4241,-3.3628,-3.313,-3.2771,-3.3212,-3.3132,-3.278,-3.3229,-3.3254,-3.3102,-3.333,-3.3254,-3.3023,0.0,0.0,0.0,0.0,0.0,0.0,0.0,0.0,0.0,0.0,0.0,0.0,0.0,0.0,0.0,0.0,0.0,0.0,0.0,-1.0127,-1.1215,-1.2056,-1.3583,-1.4529,-1.4758,-1.5438,-1.5925,-1.6274,-1.7045,-1.7932,-1.8956,-2.0064,-2.1025,-2.186,-2.2671,-2.2874,-2.2607,-2.283,-2.2081,0.0,0.0,-1.6746,-1.4826,-1.2838,-1.1121,-0.9735,-0.9398,-1.1058,-1.3556,-1.4695,0.0,-2.1226,-2.4143,-2.5898,-2.7831,-3.2787,0.0,-3.6404,-4.1361,-4.3767,-4.5058,-4.5937,-4.5212,-4.3786,-4.1794,-3.8653,-3.4824,-3.0036,-2.494,0.0,-1.9835,-1.8939,0.0,0.0,0.0,0.0,-3.9366,-4.1159,-4.2017,0.0,-4.2604,0.0,-4.2109,-4.2558,-4.3026,0.0,-4.3416,-4.3643,-4.4238,-4.4164,-4.3746,-4.2954,-4.2017,-4.1343,-4.0968,-3.9266,-3.845,-3.8481,-3.6726,-3.5921,-3.5929,-3.5441,-3.5012,-3.4641,0.0,-3.4111,-3.3451,-3.4233,-3.4314,-3.4043,-3.4805,-3.5117,-3.5154,-3.5545,-3.5194,-3.4549,0.0,0.0,0.0,0.0,0.0,0.0,0.0,0.0,0.0,0.0,0.0,0.0,0.0,0.0,0.0,0.0,0.0,0.0,0.0,0.0,-0.8928,-1.0117,-0.972,-0.9758,-1.0378,-0.9884,-0.9903,-1.0488,-1.1935,-1.321,-1.4336,-1.5868,-1.6908,-1.7486,-1.7576,-1.7576,-1.7485,-1.6954,-1.5814,-1.4288,-1.3256,-1.1545,-0.952,0.0,-0.8049,-0.8069,-0.8097,-1.1113,-1.5851,-2.0956,-2.4387,-2.7054,-2.9949,-3.2,-3.4197,-3.8793,-3.9229,-3.9199,-4.3676,-4.4972,-4.5231,-4.5874,-4.4684,-4.2442,-3.8966,-3.529,-3.0804,-2.4433,0.0,-1.9161,-1.9085,-1.8648,-2.0481,-2.7181,0.0,-3.1569,-3.7031,-3.9153,-4.0759,-4.2435,-4.3359,-4.3827,-4.3767,-4.3849,-4.4249,-4.5024,-4.5076,-4.4731,-4.3994,-4.4553,-4.4059,-4.2265,-4.2087,-4.165,-4.0883,-3.9165,-3.8361,-3.8456,-3.6703,-3.5901,-3.5996,-3.5996,-3.5586,-3.4921,0.0,0.0,-3.4033,-3.5655,-3.5888,-3.5341,-3.6864,-3.7448,-3.7521,-3.8297,-3.7616,-3.6296,0.0,0.0,0.0,0.0,0.0,0.0,0.0,0.0,0.0,0.0,-0.7128,-0.7168,0.0,0.0,0.0,0.0,0.0,0.0,0.0,0.0,0.0,-0.8961,-0.8894,-0.916,-0.9834,-0.9732,-0.975,-0.9868,-1.0154,-1.04,-1.0644,-1.1435,-1.1913,-1.2148,-1.2706,-1.2715,-1.2294,-1.2191,-1.1388,-1.0144,-1.0002,-0.9024,-0.7727,-0.8109,0.0,0.0,-1.1937,-1.4738,-1.7629,-2.4839,-2.8168,-3.0074,-3.4542,-3.7099,-3.8935,-4.1201,-4.2182,-4.2864,-4.4468,-4.544,-4.5835,-4.527,-4.3324,-4.0491,-3.6484,-3.1335,0.0,0.0,-1.7656,-1.5431,-1.6684,-1.7341,-2.0052,-2.7422,0.0,0.0,0.0,0.0,-4.2558,0.0,0.0,0.0,0.0,0.0,0.0,0.0,0.0,-4.587,-4.5828,-4.5234,-4.4067,-4.2266,-4.1448,-4.0967,-4.0816,-3.9131,-3.8315,-3.8315,-3.6578,-3.5805,-3.5921,-3.5921,-3.5862,-3.5823,-3.6707,0.0,-3.6692,-3.7671,-3.7983,-3.7862,-3.8174,-3.8213,-3.8159,-3.8419,-3.8249,-3.7823,0.0,0.0,0.0,0.0,0.0,0.0,0.0,-0.5565,-0.6297,-0.8844,-0.8933,-0.8539,-0.7935,-0.7663,-0.751,0.0,0.0,0.0,0.0,0.0,0.0,0.0,0.0,0.0,-0.8697,-0.8712,0.0,0.0,0.0,-0.8957,-0.9282,0.0,0.0,-1.0414,-1.0726,-1.0715,-1.0455,-1.0114,-0.963,-0.908,-0.8802,-0.8314,-0.7781,0.0,0.0,0.0,0.0,-1.4453,-1.7657,-2.1886,-2.5967,-3.035,-3.6553,-3.9695,-4.1064,-4.0849,-4.244,-4.4046,-4.2995,-4.4411,-4.5988,-4.5111,-4.229,-3.8345,-3.3003,0.0,0.0,0.0,-1.4847,-1.4104,-1.6183,-1.6817,0.0,-2.4549,-2.7481,0.0,0.0,0.0,0.0,0.0,0.0,0.0,0.0,0.0,0.0,0.0,0.0,-4.6191,-4.6192,-4.4844,-4.3452,-4.213,-4.1194,-4.0688,-4.0688,-3.9445,-3.862,-3.824,-3.6947,-3.614,-3.5794,-3.5794,-3.6041,-3.6495,-3.6903,0.0,-3.7743,-3.8132,-3.8568,-3.8976,-3.8968,-3.9207,-3.9568,-3.97,-3.9409,-3.8935,0.0,0.0,0.0,0.0,0.0,0.0,0.0,-0.6693,-0.7579,-1.0533,-1.0462,-0.9786,-0.8893,-0.8277,-0.7826,0.0,0.0,0.0,0.0,0.0,0.0,0.0,0.0,0.0,0.0,0.0,0.0,0.0,0.0,0.0,0.0,0.0,0.0,0.0,0.0,0.0,-0.9581,-0.9049,-0.8865,0.0,0.0,-0.8177,0.0,0.0,0.0,0.0,0.0,-1.3394,-1.683,-1.8265,-2.2574,-2.8471,-3.4689,-3.8384,-4.0218,-3.9276,-4.1284,-4.3481,-4.1977,-4.3807,-4.592,-4.4869,-4.1507,-3.6763,-3.0299,-2.5431,0.0,-1.4535,-1.3023,-1.3515,-1.5976,-1.6046,-1.7239,0.0,-2.4312,-2.7285,-3.1709,0.0,0.0,0.0,0.0,0.0,0.0,0.0,0.0,0.0,0.0,0.0,-4.5803,-4.4014,-4.2684,-4.1986,-4.107,-4.0511,-4.0318,-3.9662,-3.8865,-3.7934,-3.7254,-3.6503,-3.5724,-3.5899,-3.6345,-3.6986,-3.7355,0.0,0.0,-3.8675,-3.9161,-3.9762,-3.9762,-4.0179,-4.0761,-4.0902,-4.049,-3.9828,0.0,0.0,0.0,0.0,0.0,0.0,0.0,-0.6848,-0.8125,-1.0671,-1.0507,-1.0172,-1.0122,-0.9574,-0.8788,0.0,0.0,0.0,0.0,0.0,0.0,0.0,0.0,0.0,0.0,0.0,0.0,0.0,0.0,0.0,0.0,0.0,0.0,0.0,0.0,0.0,0.0,-0.8304,0.0,0.0,0.0,0.0,0.0,0.0,0.0,0.0,0.0,0.0,-1.5444,-1.8271,0.0,-2.3817,-2.6018,-3.0219,-3.4735,-3.7005,0.0,0.0,-4.3675,-4.5191,-4.5629,-4.4025,-4.0945,-3.6619,-3.0118,0.0,-2.0079,-1.503,-1.3,-1.2794,-1.5107,-1.4165,-1.5084,-2.131,-2.1233,-2.3139,-3.0945,0.0,0.0,0.0,0.0,0.0,0.0,0.0,0.0,0.0,0.0,0.0,-4.4877,-4.3048,-4.1953,-4.1813,-4.1041,-4.0221,-3.9436,-3.9449,-3.8683,-3.7113,-3.7017,-3.6569,-3.5813,-3.6611,-3.7034,-3.7255,-3.8842,0.0,0.0,-4.0494,-4.0877,-4.0935,-4.0935,-4.0918,-4.0897,-4.1038,-4.096,-4.0571,0.0,0.0,0.0,0.0,0.0,0.0,-0.6503,-0.6795,-0.791,-1.1117,-1.1099,-1.0966,-1.1404,-1.0577,-0.936,-0.7795,0.0,0.0,0.0,0.0,0.0,0.0,0.0,0.0,0.0,0.0,0.0,0.0,0.0,0.0,0.0,0.0,0.0,0.0,0.0,0.0,0.0,0.0,0.0,0.0,0.0,0.0,0.0,0.0,0.0,0.0,0.0,0.0,0.0,0.0,0.0,0.0,-1.7755,-2.0048,0.0,0.0,-3.3584,-3.7872,-3.8355,-4.216,-4.5589,-4.3918,-4.0519,-3.5786,-2.889,0.0,-1.9149,-1.3962,-1.2414,-1.2257,-1.3134,-1.2665,-1.3115,-1.6061,-1.6822,-1.9542,-2.6664,0.0,0.0,0.0,0.0,0.0,0.0,0.0,0.0,0.0,0.0,0.0,-4.3912,-4.3076,-4.2148,-4.1104,-4.0849,-4.0544,-4.0203,-3.9738,-3.9178,-3.85,-3.7976,-3.755,-3.7268,-3.756,-3.7987,-3.8501,-3.9157,0.0,0.0,-4.0488,-4.0563,-4.0492,-4.0492,-4.0481,-4.0434,-4.0557,-4.0597,-4.0443,0.0,0.0,0.0,0.0,0.0,-0.4363,-0.6614,-0.6963,-0.8041,-1.1001,-1.1301,-1.1409,-1.1884,-1.0728,-0.9463,-0.8398,-0.7989,0.0,0.0,0.0,0.0,0.0,0.0,0.0,0.0,0.0,-0.8043,-0.8057,0.0,0.0,0.0,0.0,0.0,0.0,0.0,0.0,0.0,0.0,0.0,0.0,0.0,0.0,0.0,0.0,0.0,0.0,0.0,0.0,0.0,0.0,0.0,-1.3605,-1.2613,-1.3309,-1.5645,-2.172,-2.8032,-3.3356,-3.4826,-3.9367,-4.3608,-4.3175,-3.9661,-3.4615,0.0,0.0,-1.8375,-1.3664,-1.2344,-1.1991,-1.1927,-1.1869,-1.2036,-1.2626,-1.3935,-1.6889,-2.274,-2.617,0.0,0.0,0.0,0.0,0.0,0.0,0.0,0.0,0.0,0.0,0.0,-4.3357,-4.2394,-4.0681,-4.0754,-4.0671,-4.0355,-4.004,-3.9594,-3.9027,-3.8678,-3.8357,-3.8114,-3.8337,-3.8724,-3.9276,0.0,0.0,0.0,-4.0353,-4.0285,-4.0214,-4.0214,-4.0214,-4.0233,-4.0315,-4.0226,-3.9946,0.0,0.0,0.0,0.0,0.0,0.0,-0.6116,-0.7483,-0.8748,-1.0053,-1.0838,-1.1304,-1.1322,-0.9764,-0.8967,-0.9618,-0.8536,0.0,0.0,0.0,0.0,0.0,0.0,0.0,0.0,0.0,-0.8128,-0.8197,-0.8863,-0.8846,0.0,0.0,0.0,0.0,0.0,0.0,0.0,0.0,0.0,0.0,0.0,0.0,0.0,0.0,0.0,0.0,0.0,0.0,0.0,0.0,0.0,0.0,0.0,-1.1564,-1.2762,-1.8932,-2.283,-2.6903,-3.5143,-3.7857,-3.8986,-4.1421,-3.8193,-3.3163,-2.8296,-2.2847,-1.791,-1.4726,-1.3008,-1.207,-1.1912,-1.1891,-1.2095,-1.2696,-1.3385,-1.5411,-2.0001,-2.439,0.0,0.0,0.0,0.0,0.0,0.0,0.0,0.0,0.0,0.0,0.0,-4.3784,-4.2565,-4.0761,-4.0829,-4.0391,-3.9335,-4.0292,-3.9824,-3.7938,-3.878,-3.8742,-3.7938,-3.8799,-3.9185,0.0,0.0,0.0,0.0,-4.0491,-4.0511,-4.0511,-4.0511,-4.0511,-4.0511,-4.0491,-3.9951,-3.9096,0.0,0.0,0.0,0.0,0.0,0.0,0.0,-0.5926,-0.6914,-0.8192,-0.8602,-0.9288,-1.0619,-0.9154,-0.8536,-0.9665,-0.86,0.0,0.0,0.0,0.0,0.0,0.0,0.0,0.0,0.0,-0.8878,-0.8953,-0.9624,-1.011,-1.0361,-0.964,-0.9467,0.0,0.0,0.0,0.0,0.0,0.0,0.0,0.0,0.0,0.0,0.0,0.0,0.0,0.0,0.0,0.0,0.0,0.0,0.0,0.0,0.0,0.0,-1.3025,-1.8046,-2.3382,-2.6023,-2.9963,-3.3034,-3.1844,-3.0495,-2.8259,-2.3537,-2.0225,-1.724,-1.4122,-1.2761,-1.2091,-1.2033,-1.1991,-1.2463,-1.3991,-1.4025,-1.5587,0.0,0.0,0.0,0.0,0.0,0.0,0.0,0.0,0.0,0.0,0.0,0.0,0.0,-4.3889,-4.2908,-4.1713,-4.1217,-4.0799,-4.0471,-4.0042,-3.9832,-3.9811,-3.9399,-3.9359,-3.9667,-3.9914,0.0,0.0,0.0,0.0,0.0,-4.0229,-4.0157,-4.0081,-4.0081,-4.0081,-4.0081,-4.0081,-3.9604,-3.882,0.0,0.0,0.0,0.0,0.0,0.0,0.0,-0.5221,-0.589,-0.6713,-0.707,-0.7822,-0.9275,-0.8032,-0.7708,-0.9285,-0.8304,0.0,0.0,0.0,0.0,0.0,0.0,0.0,-0.8195,-0.8613,-0.9124,-0.9718,-1.0395,-1.0996,-1.144,-1.0841,-1.0415,-1.008,-0.9203,0.0,0.0,0.0,0.0,0.0,0.0,0.0,-1.1464,0.0,0.0,0.0,0.0,0.0,0.0,0.0,0.0,0.0,0.0,0.0,0.0,0.0,-1.417,-1.8708,-2.0852,-2.4363,-2.7335,-2.6752,-2.5782,0.0,-2.0621,-1.8097,-1.5835,-1.364,-1.263,-1.2133,-1.2112,-1.207,-1.2492,-1.3935,-1.4016,-1.5181,0.0,0.0,0.0,0.0,0.0,0.0,0.0,0.0,0.0,0.0,0.0,0.0,0.0,-4.3957,-4.3082,-4.217,-4.1362,-4.0926,-4.084,-4.0138,-4.0003,-4.0472,-3.9791,-3.9744,-4.0279,-4.0229,0.0,0.0,0.0,0.0,0.0,-4.002,-3.9977,-3.9889,-3.9889,-3.9889,-3.9851,-3.957,-3.8947,-3.8153,0.0,0.0,0.0,0.0,0.0,0.0,0.0,-0.516,-0.5571,-0.5627,-0.6188,-0.6822,-0.749,-0.654,-0.6604,-0.8512,0.0,0.0,0.0,0.0,0.0,0.0,0.0,0.0,-0.8205,-0.8252,-0.8982,-1.0396,-1.1192,-1.1607,-1.1655,-1.2415,-1.1651,-0.9645,-0.9597,-0.9191,0.0,0.0,0.0,0.0,0.0,0.0,0.0,0.0,0.0,0.0,0.0,0.0,0.0,0.0,0.0,0.0,0.0,0.0,0.0,0.0,0.0,0.0,0.0,-2.0555,-2.1774,-2.4704,-2.3102,-2.0429,-1.9003,-1.6315,0.0,-1.3328,-1.2673,-1.2205,-1.2234,-1.2219,-1.2405,-1.3083,-1.3699,0.0,0.0,0.0,0.0,0.0,0.0,0.0,0.0,0.0,0.0,0.0,0.0,0.0,0.0,-4.3996,-4.3112,-4.2306,-4.1383,-4.0798,-4.0617,-4.0472,-4.0298,-4.012,-3.9977,-3.9889,-3.9889,-3.9889,0.0,0.0,0.0,0.0,0.0,-3.9797,-3.9794,-3.9835,-3.987,-3.9889,-3.9816,-3.9001,-3.8148,-3.7277,0.0,0.0,0.0,0.0,0.0,0.0,0.0,0.0,0.0,0.0,-0.5198,-0.5572,-0.6256,-0.5661,-0.5824,0.0,0.0,0.0,0.0,0.0,0.0,0.0,0.0,0.0,-0.8282,-0.8835,-0.9559,-1.0479,-1.1721,-1.2632,-1.3179,-1.338,-1.2652,-1.1172,-1.0655,-0.973,0.0,0.0,0.0,0.0,0.0,0.0,0.0,0.0,0.0,0.0,-1.0764,-1.0704,0.0,0.0,0.0,0.0,0.0,0.0,0.0,0.0,-0.9464,-1.0511,-1.234,0.0,-1.5872,-1.5018,-1.5392,-1.5716,0.0,-1.4002,-1.339,-1.3221,-1.2673,-1.2497,-1.3505,-1.3275,-1.3636,-1.5762,-1.6165,0.0,0.0,0.0,0.0,0.0,0.0,0.0,0.0,0.0,0.0,0.0,0.0,0.0,0.0,-4.4256,-4.333,-4.3117,-4.1618,-4.08,-4.0754,-4.0457,-4.0298,-4.0248,-4.0,-3.9889,-3.9889,-3.9889,0.0,0.0,0.0,0.0,-3.8035,-3.8698,-3.8982,-3.9039,-3.9665,-3.9889,-3.9816,-3.9001,-3.8148,-3.7277,0.0,0.0,0.0,0.0,0.0,0.0,0.0,0.0,0.0,0.0,0.0,-0.464,-0.5034,-0.4774,0.0,0.0,0.0,0.0,0.0,0.0,0.0,0.0,0.0,-0.8311,-0.8348,-0.8745,-0.9619,-1.099,-1.1827,-1.2922,-1.424,-1.4309,-1.3609,-1.2231,-1.0879,-0.9667,0.0,0.0,0.0,0.0,0.0,0.0,0.0,0.0,0.0,0.0,-1.0439,-1.0167,0.0,-1.0121,-0.9947,-0.9598,0.0,0.0,0.0,0.0,-0.9558,-1.0397,-1.0759,-1.2152,-1.328,-1.2416,-1.3044,-1.3737,-1.3327,-1.2981,-1.2728,-1.2728,0.0,-1.2534,-1.3544,-1.3698,0.0,0.0,0.0,0.0,0.0,0.0,0.0,0.0,0.0,0.0,0.0,0.0,0.0,0.0,0.0,0.0,0.0,-4.3288,-4.2594,-4.2226,-4.1299,-4.0796,-4.0812,-4.0481,-4.03,-4.03,-4.002,-3.9889,-3.9889,-3.9889,-3.9456,0.0,0.0,0.0,-3.7997,-3.8054,-3.8338,-3.8698,-3.8736,-3.8755,-3.866,-3.7845,-3.7239,-3.6727,0.0,0.0,0.0,0.0,0.0,0.0,0.0,0.0,0.0,0.0,0.0,0.0,0.0,0.0,0.0,0.0,0.0,0.0,0.0,0.0,0.0,0.0,-0.8374,-0.8463,-0.8573,-0.8476,-0.9422,-1.1475,-1.1917,-1.3089,-1.4929,-1.5501,-1.4845,-1.3075,-1.0921,-0.9498,0.0,0.0,0.0,0.0,-0.8811,0.0,0.0,0.0,0.0,0.0,0.0,0.0,0.0,-1.0072,-1.0078,-0.9565,-0.9396,0.0,0.0,0.0,0.0,0.0,-1.1345,-1.2049,-1.2811,-1.3157,-1.3374,-1.3441,-1.3326,-1.2901,-1.2519,0.0,0.0,0.0,0.0,-1.4695,0.0,0.0,0.0,0.0,0.0,0.0,0.0,0.0,0.0,0.0,0.0,0.0,0.0,0.0,0.0,0.0,0.0,-4.2105,-4.168,-4.1003,-4.0836,-4.0746,-4.0746,-4.045,-4.03,-4.0266,-4.002,-3.9854,-3.9721,-3.9721,-3.921,0.0,0.0,0.0,-3.8054,-3.7466,-3.7637,-3.8243,-3.7637,-3.739,-3.7315,-3.6632,-3.631,-3.6083,0.0,0.0,0.0,0.0,0.0,0.0,0.0,0.0,0.0,0.0,0.0,0.0,0.0,0.0,0.0,0.0,0.0,0.0,0.0,0.0,0.0,-0.8467,-0.8428,-0.8727,-0.9405,-0.8799,-0.9278,-1.0927,-1.2775,-1.4149,-1.513,-1.7592,-1.7027,-1.3834,-1.1678,-1.0018,-0.8781,-0.8798,-0.8805,-0.8794,-0.8857,0.0,0.0,0.0,0.0,0.0,0.0,0.0,0.0,-0.8891,-0.9232,-0.9484,-0.886,0.0,0.0,0.0,0.0,0.0,-1.1092,-1.2815,-1.3993,-1.2827,-1.3433,-1.4131,-1.3457,-1.3659,-1.3961,-1.3906,0.0,0.0,0.0,-1.9018,0.0,0.0,0.0,0.0,0.0,0.0,0.0,0.0,0.0,0.0,0.0,0.0,0.0,0.0,0.0,0.0,0.0,0.0,-4.1932,-4.1816,-4.0988,-4.0559,-4.0559,-4.0383,-4.0248,-4.0139,-3.9977,-3.9551,-3.8869,-3.8869,-3.8035,0.0,0.0,-3.6159,-3.5533,-3.614,-3.6462,-3.6632,-3.7182,-3.739,-3.739,-3.7258,-3.6765,-3.6083,0.0,0.0,0.0,0.0,0.0,0.0,0.0,0.0,0.0,0.0,0.0,0.0,0.0,0.0,0.0,0.0,0.0,0.0,0.0,0.0,-0.8912,-0.9707,-0.9338,-0.9273,-0.9639,-1.0094,-1.1073,-1.2583,-1.4377,-1.5824,-1.6943,-1.751,-1.6693,-1.4639,-1.2058,-1.0316,-0.9317,-0.8947,-0.8793,-0.8833,0.0,0.0,0.0,0.0,0.0,0.0,0.0,0.0,0.0,0.0,-0.9378,-0.9533,-0.92,0.0,0.0,0.0,0.0,0.0,-1.0256,-1.187,-1.3498,-1.3608,-1.4924,-1.5957,-1.5152,-1.522,-1.5402,-1.5298,0.0,0.0,0.0,0.0,0.0,0.0,0.0,0.0,0.0,0.0,0.0,0.0,0.0,0.0,0.0,0.0,0.0,0.0,0.0,0.0,0.0,0.0,-4.1351,-4.1351,-4.0389,-3.9807,-3.9746,-3.9614,-3.9508,-3.9452,-3.9313,-3.8812,-3.7997,-3.7997,-3.7334,-3.6196,0.0,-3.5969,-3.559,-3.5533,-3.578,-3.6178,-3.6083,-3.6045,-3.6045,-3.6045,-3.6102,-3.614,0.0,0.0,0.0,0.0,0.0,0.0,0.0,0.0,0.0,0.0,0.0,0.0,0.0,0.0,0.0,0.0,0.0,0.0,0.0,0.0,-0.9202,-1.0513,-1.0034,-1.0067,-1.0727,-1.1663,-1.2881,-1.4384,-1.6023,-1.7575,-1.8979,-1.7557,-1.6238,-1.4927,-1.2307,-1.0565,-0.952,-0.9014,-0.8793,-0.8855,0.0,0.0,0.0,0.0,0.0,0.0,0.0,0.0,0.0,0.0,0.0,0.0,0.0,0.0,0.0,-0.8866,-0.9342,-1.0176,-0.9763,-1.1175,-1.3018,-1.4127,-1.6049,-1.773,-1.8046,-1.8244,-1.8509,0.0,0.0,0.0,0.0,0.0,0.0,0.0,0.0,0.0,0.0,0.0,0.0,0.0,0.0,0.0,0.0,0.0,0.0,0.0,0.0,0.0,0.0,0.0,-4.0404,-4.0191,-3.9378,-3.8896,-3.8802,-3.863,-3.8652,-3.8842,-3.8741,-3.8224,-3.739,-3.7201,-3.667,-3.5893,-3.5893,-3.5893,-3.5836,-3.5173,-3.5268,-3.5797,-3.5135,-3.4964,-3.5076,-3.4887,-3.538,-3.6138,0.0,0.0,0.0,0.0,0.0,0.0,0.0,0.0,0.0,0.0,0.0,0.0,0.0,0.0,0.0,0.0,0.0,0.0,0.0,0.0,-0.9052,-0.9839,-0.9879,-1.1111,-1.3743,-1.3211,-1.3658,-1.5209,-1.7325,-1.9114,-2.0505,-1.9048,-1.6872,-1.4211,-1.2638,-1.0781,-0.8876,-0.8826,-0.8805,-0.8823,-0.8925,0.0,0.0,0.0,0.0,0.0,0.0,0.0,0.0,0.0,0.0,0.0,0.0,0.0,-0.9523,-0.8734,-0.9019,-0.9698,-1.0272,-1.1888,-1.3452,-1.3552,-1.5696,-1.8726,-2.2337,-2.3713,-2.4853,-2.7147,0.0,0.0,0.0,0.0,0.0,0.0,0.0,0.0,0.0,0.0,0.0,0.0,0.0,0.0,0.0,0.0,0.0,0.0,0.0,0.0,0.0,0.0,0.0,-3.8411,-3.808,-3.7904,-3.7904,-3.7642,-3.7904,-3.87,-3.87,-3.8224,-3.7371,-3.6632,-3.5799,-3.4984,-3.4984,-3.4984,-3.4984,-3.4927,-3.4888,-3.4884,-3.4827,-3.52,-3.5641,-3.4908,-3.5216,-3.6017,0.0,0.0,0.0,0.0,0.0,0.0,0.0,0.0,0.0,0.0,0.0,0.0,0.0,0.0,0.0,0.0,0.0,0.0,0.0,-0.8748,-0.9292,-1.0491,-1.0569,-1.1505,-1.3504,-1.4621,-1.6158,-1.8174,-1.9342,-2.0212,-2.0711,-1.8311,-1.6597,-1.5437,-1.2588,-1.1129,-1.0698,-0.9363,-0.9059,-0.9488,-0.9509,-0.9522,0.0,0.0,0.0,0.0,0.0,0.0,0.0,0.0,-0.8108,-0.8241,-0.7962,-0.8359,-0.8863,-0.8589,-0.8676,-0.8923,-0.9137,-1.1753,-1.4619,-1.5416,-1.8136,-2.1005,0.0,-2.5406,-2.7748,-2.8135,-2.9175,0.0,0.0,0.0,0.0,0.0,0.0,0.0,0.0,0.0,0.0,0.0,0.0,0.0,0.0,0.0,0.0,0.0,0.0,0.0,0.0,0.0,0.0,-3.8237,-3.7539,-3.7137,-3.7057,-3.6877,-3.6901,-3.7144,-3.7144,-3.6689,-3.5836,-3.5533,-3.5211,-3.4908,-3.4908,-3.4908,-3.4908,-3.4869,-3.481,-3.4788,-3.4727,-3.4833,-3.5036,-3.4695,-3.5152,-3.5891,0.0,0.0,0.0,0.0,0.0,0.0,0.0,0.0,0.0,0.0,0.0,0.0,0.0,0.0,0.0,0.0,0.0,0.0,-0.8711,-0.8806,-0.9363,-1.0634,-1.0681,-1.16,-1.3562,-1.5308,-1.7188,-1.9177,-2.0304,-2.0467,-1.9707,-1.7688,-1.6392,-1.5629,-1.3087,-1.2007,-1.1957,-1.0239,-0.9655,-0.9872,-0.9664,-0.9576,0.0,0.0,0.0,0.0,0.0,0.0,0.0,0.0,-0.7228,-0.723,-0.7432,-0.7816,-0.823,-0.8443,-0.8818,-0.9143,-0.9071,-1.2098,-1.5462,-1.6311,-2.002,0.0,-2.4631,-2.6958,-2.9365,-3.0872,-3.2587,-3.3638,-3.3051,0.0,0.0,0.0,0.0,0.0,0.0,0.0,0.0,0.0,0.0,0.0,0.0,0.0,0.0,0.0,0.0,0.0,0.0,0.0,0.0,0.0,-3.6761,-3.6342,-3.6253,-3.6116,-3.5983,-3.5856,-3.5856,-3.5666,-3.5306,-3.5022,-3.4908,-3.4908,-3.4908,-3.4889,-3.485,-3.4829,-3.4747,-3.4666,-3.4517,-3.4473,-3.4473,-3.4473,-3.4832,-3.5424,0.0,0.0,0.0,0.0,0.0,0.0,0.0,0.0,0.0,0.0,0.0,0.0,0.0,0.0,0.0,0.0,0.0,0.0,-0.8756,-0.8806,-0.9153,-0.9963,-0.9996,-1.1408,-1.4376,-1.5189,-1.6244,-1.7612,-1.9822,-1.972,-1.7496,-1.7496,-1.6331,-1.4291,-1.4274,-1.3509,-1.2167,-1.1332,-1.0578,-0.9853,-0.9172,-0.8908,-0.8908,0.0,0.0,0.0,0.0,0.0,0.0,0.0,-0.6496,-0.6618,-0.7296,-0.7503,-0.7665,-0.8314,-0.9527,-1.0623,-1.0527,-1.3141,-1.5866,-1.5781,0.0,0.0,-2.9302,-2.8951,-2.9954,-3.6688,-3.8139,-3.761,-3.5742,0.0,0.0,0.0,0.0,0.0,0.0,0.0,0.0,0.0,0.0,0.0,0.0,0.0,0.0,0.0,0.0,0.0,0.0,0.0,0.0,0.0,-3.5565,-3.5496,-3.5515,-3.5355,-3.5235,-3.5086,-3.5105,-3.5492,-3.6159,-3.5287,-3.4908,-3.4908,-3.4908,-3.485,-3.4788,-3.4788,-3.4645,-3.4386,-3.4245,-3.4197,-3.4197,-3.4197,-3.4269,-3.4517,0.0,0.0,0.0,0.0,0.0,0.0,0.0,0.0,0.0,0.0,0.0,0.0,0.0,0.0,0.0,0.0,0.0,0.0,-0.8914,-0.8936,-0.9049,-0.9282,-1.0284,-1.1029,-1.1403,-1.3141,-1.553,-1.8508,-1.911,-1.8548,-1.6864,-1.6302,-1.5412,-1.4278,-1.3762,-1.3276,-1.279,-1.1028,-1.0471,-1.0636,-0.9393,-0.8897,-0.8846,0.0,0.0,0.0,0.0,0.0,0.0,0.0,0.0,0.0,-0.7296,-0.8538,-0.9693,-0.9375,-1.1333,-1.3389,-1.2332,-1.6232,0.0,-2.05,0.0,0.0,0.0,-3.1408,0.0,0.0,-3.6652,-3.6864,-3.5438,0.0,0.0,0.0,0.0,0.0,0.0,0.0,0.0,0.0,0.0,0.0,0.0,0.0,0.0,0.0,0.0,0.0,0.0,0.0,0.0,0.0,-3.5063,-3.4979,-3.5496,-3.4847,-3.4448,-3.4266,-3.4838,-3.5169,-3.5287,-3.5022,-3.4908,-3.4908,-3.4908,-3.4567,-3.4018,-3.3903,-3.4141,-3.4517,-3.4386,-3.434,-3.4316,-3.4221,-3.4221,-3.4306,0.0,0.0,0.0,0.0,0.0,0.0,0.0,0.0,0.0,0.0,-0.8705,0.0,0.0,0.0,0.0,0.0,0.0,0.0,0.0,-0.9009,-0.9139,-0.9429,-1.0284,-1.0847,-1.1018,-1.2867,-1.4652,-1.6275,-1.6821,-1.648,-1.5297,-1.5389,-1.5204,-1.4788,-1.4922,-1.4521,-1.3614,-1.2014,-1.1085,-1.0562,-0.9371,-0.8891,-0.8824,0.0,0.0,0.0,0.0,0.0,0.0,0.0,0.0,0.0,-0.7291,-0.8388,-0.9514,-0.991,-1.235,-1.4827,-1.4508,-1.858,0.0,-2.3698,-2.6918,-3.0292,-3.1683,0.0,0.0,0.0,0.0,0.0,0.0,0.0,0.0,0.0,0.0,0.0,0.0,0.0,0.0,0.0,0.0,0.0,0.0,0.0,0.0,0.0,0.0,0.0,0.0,0.0,0.0,0.0,-3.4156,-3.4097,-3.4542,-3.4029,-3.3846,-3.4025,-3.4458,-3.4761,-3.4982,-3.4908,-3.4908,-3.4908,-3.487,-3.4585,-3.4112,-3.3995,-3.4196,-3.4583,-3.4517,-3.4473,-3.4473,-3.4386,-3.4316,-3.4293,0.0,0.0,0.0,0.0,0.0,0.0,0.0,0.0,0.0,0.0,-0.8717,-0.876,0.0,0.0,0.0,0.0,0.0,0.0,0.0,0.0,-0.9327,-1.0074,-1.0245,-1.098,-1.2368,-1.3599,-1.3514,-1.2105,-1.3633,-1.3988,-1.3244,-1.4725,-1.5415,-1.5469,-1.6884,-1.6349,-1.436,-1.3532,-1.1959,-0.9933,-0.9196,-0.8891,-0.8824,-0.8078,0.0,0.0,0.0,0.0,0.0,0.0,0.0,0.0,-0.7387,-0.7698,-0.8164,-1.0054,-1.2727,-1.5372,-1.6642,0.0,0.0,-2.5791,-2.8722,0.0,-3.4121,-3.6458,-3.8042,0.0,0.0,0.0,0.0,0.0,0.0,0.0,0.0,0.0,0.0,0.0,0.0,0.0,0.0,0.0,0.0,0.0,0.0,0.0,0.0,0.0,0.0,0.0,0.0,0.0,-3.3024,-3.3024,-3.3102,-3.3024,-3.331,0.0,-3.3906,-3.4205,-3.4764,-3.485,-3.4908,-3.4889,-3.4754,-3.4733,-3.479,-3.4517,-3.4494,-3.4626,-3.4529,-3.4548,-3.4602,-3.4602,-3.4495,-3.4386,0.0,0.0,0.0,0.0,0.0,0.0,0.0,0.0,0.0,0.0,0.0,0.0,0.0,0.0,0.0,0.0,0.0,0.0,0.0,0.0,-0.9355,-1.0146,-1.1334,-1.2112,-1.2393,-1.2141,-1.1517,-1.0573,-1.2633,-1.3244,-1.2552,-1.4004,-1.4712,-1.4748,-1.5643,-1.5155,-1.3549,-1.2194,-1.0978,-0.9933,-0.9196,-0.8891,-0.8824,-0.8078,-0.7798,0.0,0.0,0.0,0.0,0.0,0.0,0.0,-0.8213,-0.9189,-1.006,-0.9888,-1.3012,-1.6608,-1.6915,-2.0646,0.0,0.0,-3.1732,-3.5182,-3.7011,-3.7816,0.0,0.0,0.0,0.0,0.0,0.0,0.0,0.0,0.0,0.0,0.0,0.0,0.0,0.0,0.0,0.0,0.0,0.0,0.0,0.0,0.0,0.0,0.0,0.0,0.0,-3.3102,-3.2444,-3.2406,-3.3082,-3.2425,-3.2092,0.0,-3.2727,-3.2688,-3.21,-3.4036,-3.4908,-3.487,-3.4226,-3.4283,-3.4756,-3.3431,-3.3639,-3.4755,-3.4015,-3.4103,-3.4602,-3.4495,-3.434,-3.4245,0.0,0.0,0.0,0.0,0.0,0.0,0.0,0.0,0.0,0.0,0.0,0.0,0.0,0.0,0.0,0.0,0.0,0.0,0.0,0.0,-0.9576,-1.0771,-1.156,-1.1947,-1.193,-1.117,-1.0377,-0.9583,-1.074,-1.1429,-1.1773,-1.3633,-1.468,-1.5037,-1.5426,-1.4766,-1.3295,-1.1739,-1.047,-0.9438,-0.9061,-0.8891,-0.8824,-0.8078,-0.8017,-0.822,-0.7445,0.0,0.0,0.0,0.0,0.0,0.0,0.0,-0.9798,-1.0049,-1.2695,-1.5893,-1.7581,0.0,0.0,-2.8994,0.0,-3.6176,-3.7405,-3.7996,0.0,0.0,0.0,0.0,0.0,0.0,0.0,0.0,0.0,0.0,0.0,0.0,0.0,0.0,0.0,0.0,0.0,0.0,0.0,0.0,0.0,0.0,0.0,-3.2725,-3.23,-3.1932,-3.1468,-3.1449,-3.1913,-3.1449,-3.135,-3.1597,-3.1993,-3.2042,-3.1819,-3.3107,-3.3695,-3.3676,-3.3259,-3.3316,-3.3676,-3.3221,-3.3543,-3.432,-3.4207,-3.4413,-3.473,-3.4626,-3.4274,-3.3825,0.0,0.0,0.0,0.0,0.0,0.0,0.0,0.0,0.0,0.0,0.0,0.0,0.0,0.0,0.0,0.0,0.0,0.0,0.0,0.0,0.0,-1.122,-1.136,-1.1404,-1.1412,-1.0606,-0.9864,-0.9217,-0.9201,-0.9923,-1.1361,-1.3379,-1.4851,-1.5801,-1.5646,-1.4766,-1.3295,-1.1739,-1.0246,-0.8891,-0.8891,-0.8891,-0.8824,-0.8231,-0.8366,-0.8824,-0.8217,-0.8342,-0.8794,-0.8805,0.0,0.0,0.0,0.0,-0.8833,-0.9998,-1.1771,-1.404,-1.7221,0.0,-2.3944,-2.935,-3.2967,0.0,-3.6173,0.0,0.0,0.0,0.0,0.0,0.0,0.0,0.0,0.0,0.0,0.0,0.0,0.0,0.0,0.0,0.0,0.0,0.0,0.0,0.0,0.0,0.0,0.0,-3.1835,-3.1681,-3.1294,-3.0617,-3.0598,-3.0598,-3.0598,-3.0598,-3.0897,-3.1453,-3.1155,-3.1272,-3.1762,-3.1762,-3.1989,-3.2406,-3.2406,-3.2406,-3.2463,-3.3032,-3.3449,-3.3752,-3.4263,-3.4624,-3.4831,-3.4639,-3.4026,-3.3299,0.0,0.0,0.0,0.0,0.0,0.0,0.0,0.0,0.0,0.0,0.0,0.0,0.0,0.0,0.0,0.0,0.0,0.0,0.0,0.0,0.0,-1.0447,-1.1048,-1.1399,-1.1391,-1.0601,-1.0146,-1.0036,-0.9983,-1.0728,-1.2246,-1.3139,-1.4652,-1.6625,-1.5903,-1.4766,-1.3295,-1.1739,-1.0246,-0.8891,-0.8891,-0.8891,-0.8891,-0.879,-0.8807,-0.8891,-0.879,-0.8773,-0.8794,-0.8805,-0.8757,0.0,0.0,0.0,-0.8636,-0.8833,-0.9936,-1.1487,0.0,0.0,-2.4818,0.0,-3.1572,-3.2652,0.0,0.0,0.0,0.0,0.0,0.0,0.0,0.0,0.0,0.0,0.0,0.0,0.0,0.0,0.0,0.0,0.0,0.0,0.0,0.0,0.0,0.0,0.0,0.0,-3.1816,-3.1139,-3.0714,-3.0598,-3.0598,-3.0598,-3.0598,-3.0598,-3.0557,-3.0478,-2.9527,-2.9121,-2.9188,-2.9188,-3.0379,-3.2406,-3.2406,-3.2406,-3.2349,-3.1781,-3.2387,-3.3638,-3.2994,-3.3507,-3.4551,-3.3855,-3.335,-3.2943,0.0,0.0,0.0,0.0,0.0,0.0,0.0,0.0,0.0,0.0,0.0,0.0,0.0,0.0,0.0,0.0,0.0,0.0,0.0,0.0,0.0,-0.969,-0.9983,-1.0372,-1.0765,-1.0002,-0.9582,-0.9588,-0.9549,-1.0977,-1.3763,-1.4435,-1.5716,-1.742,-1.624,-1.5335,-1.457,-1.1744,-1.0165,-0.9525,-0.9117,-0.9428,-1.0043,-0.9213,-0.9416,-1.0026,-0.9201,-0.8852,-0.8794,-0.88,-0.8753,-0.8705,-0.8705,0.0,0.0,0.0,-0.93,-1.0646,-1.326,-1.8488,-2.386,0.0,-2.8949,-3.0784,-3.2115,0.0,0.0,0.0,0.0,0.0,0.0,0.0,0.0,0.0,0.0,0.0,0.0,0.0,0.0,0.0,0.0,0.0,0.0,0.0,0.0,0.0,0.0,-3.1139,-3.1139,-3.0327,-3.0095,-3.0578,-3.0133,-2.9863,-2.9863,-2.9863,-2.9534,-2.8835,-2.8299,-2.8029,-2.8029,-2.8502,-2.9529,-3.1004,-3.1004,-3.1004,-3.1023,-3.1137,-3.1629,-3.2349,-3.2918,-3.3526,-3.4034,-3.3575,-3.302,-3.2371,0.0,0.0,0.0,0.0,0.0,0.0,0.0,0.0,0.0,0.0,0.0,0.0,0.0,0.0,0.0,0.0,0.0,0.0,0.0,0.0,0.0,-0.9226,-0.9224,-0.9484,-1.0011,-0.9428,-0.912,-0.9109,-0.9289,-1.1252,-1.483,-1.5708,-1.7113,-1.8858,-1.7534,-1.6524,-1.5581,-1.2348,-1.0864,-1.0616,-0.9859,-1.0191,-1.1059,-1.0314,-1.0737,-1.1499,-0.9992,-0.9431,-0.932,-0.894,-0.8776,-0.8717,-0.8705,-0.8705,0.0,0.0,0.0,-1.0062,0.0,0.0,-2.0994,-2.364,-2.6082,-2.8345,0.0,0.0,0.0,0.0,0.0,0.0,0.0,0.0,0.0,0.0,0.0,0.0,0.0,0.0,0.0,0.0,0.0,0.0,0.0,0.0,0.0,0.0,0.0,-3.0172,-2.994,-2.9321,-2.9263,-2.9921,-2.9302,-2.8973,-2.8973,-2.8917,-2.8394,-2.7397,-2.7233,-2.7172,-2.7209,-2.8029,-2.8843,-2.9604,-2.9813,-2.9888,-2.9945,-3.0606,-3.1004,-3.1345,-3.2768,-3.3318,-3.3261,-3.3103,-3.2477,-3.1574,0.0,0.0,0.0,0.0,0.0,0.0,0.0,0.0,0.0,0.0,0.0,0.0,-0.9189,-0.9189,-0.9189,-0.9189,-0.9189,-0.9189,-0.9189,-0.9247,-0.9293,-0.93,-0.93,0.0,-0.9264,-0.9216,-0.9158,-0.9109,-0.9807,-1.174,-1.483,-1.626,-1.8534,-2.1359,-2.046,-1.8476,-1.5683,-1.4024,-1.2928,-1.2212,-1.1406,-1.1124,-1.1344,-1.2651,-1.321,-1.3074,-1.155,-1.0981,-1.0767,-0.9287,-0.88,-0.8781,-0.8717,-0.8705,-0.8693,0.0,0.0,0.0,0.0,-1.3575,0.0,-2.1292,0.0,0.0,0.0,0.0,0.0,0.0,0.0,0.0,0.0,0.0,0.0,0.0,0.0,0.0,0.0,0.0,0.0,0.0,0.0,0.0,0.0,0.0,0.0,0.0,0.0,-2.9012,-2.8189,-2.8092,-2.8092,-2.8131,-2.8092,-2.8073,-2.8073,-2.7881,-2.737,-2.6565,-2.6357,-2.628,-2.6299,-2.7172,-2.7991,-2.879,-2.9566,-2.9888,-2.9888,-2.9945,-3.0438,-3.1271,-3.2071,-3.2297,-3.2161,-3.2096,-3.1467,-3.0559,0.0,0.0,0.0,0.0,0.0,0.0,0.0,0.0,0.0,0.0,0.0,0.0,0.0,-0.9274,-0.933,-0.933,-0.933,-0.933,-0.933,-0.9312,-0.9293,-0.931,-0.93,-0.9271,-0.9212,-0.9201,-0.9161,-0.9109,-0.9358,-1.105,-1.4054,-1.5571,-1.7139,-1.8655,-1.8857,-1.8616,-1.7803,-1.4332,-1.2972,-1.3096,-1.2299,-1.2817,-1.4041,-1.3583,-1.4582,0.0,0.0,0.0,0.0,-1.4307,-1.3341,-1.2104,-1.1628,-1.0517,-0.9296,-0.8759,-0.888,-0.9441,0.0,0.0,0.0,-1.6966,-1.9473,0.0,0.0,0.0,0.0,0.0,0.0,0.0,0.0,0.0,0.0,0.0,0.0,0.0,0.0,0.0,0.0,0.0,0.0,0.0,0.0,0.0,0.0,0.0,0.0,0.0,-2.8014,-2.7464,-2.7426,-2.7976,-2.7464,-2.7174,-2.7174,-2.6447,-2.594,-2.5653,-2.5501,-2.5712,-2.6242,-2.7096,-2.7934,-2.8733,-2.9547,-2.9888,-2.9888,-2.9888,-3.0078,-3.0495,-3.1788,-3.1921,-3.1431,-3.1854,-3.1453,-3.0609,0.0,0.0,0.0,0.0,0.0,0.0,0.0,0.0,0.0,-1.231,0.0,0.0,0.0,0.0,-0.9822,-1.0891,-1.0,-0.9394,-0.9394,-0.9358,-0.933,-0.9301,-0.9557,-0.9668,-0.9606,-0.9596,-0.9565,-0.9494,-0.9511,-1.0798,-1.3292,-1.4848,-1.6091,-1.7038,-1.7058,-1.7745,-1.8724,-1.5693,-1.4538,-1.4693,0.0,-1.4622,-1.5744,-1.6203,0.0,0.0,0.0,0.0,0.0,0.0,0.0,-1.4342,-1.3601,-1.1729,-0.9643,-0.8841,-0.9072,-0.9537,-0.9297,0.0,0.0,0.0,0.0,0.0,0.0,0.0,0.0,0.0,0.0,0.0,0.0,0.0,0.0,0.0,0.0,0.0,0.0,0.0,0.0,0.0,0.0,0.0,0.0,0.0,0.0,0.0,0.0,0.0,-2.7174,-2.6613,-2.6555,-2.7136,-2.6594,-2.6296,-2.6296,-2.5563,-2.5192,-2.5212,-2.5063,-2.5427,-2.6242,-2.7096,-2.7934,-2.8733,-2.9547,-2.9888,-2.9888,-2.9888,-2.9888,-3.004,-3.1318,-3.1299,-3.064,-3.1289,-3.1001,-3.0236,0.0,0.0,0.0,0.0,0.0,0.0,0.0,0.0,-0.9189,-0.9189,0.0,0.0,0.0,0.0,0.0,-1.3832,-1.1212,-0.9394,-0.9394,-0.9394,-0.9385,-0.9347,-1.009,-1.0482,-1.0434,-1.0411,-1.0371,-1.0308,-1.0273,-1.1043,-1.2571,-1.4098,-1.561,-1.6905,-1.547,-1.604,-1.8073,-1.8056,-1.7621,-1.7001,0.0,-1.649,-1.6333,0.0,0.0,0.0,-2.0666,-2.0365,0.0,-1.8028,0.0,0.0,0.0,-1.2101,-0.965,-0.8891,-0.9117,-0.9484,0.0,0.0,0.0,0.0,0.0,0.0,0.0,0.0,0.0,0.0,0.0,0.0,0.0,0.0,0.0,0.0,0.0,0.0,0.0,0.0,0.0,0.0,0.0,0.0,0.0,0.0,0.0,0.0,0.0,-2.6315,-2.555,-2.5511,-2.5511,-2.5511,-2.5511,-2.5511,-2.5511,-2.5293,-2.5192,-2.5212,-2.5082,-2.5465,-2.628,-2.7153,-2.7972,-2.8771,-2.9547,-2.9888,-2.9888,-2.9888,-2.9888,-2.9967,-3.064,-3.0415,-2.9777,-3.0381,-3.0095,-2.9407,0.0,0.0,0.0,0.0,0.0,-0.9883,-1.1932,-1.0515,-0.9189,0.0,0.0,0.0,-1.2345,-1.2618,-1.3037,-1.4028,-1.1212,-0.9394,-0.9394,-0.9394,-0.9723,-1.044,-1.0617,-1.0883,-1.1264,-1.0697,-1.0394,-1.0371,-0.9784,-0.9989,-1.0974,-1.2512,-1.3454,-1.3894,-1.5107,-1.5401,-1.4917,-1.4313,0.0,-1.7038,-1.7355,-1.8333,0.0,0.0,0.0,0.0,0.0,-2.3106,-2.3396,0.0,-2.1471,-1.8446,0.0,0.0,-0.9864,-1.0164,-1.0336,-1.0343,-1.015,0.0,0.0,0.0,0.0,0.0,0.0,0.0,0.0,0.0,0.0,0.0,0.0,0.0,0.0,0.0,0.0,0.0,0.0,0.0,0.0,0.0,0.0,0.0,0.0,0.0,0.0,0.0,-2.584,-2.5724,-2.5511,-2.5511,-2.5511,-2.5511,-2.5511,-2.5511,-2.5511,-2.535,-2.5254,-2.5212,-2.5697,-2.6355,-2.7172,-2.7991,-2.8825,-2.9566,-2.9794,-2.9888,-2.9888,-2.9888,-2.9888,-2.9967,-3.064,-3.0415,-2.9777,-3.0381,-3.0095,-2.9407,0.0,0.0,0.0,0.0,0.0,-1.1042,-1.0667,-1.0919,-1.0679,0.0,0.0,0.0,-1.3695,-1.5108,-1.5965,-1.6061,-1.316,-1.0781,-0.9483,-0.9831,-1.0311,-1.0884,-1.1041,-1.1429,-1.2098,-1.1616,-1.1205,-1.0896,-1.0079,-0.9753,-0.9872,-1.1105,-1.1668,-1.1699,-1.3055,-1.3507,-1.3179,0.0,0.0,0.0,-1.8463,0.0,0.0,-2.2775,-2.3452,0.0,0.0,0.0,-2.5775,-2.5722,-2.379,0.0,0.0,0.0,-1.2271,-1.1213,-1.1252,-1.1597,-1.1238,-1.1677,-1.2227,0.0,0.0,0.0,-1.6198,-1.6605,0.0,0.0,0.0,0.0,0.0,0.0,0.0,0.0,0.0,0.0,0.0,0.0,0.0,0.0,0.0,0.0,0.0,0.0,0.0,-2.555,-2.5511,-2.5511,-2.5511,-2.5511,-2.5511,-2.5511,-2.5511,-2.5511,-2.5511,-2.5367,-2.5447,-2.5748,-2.6123,-2.6896,-2.801,-2.8502,-2.9131,-2.9888,-2.9888,-2.9888,-2.9888,-2.9888,-2.9888,-2.9945,-3.03,-3.0152,-2.9739,-3.0032,-2.9818,-2.9407,0.0,0.0,-1.3147,-1.13,-1.2609,-1.3078,-1.0632,-1.2648,-1.344,0.0,-1.2701,-1.4707,-1.5409,-1.779,-1.9305,-1.9305,-1.6209,-1.3032,-1.0107,-1.0652,-1.113,-1.1239,-1.1647,-1.2194,-1.2918,-1.2789,-1.2354,-1.1593,-1.0796,-1.0006,-0.9206,-1.0013,-1.0324,-1.0186,-1.0319,0.0,-1.2335,0.0,0.0,-1.7985,-1.9712,-2.0868,0.0,0.0,-2.4601,-2.361,-2.5993,-2.6855,-2.6711,-2.5814,-2.421,0.0,0.0,0.0,-1.5705,-1.254,-1.2389,-1.3094,-1.2365,-1.264,-1.3388,0.0,0.0,0.0,-1.6102,-1.6113,-1.6604,0.0,0.0,0.0,0.0,0.0,0.0,0.0,0.0,0.0,0.0,0.0,0.0,0.0,0.0,0.0,0.0,-2.5511,-2.5511,-2.5511,-2.5511,-2.5511,-2.5511,-2.5511,-2.5511,-2.5511,-2.5511,-2.5511,-2.5511,-2.5376,-2.5669,-2.6351,-2.6421,-2.72,-2.8563,-2.8752,-2.9207,-2.9888,-2.9888,-2.9888,-2.9888,-2.9888,-2.9888,-2.9888,-2.9825,-2.9756,-2.9683,-2.955,-2.9451,-2.9407,0.0,-1.2507,-1.2441,-1.1677,-1.2838,-1.4566,-1.6533,-1.74,-1.7612,-1.7024,-1.7452,-1.9783,-2.486,-2.3725,-2.2567,-2.2567,-1.8503,-1.5151,-1.3298,-1.2169,-1.2121,-1.3334,-1.3476,-1.3622,-1.3754,-1.3121,-1.2388,-1.16,-1.0859,-1.0045,-0.9206,-1.0013,-1.0048,-0.9442,-1.0107,-1.0563,0.0,0.0,0.0,-1.8061,-1.9339,0.0,-2.4324,-2.5291,-2.5465,-2.5238,-2.5761,-2.5957,-2.5789,-2.4708,-2.3572,-2.2278,0.0,0.0,0.0,-1.6247,-1.5441,-1.4743,-1.4591,0.0,0.0,0.0,0.0,0.0,-1.5159,-1.4737,-1.5197,0.0,0.0,0.0,0.0,0.0,0.0,0.0,0.0,0.0,0.0,0.0,0.0,0.0,0.0,0.0,0.0,-2.5511,-2.5511,-2.5511,-2.5511,-2.5511,-2.5511,-2.5511,-2.5511,-2.5511,-2.5511,-2.5511,-2.5511,-2.5476,-2.5465,-2.548,-2.6787,-2.7529,-2.7778,-2.909,-2.9737,-2.9888,-2.9888,-2.9888,-2.9888,-2.9888,-2.9888,-2.9891,-2.9774,-2.9701,-2.9683,-2.949,-2.9427,-2.9407,-1.3365,-1.408,-1.4896,-1.5193,-1.7151,-1.9227,-2.085,-2.112,-2.1141,-2.1141,-2.1141,-2.2335,-2.5508,-2.4438,-2.3066,-2.2032,-1.9288,-1.6772,-1.4827,-1.3578,-1.3066,-1.3432,-1.3454,-1.3813,-1.4577,-1.3803,-1.2997,-1.2207,-1.1459,-1.0458,-0.9255,-0.966,-1.0055,-1.0403,-1.0403,-1.1042,0.0,0.0,-1.6376,-1.8995,-2.0099,0.0,-2.4699,-2.5165,-2.5333,-2.5385,-2.5623,-2.5703,-2.5622,-2.5195,-2.4462,0.0,0.0,-2.1079,-1.9849,0.0,-1.7478,-1.6762,0.0,0.0,0.0,-1.5152,0.0,0.0,0.0,-1.4048,-1.4269,0.0,0.0,0.0,0.0,0.0,0.0,0.0,0.0,0.0,0.0,0.0,0.0,0.0,0.0,0.0,0.0,-2.5511,-2.5511,-2.5511,-2.5511,-2.5511,-2.5511,-2.5511,-2.5511,-2.5511,-2.5511,-2.5511,-2.5511,-2.5898,-2.6244,-2.6561,-2.7773,-2.8517,-2.8821,-2.9561,-2.9888,-2.9888,-2.9888,-2.9888,-2.9888,-2.9888,-2.9888,-2.9888,-2.979,-2.9719,-2.9683,-2.951,-2.9429,-2.9407,-1.5045,-1.5864,-1.6881,-1.7736,-2.0998,-2.3298,-2.2674,-2.3102,-2.3708,-2.4314,-2.3868,-2.3494,-2.3494,-2.3494,-2.3088,-2.2,-2.0356,-1.861,-1.6772,-1.5327,-1.4242,-1.3601,-1.3289,-1.3787,-1.5193,-1.4435,-1.3538,-1.2586,-1.199,-1.0873,-0.9303,-0.9303,-1.0044,-1.1376,-1.0877,-1.1995,0.0,0.0,0.0,-2.0344,0.0,-2.2825,-2.4295,-2.4896,-2.499,-2.4871,-2.5479,-2.5703,-2.5762,-2.6191,-2.588,-2.5099,-2.3989,-2.3551,0.0,0.0,0.0,0.0,0.0,0.0,0.0,0.0,0.0,-1.5603,0.0,0.0,0.0,0.0,0.0,0.0,0.0,0.0,0.0,0.0,0.0,0.0,0.0,0.0,0.0,0.0,0.0,0.0,0.0,-2.5324,-2.5511,-2.5511,-2.5511,-2.5511,-2.5511,-2.5511,-2.5511,-2.5511,-2.5511,-2.5511,-2.5511,-2.6296,-2.7015,-2.7662,-2.8587,-2.9315,-2.9889,-2.9939,-2.9988,-2.9988,-2.9988,-2.9988,-2.9988,-2.9988,-2.9988,-2.9972,-2.9841,-2.9774,-2.9683,-2.955,-2.9451,-2.9407,-1.7736,-1.6203,-1.4492,-1.4599,-1.9536,-2.2549,-1.975,-2.1693,-2.4492,-2.729,-2.5223,-2.3494,-2.3494,-2.3494,-2.4528,-2.7077,-2.3779,0.0,-2.15,0.0,-1.6094,-1.6005,-1.4688,-1.4367,-1.5273,-1.4492,-1.3356,-1.1819,-1.1742,-1.0877,-0.9303,-0.9303,-0.9781,-1.0645,-1.1258,0.0,0.0,0.0,-1.9382,0.0,-2.3151,-2.3757,0.0,-2.5185,-2.4963,-2.4166,-2.5291,-2.5703,-2.5859,0.0,-2.6984,-2.6663,0.0,-2.5525,-2.4515,0.0,0.0,0.0,0.0,0.0,0.0,0.0,-1.7634,0.0,0.0,0.0,0.0,0.0,0.0,0.0,0.0,0.0,0.0,0.0,0.0,0.0,0.0,0.0,0.0,0.0,0.0,0.0,0.0,0.0,-2.5511,-2.5511,-2.5511,-2.5511,-2.5511,-2.5511,-2.5511,-2.5511,-2.5511,-2.5511,-2.5511,-2.6296,-2.6715,-2.6766,-2.8345,-2.9098,-2.9149,-2.9922,-3.0253,-3.0253,-3.0253,-3.0253,-3.0253,-3.0253,-3.0253,-3.0226,-2.9907,-2.9774,-2.9683,-2.955,-2.9451,-2.9407,-1.5826,-1.5502,-1.5031,-1.5031,-1.7217,-1.9145,-1.9665,-2.1857,-2.3957,-2.5294,-2.59,-2.6925,0.0,0.0,0.0,0.0,0.0,-2.5225,0.0,0.0,-1.8939,-1.9181,-1.6772,-1.5929,-1.6958,-1.5548,-1.4011,-1.2394,-1.1943,-1.0898,-0.9375,-0.9848,-1.093,-1.2588,-1.3624,0.0,-1.7871,0.0,-2.0807,0.0,0.0,0.0,0.0,-2.4809,-2.5383,-2.5078,-2.6094,-2.6445,-2.6602,0.0,-2.7598,0.0,0.0,0.0,0.0,0.0,0.0,0.0,0.0,0.0,0.0,0.0,0.0,0.0,-1.485,0.0,-1.4486,0.0,0.0,0.0,0.0,0.0,0.0,0.0,0.0,0.0,0.0,0.0,0.0,0.0,0.0,0.0,0.0,0.0,0.0,0.0,0.0,-2.3946,-2.4759,-2.5254,-2.5511,-2.5511,-2.5511,-2.5724,-2.618,-2.7039,-2.7688,-2.8183,-2.9301,-2.9836,-2.9821,-3.0145,-3.0292,-3.0292,-3.0292,-3.0292,-3.0292,-3.0292,-3.0292,-3.0299,-3.0157,-3.0019,-2.9907,-2.9786,-2.9716,-2.9681,-1.5307,-1.535,-1.526,-1.5304,-1.6043,-1.7695,-2.0833,-2.2561,-2.4123,0.0,0.0,0.0,-3.135,-3.1193,0.0,0.0,-2.9839,-2.8554,0.0,0.0,-2.1961,-2.1652,-1.8799,0.0,-1.8533,-1.6726,-1.4823,-1.2893,-1.2317,-1.1473,-1.0374,-1.0723,-1.2014,-1.4072,0.0,-1.7041,-1.9553,0.0,0.0,-2.168,-2.4807,-2.4695,-2.2867,-2.4818,-2.578,-2.6172,-2.7031,-2.7363,-2.748,-2.8359,-2.8379,0.0,-2.9062,0.0,0.0,0.0,0.0,0.0,-2.3267,0.0,0.0,0.0,0.0,0.0,0.0,0.0,0.0,0.0,0.0,0.0,0.0,0.0,0.0,-1.4923,0.0,0.0,0.0,0.0,0.0,0.0,0.0,0.0,0.0,0.0,0.0,-2.3278,-2.2486,-2.2595,-2.4205,-2.4839,-2.5263,-2.5484,-2.5511,-2.5898,-2.6683,-2.7561,-2.8431,-2.9302,-3.0075,-3.0449,-3.0449,-3.0402,-3.0367,-3.0367,-3.0367,-3.0367,-3.0367,-3.0367,-3.0367,-3.0367,-3.0367,-3.0299,-3.0188,-3.0022,-2.9927,-2.9899,-1.8326,-1.6343,-1.419,-1.4322,0.0,-2.0029,-2.3106,0.0,0.0,0.0,0.0,0.0,0.0,0.0,0.0,0.0,0.0,-3.1061,-3.16,0.0,-2.4909,-2.2832,-2.0532,-1.9355,-1.9462,-1.7811,-1.561,-1.2893,-1.2857,-1.2839,-1.2768,-1.2026,-1.2526,-1.4118,-1.4949,-1.702,-1.9983,-2.1624,-2.3538,-2.5506,-2.5661,-2.615,-2.6685,0.0,-2.5933,-2.707,-2.7949,0.0,0.0,-2.9258,-2.9551,0.0,0.0,0.0,0.0,0.0,0.0,0.0,0.0,0.0,0.0,-2.321,0.0,0.0,0.0,0.0,-1.6059,0.0,0.0,0.0,0.0,0.0,-1.5739,-1.502,-1.4923,0.0,0.0,0.0,0.0,0.0,0.0,0.0,0.0,0.0,0.0,-2.1088,-2.1145,-2.206,-2.419,-2.4313,-2.47,-2.5484,-2.5511,-2.5898,-2.6683,-2.7561,-2.8431,-2.9302,-3.0172,-3.0598,-3.0598,-3.0588,-3.0588,-3.0588,-3.0588,-3.0588,-3.0588,-3.0588,-3.0588,-3.0588,-3.0588,-3.055,-3.046,-3.019,-3.0003,-2.9912,0.0,-1.8185,-1.7104,0.0,0.0,0.0,0.0,-2.3019,0.0,0.0,0.0,0.0,0.0,-2.991,-3.1507,0.0,0.0,-3.1008,-3.1217,-2.998,0.0,0.0,0.0,-2.2697,-2.216,-2.0337,-1.8009,-1.522,-1.4189,-1.369,-1.3672,-1.287,-1.3351,-1.4967,0.0,-1.8507,0.0,0.0,0.0,0.0,0.0,-2.4703,-2.609,0.0,0.0,-2.7969,-2.8848,-2.916,0.0,-3.0176,-3.0469,-3.043,-3.0215,-2.9492,-2.8608,-2.8121,-2.7314,0.0,0.0,0.0,-2.714,-2.5611,0.0,0.0,0.0,0.0,0.0,0.0,0.0,0.0,0.0,-1.6524,-1.5771,-1.502,-1.4524,-1.3735,0.0,0.0,0.0,0.0,0.0,0.0,0.0,0.0,0.0,-2.0178,-1.9888,-2.0779,-2.3364,-2.4011,-2.4669,-2.5464,-2.5511,-2.6169,-2.7542,-2.7851,-2.8722,-3.0153,-3.0462,-3.0598,-3.0598,-3.0598,-3.0598,-3.0598,-3.0598,-3.0598,-3.0598,-3.0598,-3.0598,-3.0598,-3.0598,-3.0588,-3.055,-3.0409,-3.0352,-3.0285,-1.992,0.0,0.0,0.0,0.0,0.0,0.0,0.0,0.0,0.0,-2.8465,0.0,-3.1222,0.0,-3.2226,0.0,-3.0898,-3.0898,-3.0898,-3.0898,0.0,-2.9332,-2.7068,0.0,-2.4667,-2.2653,-2.0282,-1.7511,0.0,-1.5345,-1.5327,-1.4242,-1.4453,-1.5752,0.0,-1.8654,-2.0607,0.0,-2.3506,0.0,0.0,-2.4914,0.0,0.0,-2.7576,-2.8223,0.0,-3.0059,-3.0156,-3.0703,-3.0898,-3.0898,-3.0898,-3.0254,-2.9473,-2.9473,-2.884,-2.8336,-2.9233,-2.9082,0.0,-2.7736,-2.5499,0.0,-2.1191,0.0,0.0,0.0,0.0,0.0,0.0,0.0,-1.5882,-1.5389,-1.4513,-1.3475,0.0,-1.2079,0.0,0.0,0.0,0.0,0.0,0.0,-1.5892,-1.8229,-1.7771,-1.8953,0.0,0.0,-2.4136,-2.5456,-2.5511,-2.6169,-2.7522,-2.7851,-2.8722,-3.0133,-3.0443,-3.0598,-3.0598,-3.0598,-3.0598,-3.0598,-3.0598,-3.0598,-3.0598,-3.0598,-3.0598,-3.0598,-3.0598,-3.0598,-3.0598,-3.0559,-3.052,-3.049,0.0,0.0,0.0,0.0,-1.9322,0.0,0.0,0.0,-2.727,0.0,-3.216,-3.6244,-3.6015,-3.5996,-3.4629,-3.1191,-3.0898,0.0,-3.0898,-3.0898,0.0,0.0,-2.8946,-2.7517,-2.6836,0.0,0.0,0.0,0.0,-1.7628,-1.7628,-1.6041,-1.5666,-1.6344,-1.638,0.0,-1.9525,-2.145,-2.3433,-2.5261,-2.5273,-2.6723,-2.8766,-2.8066,-2.774,-2.7945,-3.0117,-3.0898,-3.0898,-3.0898,-3.0898,-3.0898,-3.0898,-3.0898,-3.0898,-3.0898,-3.0898,-3.0898,-3.0898,-2.9824,-2.8867,-2.9512,0.0,0.0,0.0,0.0,-2.4378,0.0,0.0,0.0,0.0,0.0,0.0,-1.6066,-1.4767,-1.3556,-1.2892,-1.2778,0.0,0.0,0.0,0.0,0.0,-1.2015,-1.2721,-1.544,-1.5027,-1.6792,0.0,0.0,-2.3086,-2.5324,-2.5464,-2.5917,-2.676,-2.758,-2.8451,-2.936,-3.0192,-3.0598,-3.0598,-3.0598,-3.0598,-3.0598,-3.0598,-3.0598,-3.0598,-3.0598,-3.0598,-3.0598,-3.0598,-3.0598,-3.0598,-3.0598,-3.0559,-3.051,-1.9992,-1.9648,-1.9829,0.0,-2.2582,-2.2872,0.0,0.0,0.0,0.0,-3.5668,-3.9825,-3.6374,-3.5996,-3.4629,-3.1191,-3.0898,0.0,0.0,0.0,0.0,-3.0898,-3.0361,-2.955,-2.8437,-2.5815,0.0,-2.2995,0.0,0.0,-1.8449,-1.629,-1.5398,-1.5612,0.0,0.0,-1.9524,-2.1152,-2.3531,-2.6199,-2.6444,-2.7097,0.0,0.0,-2.8894,-2.8768,-3.0345,-3.0898,-3.0898,-3.0898,-3.0898,-3.0898,-3.0898,-3.0898,-3.0898,-3.0898,-3.0898,-3.0898,-3.0898,-3.0605,-3.0351,-3.0527,-2.86,-2.6513,0.0,0.0,0.0,0.0,0.0,0.0,0.0,0.0,0.0,-1.5631,-1.3576,-1.2387,-1.2762,0.0,0.0,-1.3475,0.0,0.0,0.0,-1.2713,-1.3679,-1.4796,-1.5209,-1.6877,0.0,0.0,0.0,-2.3809,-2.4927,-2.6207,-2.7658,-2.789,-2.876,-3.0269,-3.0482,-3.0598,-3.0598,-3.0598,-3.0598,-3.0598,-3.0598,-3.0598,-3.0598,-3.0598,-3.0598,-3.0598,-3.0598,-3.0598,-3.0598,-3.0598,-3.0598,-3.0559,-1.9087,0.0,0.0,-2.5353,0.0,0.0,-2.5463,0.0,0.0,-2.961,-3.5905,0.0,-3.6328,-3.5996,-3.5234,-3.3301,-3.3125,0.0,-3.0996,0.0,0.0,-3.0898,-3.0898,-3.0566,-2.9844,-2.7729,0.0,-2.4463,0.0,-1.904,-1.8235,-1.6219,-1.5291,-1.5327,0.0,-1.7413,0.0,-2.2285,-2.478,-2.6795,-2.7158,0.0,0.0,-2.9186,-2.9521,-2.988,-3.0619,-3.0898,-3.0898,-3.0898,-3.0898,-3.0898,-3.0898,-3.0898,-3.0898,-3.0898,-3.0898,-3.0898,-3.0898,-3.0898,-3.0898,-3.0898,-2.9941,-2.8769,-2.7891,-2.7335,-2.6443,0.0,0.0,0.0,0.0,0.0,0.0,-1.5037,-1.3518,0.0,0.0,0.0,0.0,0.0,0.0,0.0,0.0,-1.2413,-1.2999,-1.3266,-1.4215,-1.6155,0.0,0.0,0.0,-2.3674,-2.4912,-2.5791,-2.6328,-2.7824,-2.8859,-2.943,-3.0209,-3.0598,-3.0598,-3.0598,-3.0598,-3.0598,-3.0598,-3.0598,-3.0598,-3.0598,-3.0598,-3.0598,-3.0598,-3.0598,-3.0598,-3.0598,-3.0598,-3.0588,0.0,0.0,0.0,0.0,0.0,0.0,0.0,-2.9839,0.0,-3.0965,0.0,-3.6335,-3.6038,-3.5996,-3.582,-3.5371,0.0,-3.4062,-3.1094,-3.0898,-3.0898,-3.0898,-3.0898,-3.0898,-3.0898,-2.9551,0.0,0.0,0.0,-2.0263,-1.7574,-1.6005,-1.5238,-1.5184,0.0,0.0,0.0,-2.3891,-2.6351,-2.7373,-2.7783,-2.8888,-3.0215,-2.9522,-2.9939,-3.0902,-3.0906,-3.0898,-3.0898,-3.0898,-3.0898,-3.0898,-3.0898,-3.0898,-3.0898,-3.0898,-3.0898,-3.0898,-3.0898,-3.0898,-3.0898,-3.0898,-3.0898,-3.0664,-2.9805,-3.0195,-3.0059,-2.7656,-2.6797,-2.6121,0.0,0.0,0.0,-1.5004,0.0,0.0,0.0,0.0,0.0,0.0,0.0,0.0,0.0,0.0,-1.1702,-1.1745,-1.2808,-1.498,0.0,0.0,0.0,-2.3655,-2.4771,0.0,-2.4572,0.0,-2.8725,-2.8278,-2.9729,-3.0482,-3.0598,-3.0598,-3.0598,-3.0598,-3.0598,-3.0598,-3.0598,-3.0598,-3.0598,-3.0598,-3.0598,-3.0598,-3.0598,-3.0598,-3.0598,-3.0598,0.0,0.0,0.0,0.0,0.0,-3.0341,-3.5533,-3.5503,-3.3945,-3.1261,-3.2127,-3.3751,-3.5786,-3.5996,-3.4863,-3.2031,-3.1797,0.0,0.0,0.0,0.0,-3.0898,-3.0898,-3.0898,-3.0898,-2.9004,-2.7277,0.0,-2.2439,-1.9702,-1.7574,-1.6005,-1.4952,-1.4345,0.0,0.0,-2.1425,-2.3891,0.0,-2.871,-2.9117,-2.9869,-3.0749,-3.0621,-3.0708,-3.0903,-3.0895,-3.0898,-3.0898,-3.0898,-3.0898,-3.0898,-3.0898,-3.0898,-3.0898,-3.0898,-3.0898,-3.0898,-3.0898,-3.0898,-3.0898,-3.0898,-3.0898,-3.0664,-2.9805,-2.9726,-2.9492,-2.8301,-2.7996,-2.7301,-2.5233,0.0,0.0,0.0,0.0,0.0,0.0,0.0,0.0,0.0,0.0,0.0,0.0,0.0,0.0,0.0,0.0,0.0,0.0,0.0,0.0,0.0,-2.2744,0.0,0.0,0.0,-2.8164,-3.0111,-2.9719,-2.9901,-3.0598,-3.0598,-3.0598,-3.0598,-3.0598,-3.0598,-3.0598,-3.0598,-3.0598,-3.0598,-3.0598,-3.0598,-3.0598,-3.0598,-3.0598,-3.0598,0.0,0.0,0.0,0.0,0.0,0.0,0.0,-3.8005,0.0,-3.3769,-3.2333,-3.2636,-3.5661,-3.4414,-3.2695,-3.1035,-3.0898,-3.0898,-3.0898,-3.0898,-3.0898,-3.0898,-3.0898,0.0,-3.0898,-2.9922,-2.8298,-2.6004,-2.3446,-2.0623,-1.7574,-1.6005,-1.4863,-1.4221,0.0,-1.9682,0.0,0.0,0.0,-2.9074,-2.9926,-3.0527,-3.0897,-3.0901,-3.0892,-3.0898,-3.0898,-3.0898,-3.0898,-3.0898,-3.0898,-3.0898,-3.0898,-3.0898,-3.0898,-3.0898,-3.0898,-3.0898,-3.0898,-3.0898,-3.0898,-3.0898,-3.0898,-3.0781,-3.0371,-3.0273,-3.0039,-2.9141,-2.8977,-2.8139,-2.5395,-2.3415,0.0,0.0,0.0,0.0,0.0,0.0,0.0,0.0,0.0,0.0,0.0,0.0,0.0,0.0,0.0,0.0,0.0,0.0,0.0,0.0,0.0,0.0,0.0,0.0,0.0,-2.9202,-2.9271,-2.9766,-3.0598,-3.0598,-3.0598,-3.0598,-3.0598,-3.0598,-3.0598,-3.0598,-3.0598,-3.0598,-3.0598,-3.0598,-3.0598,-3.0598,-3.0598,-3.0656,0.0,-3.1365,0.0,0.0,-3.0737,0.0,-4.1524,-3.8821,-3.5996,-3.5996,-3.3652,-3.3008,-3.5703,-3.3594,-3.1699,-3.0957,-3.0898,-3.0898,-3.0898,-3.0898,-3.0898,-3.0898,-3.0898,-3.0898,-3.0898,-3.0898,-2.9422,0.0,-2.4579,-2.1826,-1.8198,-1.6393,-1.5425,0.0,0.0,0.0,0.0,0.0,-2.9016,-2.9502,-3.0507,-3.0898,-3.0898,-3.0898,-3.0898,-3.0898,-3.0898,-3.0898,-3.0898,-3.0898,-3.0898,-3.0898,-3.0898,-3.0898,-3.0898,-3.0898,-3.0898,-3.0898,-3.0898,-3.0898,-3.0898,-3.0898,-3.0898,-3.0898,-3.0898,-3.0898,-3.0703,-3.0019,-2.9574,-2.8543,-2.606,-2.5137,0.0,0.0,0.0,0.0,0.0,0.0,0.0,0.0,0.0,0.0,0.0,0.0,0.0,0.0,0.0,-1.369,-1.588,-1.6253,0.0,0.0,0.0,-2.3217,-2.4066,0.0,-2.7477,0.0,-2.8683,-2.9476,-3.0327,-3.052,-3.0598,-3.0598,-3.0598,-3.0598,-3.0598,-3.0598,-3.0598,-3.0598,-3.0598,-3.0598,-3.0598,-3.0598,-3.0598,-3.0714,0.0,0.0,0.0,0.0,0.0,0.0,0.0,-3.8306,-3.5996,-3.5996,-3.5723,-3.5644,-3.5976,-3.5703,-3.4277,-3.1172,-3.0898,-3.0898,-3.0898,-3.0898,-3.0898,-3.0898,-3.0898,-3.0898,-3.0898,-3.0898,-2.9824,0.0,0.0,-2.2531,0.0,-1.757,0.0,0.0,0.0,0.0,0.0,-2.7526,-2.9065,-3.0728,-3.0858,-3.0898,-3.0898,-3.0898,-3.0898,-3.0898,-3.0898,-3.0898,-3.0898,-3.0898,-3.0898,-3.0898,-3.0898,-3.0898,-3.0898,-3.0898,-3.0898,-3.0898,-3.0898,-3.0898,-3.0898,-3.0898,-3.0898,-3.0898,-3.0898,-3.0898,-3.0879,-3.0801,-2.9472,-2.824,-2.7954,-2.6105,-2.3688,0.0,0.0,0.0,0.0,0.0,0.0,0.0,0.0,0.0,0.0,0.0,0.0,0.0,0.0,-1.3728,-1.588,-1.5406,-1.6709,-2.0263,0.0,-2.1512,-2.3635,-2.4369,-2.5836,-2.7991,-2.8076,-2.8567,-2.9457,-3.023,-3.0598,-3.0598,-3.0598,-3.0598,-3.0598,-3.0598,-3.0598,-3.0598,-3.0598,-3.0598,-3.0598,-3.0598,-3.0598,-3.0714,0.0,0.0,0.0,0.0,0.0,0.0,0.0,-3.6891,-3.5996,-3.5996,-3.5996,-3.5996,-3.5996,-3.418,-3.2383,-3.1016,-3.0898,-3.0898,-3.0898,-3.0898,-3.0898,-3.0898,-3.0898,-3.0898,-3.0898,-3.0898,-3.0118,0.0,0.0,0.0,0.0,0.0,0.0,0.0,0.0,-2.543,-2.7468,-2.9043,-3.0165,-3.0898,-3.0898,-3.0898,-3.0898,-3.0898,-3.0898,-3.0898,-3.0898,-3.0898,-3.0898,-3.0898,-3.0898,-3.0898,-3.0898,-3.0898,-3.0898,-3.0898,-3.0898,-3.0898,-3.0898,-3.0898,-3.0898,-3.0898,-3.0898,-3.0898,-3.0898,-3.0898,-3.0898,-3.0898,-3.0293,-2.9449,-2.8384,-2.7387,-2.588,0.0,0.0,0.0,0.0,0.0,0.0,0.0,0.0,0.0,0.0,0.0,0.0,0.0,0.0,0.0,-1.4611,-1.5644,-1.76,-2.0751,0.0,-2.2955,-2.4729,-2.496,-2.5811,-2.7287,-2.7778,-2.8451,-2.9321,-3.0192,-3.0598,-3.0598,-3.0598,-3.0598,-3.0598,-3.0598,-3.0598,-3.0598,-3.0598,-3.0598,-3.0598,-3.0598,-3.0598,-3.0791,-3.7193,0.0,-4.0412,0.0,-3.8961,-3.8266,-3.6214,-3.5907,-3.5907,-3.5907,-3.5951,-3.5996,-3.5996,-3.2949,-3.0898,-3.0898,-3.0898,-3.0898,-3.0898,-3.0898,-3.0898,-3.0898,-3.0898,0.0,-3.0898,-3.0898,-3.0465,-2.9555,-2.7778,0.0,0.0,0.0,0.0,0.0,-2.6506,-2.7647,-2.8804,-3.0283,-3.0898,-3.0898,-3.0898,-3.0898,-3.0898,-3.0898,-3.0898,-3.0898,-3.0898,-3.0898,-3.0898,-3.0898,-3.0898,-3.0898,-3.0898,-3.0898,-3.0898,-3.0898,-3.0898,-3.0898,-3.0898,-3.0898,-3.0898,-3.0898,-3.0898,-3.0898,-3.0898,-3.0898,-3.0898,-3.0898,-3.0637,-3.0046,-2.877,-2.8107,-2.6978,-2.47,0.0,0.0,0.0,0.0,0.0,0.0,-1.8937,-1.9098,-1.9829,0.0,0.0,0.0,0.0,0.0,0.0,-1.6021,0.0,0.0,0.0,0.0,0.0,-2.5105,-2.5734,-2.6776,-2.7604,-2.8451,-2.9321,-3.0192,-3.0598,-3.0598,-3.0598,-3.0598,-3.0598,-3.0598,-3.0598,-3.0598,-3.0598,-3.0598,-3.0598,-3.0598,-3.0598,-3.0772,-4.0732,-4.0771,-4.079,-4.0759,-4.0778,-3.9618,-3.6218,-3.5695,-3.5695,-3.5695,-3.588,-3.5996,-3.5996,-3.2949,-3.0898,-3.0898,-3.0898,-3.0898,-3.0898,-3.0898,-3.0898,0.0,0.0,-3.0898,-3.0898,-3.0898,-3.0898,-3.0879,0.0,0.0,-2.7712,0.0,-2.6301,-2.9007,-2.8147,-2.8933,-3.0859,-3.0898,-3.0898,-3.0898,-3.0898,-3.0898,-3.0898,-3.0898,-3.0898,-3.0898,-3.0898,-3.0898,-3.0898,-3.0898,-3.0898,-3.0898,-3.0898,-3.0898,-3.0898,-3.0898,-3.0898,-3.0898,-3.0898,-3.0898,-3.0898,-3.0898,-3.0898,-3.0898,-3.0898,-3.0898,-3.0898,-3.0898,-3.0171,-2.9481,-2.9396,-2.7984,-2.6137,-2.406,0.0,0.0,0.0,0.0,0.0,0.0,-1.8225,-1.8391,-1.9143,0.0,0.0,0.0,0.0,0.0,0.0,0.0,0.0,-2.1177,-2.1337,0.0,-2.3412,-2.4153,-2.5252,-2.6721,-2.758,-2.8451,-2.9321,-3.0192,-3.0598,-3.0598,-3.0598,-3.0598,-3.0598,-3.0598,-3.0598,-3.0598,-3.0598,-3.0598,-3.0598,-3.0598,-3.0598,-3.0598,-4.079,-4.079,-4.079,-4.079,-4.079,-3.9649,-3.6226,-3.5704,-3.5704,-3.5704,-3.5765,-3.4904,-3.2558,-3.1346,-3.0698,0.0,-3.0698,-3.075,0.0,-3.0898,-3.0866,-3.0769,-3.0841,-3.0879,-3.082,-3.0879,-3.0898,-3.0898,0.0,0.0,0.0,-2.9747,-3.063,-3.2018,-3.174,-3.1675,-3.1797,-3.1797,-3.1445,-3.0898,-3.0898,-3.0898,-3.0898,-3.0898,-3.0898,-3.0898,-3.0898,-3.0898,-3.0898,-3.0898,-3.0898,-3.0898,-3.0898,-3.0898,-3.0898,-3.0898,-3.0898,-3.0898,-3.0898,-3.0898,-3.0898,-3.0898,-3.0898,-3.0898,-3.0898,-3.0898,-3.0894,-3.0837,-3.0579,-3.019,-2.9513,-2.8958,-2.7817,-2.5513,-2.5431,0.0,0.0,0.0,0.0,0.0,-1.9944,-2.0241,0.0,-1.8827,0.0,0.0,0.0,0.0,0.0,0.0,0.0,0.0,-2.3657,0.0,-2.5626,-2.5932,-2.6569,-2.76,-2.847,-2.934,-3.0192,-3.0462,-3.0598,-3.0598,-3.0598,-3.0598,-3.0598,-3.0598,-3.0598,-3.0598,-3.0598,-3.0598,-3.0598,-3.0598,-3.0598,-3.0675,-4.2667,-4.1661,-4.079,-4.079,-4.079,-4.0075,-3.7928,-3.6535,-3.5704,-3.5704,-3.5704,-3.4891,-3.2745,-3.1371,0.0,-3.0598,-3.0598,-3.0653,-3.0771,-3.0798,-3.0745,-3.0665,-3.0734,-3.0771,-3.0751,0.0,0.0,-3.1348,-3.0879,-3.1266,-3.245,-3.2571,-3.3086,-3.3867,-3.3555,-3.2949,-3.2226,-3.2519,-3.1973,-3.0937,-3.1269,-3.1387,-3.1348,-3.1016,-3.1094,-3.1348,-3.1016,-3.0898,-3.0898,-3.0898,-3.0898,-3.0898,-3.0898,-3.0898,-3.0898,-3.0898,-3.0898,-3.0898,-3.0898,-3.0898,-3.0898,-3.0898,-3.0898,-3.0898,-3.0898,-3.0888,-3.0843,-3.0806,-3.0752,-3.054,-2.9959,-2.9573,-2.8772,-2.6918,-2.667,-2.5813,-2.3281,0.0,0.0,0.0,0.0,0.0,0.0,-2.099,0.0,0.0,0.0,0.0,0.0,0.0,0.0,-2.3367,-2.4825,0.0,-2.6729,-2.7068,-2.7668,-2.8489,-2.936,-3.0075,-3.0598,-3.0598,-3.0598,-3.0598,-3.0598,-3.0598,-3.0598,-3.0598,-3.0598,-3.0598,-3.0598,-3.0598,-3.0598,-3.0598,-3.0598,-3.0675,-4.5742,-4.3092,0.0,0.0,-4.079,0.0,-4.0481,-3.7735,-3.5704,-3.5704,-3.5704,-3.5704,-3.5704,-3.2861,-3.0868,-3.0617,0.0,0.0,0.0,-3.0598,-3.0636,-3.0714,-3.0714,-3.0773,-3.0872,-3.1679,-3.212,-3.2187,-3.3008,-3.4258,-3.5879,-3.4258,-3.3965,-3.4746,-3.3945,-3.3125,-3.2422,-3.3164,-3.2519,-3.1055,-3.1875,-3.2207,-3.2109,-3.123,-3.1445,-3.209,-3.1211,-3.0937,-3.0996,-3.0996,-3.1035,-3.1074,-3.1074,-3.1035,-3.0976,-3.0918,-3.0937,-3.0976,-3.0918,-3.0937,-3.0976,-3.0918,-3.0898,-3.0898,-3.0898,-3.0857,-3.0791,-3.0791,-3.0694,-3.0598,-3.0598,-2.994,-2.9089,-2.815,-2.7329,-2.6014,-2.3809,0.0,0.0,0.0,0.0,0.0,0.0,-2.2564,-2.277,0.0,0.0,0.0,0.0,0.0,-2.2327,-2.3602,-2.5032,-2.6153,-2.6983,-2.7717,-2.8529,-2.9399,-3.0211,-3.0598,-3.0598,-3.0598,-3.0598,-3.0598,-3.0598,-3.0598,-3.0598,-3.0598,-3.0598,-3.0598,-3.0598,-3.0636,-3.0675,-3.0617,-3.0636,-3.0675,0.0,0.0,-4.079,-4.079,-4.079,-3.992,-3.7309,-3.6226,-3.5704,-3.5704,-3.5704,-3.5704,-3.5704,-3.4969,-3.3441,-3.083,-3.0598,-3.0598,-3.0598,-3.0598,-3.0984,-3.1855,-3.1942,-3.2164,-3.2596,-3.285,-3.3025,-3.3086,-3.3301,-3.3945,-3.5,-3.459,-3.4863,-3.5684,-3.5488,-3.4902,-3.4121,-3.4316,-3.3418,-3.1914,-3.2129,-3.2207,-3.2109,-3.123,-3.1445,-3.209,-3.1211,-3.1328,-3.1894,-3.1894,-3.2305,-3.2812,-3.2812,-3.2383,-3.1758,-3.1094,-3.1367,-3.1758,-3.1074,-3.1387,-3.1738,-3.1074,-3.0898,-3.0898,-3.0898,-3.0857,-3.0791,-3.0733,-3.0656,-3.0598,-3.0598,-3.0424,-2.9785,-2.8247,-2.7832,-2.6718,-2.3904,-2.3763,-2.3667,0.0,-2.3023,-2.3616,-2.4664,-2.4759,-2.4399,0.0,0.0,0.0,0.0,-2.5069,-2.6252,-2.5921,-2.6274,-2.7201,-2.8692,-2.8895,-2.9438,-3.0288,-3.0501,-3.0598,-3.0598,-3.0598,-3.0598,-3.0598,-3.0598,-3.0598,-3.0598,-3.0598,-3.0598,-3.0598,-3.0598,-3.0984,-3.1449,-3.083,-3.0984,-3.1429,-4.5349,-4.3071,-4.079,-4.079,-4.079,-4.0172,-3.8315,-3.669,-3.5704,-3.5704,-3.5704,-3.5704,-3.5704,-3.5704,-3.4949,-3.3093,-3.1507,-3.0598,-3.0598,-3.1313,-3.1913,-3.229,-3.2831,-3.314,-3.3161,-3.3576,-3.401,-3.4457,-3.4479,-3.4747,-3.5196,-3.5232,-3.5508,-3.5957,-3.5996,-3.5527,-3.4707,-3.4707,-3.3945,-3.2715,-3.2344,-3.2422,-3.2617,-3.1367,-3.1445,-3.209,-3.1211,-3.1465,-3.2207,-3.2207,-3.2734,-3.3398,-3.3398,-3.3105,-3.2656,-3.2187,-3.2129,-3.2187,-3.207,-3.2129,-3.1992,-3.1113,-3.0898,-3.0897,-3.0852,-3.0806,-3.0739,-3.0674,-3.0636,-3.0598,-3.0598,-3.0598,-3.0037,-2.8277,-2.7798,-2.6776,-2.4347,-2.403,-2.4163,-2.4525,-2.4782,-2.5245,-2.5978,-2.642,-2.6193,-2.5101,0.0,0.0,-2.5095,-2.6623,-2.7144,-2.6277,-2.7316,-2.8335,-2.9282,-2.9689,-3.0133,-3.0598,-3.0598,-3.0598,-3.0617,-3.0984,-3.1159,-3.1178,-3.1565,-3.1526,-3.1159,-3.1159,-3.0926,-3.0598,-3.0598,-3.1101,-3.1758,-3.1313,-3.1429,-3.1739,-4.5586,-4.2984,-4.0746,-4.0746,-4.0778,-4.079,-4.079,-3.7889,-3.5704,-3.5704,-3.5704,-3.5704,-3.5704,-3.5704,-3.5704,-3.5704,-3.3054,-3.1217,-3.0888,-3.2029,-3.2628,-3.2435,-3.3344,-3.375,-3.3488,-3.4214,-3.4949,-3.5704,-3.5757,-3.5781,-3.5807,-3.5851,-3.5873,-3.5896,-3.5957,-3.5566,-3.4863,-3.4746,-3.4199,-3.332,-3.2519,-3.2617,-3.3047,-3.1484,-3.1445,-3.2109,-3.1367,-3.1641,-3.2402,-3.2539,-3.3125,-3.3789,-3.3789,-3.3691,-3.3613,-3.375,-3.3223,-3.2695,-3.3242,-3.2812,-3.2012,-3.1289,-3.0994,-3.0872,-3.0812,-3.0741,-3.0671,-3.0615,-3.0598,-3.0598,-3.0598,-3.0598,-2.9969,-2.8028,-2.7405,-2.6526,-2.4596,0.0,-2.5107,-2.5753,-2.6465,-2.6895,-2.6895,-2.7561,-2.7755,-2.7127,-2.7263,-2.7548,0.0,-2.7726,-2.7105,-2.6133,-2.8179,-2.936,-2.9495,-3.023,-3.0598,-3.0598,-3.0598,-3.0656,-3.0791,-3.1487,-3.1874,-3.2048,-3.2773,-3.2676,-3.201,-3.201,-3.1584,-3.0984,-3.0984,-3.1487,-3.2184,-3.2048,-3.2087,-3.2145,-4.5586,-4.2868,-4.0554,-4.0554,-4.0693,-4.079,-4.079,-3.7889,-3.5704,-3.5704,-3.5704,-3.5704,-3.5704,-3.5704,-3.5704,-3.5704,-3.5201,-3.4079,-3.2164,-3.1371,-3.1584,-3.2919,-3.314,-3.3886,-3.5278,-3.5433,-3.5549,-3.5704,-3.5707,-3.5737,-3.5795,-3.5815,-3.583,-3.5821,-3.5893,-3.584,-3.5664,-3.498,-3.4199,-3.332,-3.2519,-3.2266,-3.2285,-3.1289,-3.1445,-3.2187,-3.2051,-3.2519,-3.332,-3.4062,-3.4883,-3.5605,-3.5605,-3.5098,-3.4648,-3.5371,-3.498,-3.418,-3.3574,-3.2812,-3.2168,-3.2031,-3.1391,-3.0804,-3.081,-3.0703,-3.0615,-3.0607,-3.0598,-3.0598,-3.0598,-3.0598,-2.968,-2.6841,-2.6842,-2.6242,-2.3472,0.0,-2.5773,-2.5946,-2.7054,-2.7793,-2.7793,-2.7909,-2.8238,-2.8857,-2.8936,-2.8747,-2.8278,-2.9398,-2.9387,-2.7937,-2.8805,-2.965,-3.0385,-3.052,-3.0598,-3.0598,-3.0598,-3.0965,-3.1623,-3.1739,-3.2193,-3.2908,-3.3044,-3.3024,-3.2889,-3.2889,-3.2812,-3.2715,-3.2715,-3.3247,-3.3905,-3.317,-3.3363,-3.3789,-4.5586,-4.4316,-4.2662,-4.0816,-4.0583,-4.0646,-4.0646,-3.7758,-3.5623,-3.5693,-3.5704,-3.5704,-3.5704,-3.5704,-3.5704,-3.5704,-3.5704,-3.4988,-3.3325,-3.2145,-3.2203,-3.3731,-3.4253,-3.4872,-3.5684,-3.5704,-3.5704,-3.5704,-3.5704,-3.5723,-3.5742,-3.5742,-3.5747,-3.5752,-3.5846,-3.5896,-3.582,-3.4531,-3.4043,-3.3945,-3.2207,-3.1777,-3.2109,-3.123,-3.1152,-3.1504,-3.1504,-3.2324,-3.3457,-3.3867,-3.4883,-3.5996,-3.5996,-3.5723,-3.5488,-3.5879,-3.5371,-3.4512,-3.3633,-3.2812,-3.209,-3.1621,-3.1175,-3.0828,-3.0768,-3.0694,-3.0636,-3.0617,-3.0598,-3.0598,-3.0598,-3.0598,-2.9862,-2.7662,-2.7627,0.0,0.0,-2.5762,-2.6763,-2.7246,-2.8132,-2.8702,-2.8702,-2.9108,-2.936,-2.9302,-2.9727,-2.9863,-2.9567,-3.022,-3.0269,-2.9567,-2.9834,-3.0192,-3.0598,-3.0598,-3.0598,-3.0617,-3.1043,-3.1449,-3.1835,-3.2764,-3.3421,-3.3828,-3.4292,-3.4234,-3.3808,-3.3808,-3.3518,-3.3102,-3.3102,-3.3604,-3.429,-3.3884,-3.4008,-3.4218,-4.5586,-4.4951,-4.3585,-4.095,-4.0489,-4.0489,-4.0489,-3.7642,-3.556,-3.5673,-3.5662,-3.5639,-3.5639,-3.5639,-3.567,-3.5681,-3.5681,-3.5314,-3.4436,-3.3546,-3.3479,-3.435,-3.522,-3.5704,-3.5704,-3.5704,-3.5704,-3.5704,-3.5704,-3.5704,-3.5704,-3.5704,-3.5704,-3.5704,-3.58,-3.585,-3.5755,-3.4101,-3.3789,-3.4199,-3.1836,-3.1309,-3.1816,-3.1152,-3.0898,-3.0937,-3.1133,-3.2031,-3.3144,-3.334,-3.4414,-3.5703,-3.5703,-3.584,-3.5996,-3.5996,-3.5371,-3.4551,-3.3887,-3.2969,-3.2031,-3.1356,-3.1161,-3.1128,-3.1006,-3.112,-3.1197,-3.0926,-3.0888,-3.083,-3.0636,-3.0598,-3.0122,-2.8627,0.0,0.0,0.0,-2.7333,-2.8074,-2.8823,-2.9145,-2.9379,-2.9563,-3.0017,-3.0095,-2.9612,-3.0395,-3.0791,-3.0588,-3.0762,-3.0782,-3.0579,-3.0588,-3.0598,-3.0598,-3.0598,-3.0598,-3.0617,-3.1429,-3.1913,-3.2145,-3.3692,-3.4505,-3.4737,-3.5394,-3.5287,-3.4668,-3.4687,-3.4174,-3.3401,-3.3594,-3.3931,-3.4314,-3.4527,-3.4612,-3.4557,-4.5586,-4.3047,-4.0796,-4.0527,-4.0489,-4.0489,-4.0489,-3.7642,-3.556,-3.5673,-3.5579,-3.552,-3.552,-3.552,-3.5547,-3.5604,-3.5604,-3.5577,-3.5492,-3.5396,-3.5071,-3.4427,-3.522,-3.5704,-3.5704,-3.5704,-3.5704,-3.5704,-3.5704,-3.5704,-3.5704,-3.5704,-3.5704,-3.5704,-3.5704,-3.5698,-3.56,-3.4051,-3.3437,-3.334,-3.1601,-3.0937,-3.0996,-3.0918,-3.0898,-3.1016,-3.1816,-3.2187,-3.2402,-3.3144,-3.4023,-3.4805,-3.4805,-3.5351,-3.5996,-3.5996,-3.5371,-3.4687,-3.4629,-3.3437,-3.2162,-3.2038,-3.1955,-3.1896,-3.1844,-3.2396,-3.2676,-3.1894,-3.1719,-3.1487,-3.0733,-3.0598,-3.0181,-2.8881,0.0,0.0,-2.8616,-2.9136,-2.98,-3.0375,-2.9757,-2.9583,-3.0346,-2.9786,-2.967,-3.0355,-3.1226,-3.1362,-3.0559,-3.1284,-3.1351,-3.0528,-3.0579,-3.0598,-3.0598,-3.0598,-3.0598,-3.0617,-3.1429,-3.2212,-3.3044,-3.3963,-3.4833,-3.5607,-3.5623,-3.5574,-3.5504,-3.5519,-3.5005,-3.4291,-3.5102,-3.4967,-3.4407,-3.5218,-3.5507,-3.5379,-4.2835,-4.1373,-4.0489,-4.0489,-4.0489,-4.0489,-4.0489,-3.9411,-3.7868,-3.5843,-3.5534,-3.5493,-3.5493,-3.5547,-3.556,-3.5547,-3.5534,-3.5572,-3.5604,-3.5604,-3.5473,-3.522,-3.551,-3.5673,-3.5643,-3.5673,-3.5673,-3.5643,-3.5673,-3.5704,-3.5704,-3.5704,-3.5704,-3.5704,-3.5704,-3.5697,-3.5601,-3.4015,-3.3349,-3.3242,-3.1523,-3.0859,-3.0898,-3.0898,-3.0898,-3.0937,-3.1269,-3.1738,-3.2246,-3.2559,-3.3574,-3.4707,-3.4707,-3.5293,-3.5996,-3.5996,-3.5371,-3.4707,-3.4707,-3.3848,-3.294,-3.2906,-3.2483,-3.2178,-3.2619,-3.2522,-3.2396,-3.256,-3.2599,-3.2502,-3.2222,-3.2145,-3.1868,-3.1006,0.0,-3.1604,-3.0914,-3.1397,-3.1908,-3.2124,-3.1823,-3.1727,-3.2074,-3.1804,-3.1706,-3.2042,-3.2362,-3.2411,-3.2072,-3.2362,-3.2149,-3.1259,-3.1262,-3.1032,-3.053,-3.053,-3.0811,-3.1352,-3.2203,-3.3044,-3.3873,-3.4754,-3.5322,-3.5628,-3.5596,-3.5596,-3.5596,-3.5604,-3.5399,-3.5128,-3.5456,-3.5367,-3.5085,-3.5412,-3.5534,-3.5489,-4.1162,-4.0489,-4.0489,-4.0489,-4.0489,-4.0489,-4.0489,-4.0489,-3.9662,-3.7373,-3.6161,-3.5493,-3.5493,-3.5547,-3.5541,-3.5507,-3.5495,-3.5515,-3.556,-3.5591,-3.5616,-3.5681,-3.5681,-3.5651,-3.5608,-3.5651,-3.5651,-3.5608,-3.5651,-3.5681,-3.5681,-3.5681,-3.5662,-3.5673,-3.5673,-3.5673,-3.5588,-3.3963,-3.3301,-3.3197,-3.1482,-3.082,-3.0879,-3.0898,-3.0898,-3.0898,-3.0898,-3.1289,-3.1797,-3.1797,-3.2734,-3.3965,-3.4219,-3.5078,-3.5996,-3.5996,-3.5586,-3.5117,-3.5117,-3.4668,-3.4075,-3.3507,-3.3113,-3.2987,-3.3469,-3.3334,-3.317,-3.346,-3.3518,-3.3421,-3.314,-3.3102,-3.3048,-3.29,-3.3229,-3.3315,-3.2862,-3.3199,-3.3376,-3.3106,-3.2794,-3.2717,-3.3037,-3.2775,-3.2694,-3.2952,-3.3234,-3.34,-3.3369,-3.3149,-3.2713,-3.2104,-3.2097,-3.1838,-3.1281,-3.0751,-3.0935,-3.1786,-3.2656,-3.3495,-3.4334,-3.5203,-3.5596,-3.5591,-3.5591,-3.556,-3.556,-3.5566,-3.5412,-3.5181,-3.547,-3.538,-3.5123,-3.5393,-3.5501,-3.5493,-4.1162,-4.0489,-4.0489,-4.0489,-4.0489,-4.0489,-4.0489,-4.0489,-4.0489,-4.0489,-3.7603,-3.5532,-3.5493,-3.5493,-3.5493,-3.5493,-3.5493,-3.5501,-3.5502,-3.556,-3.5591,-3.5591,-3.5591,-3.5591,-3.5591,-3.5591,-3.5591,-3.5591,-3.5591,-3.5591,-3.5591,-3.5591,-3.5596,-3.5601,-3.5601,-3.5643,-3.5588,-3.3914,-3.3209,-3.3054,-3.1441,-3.0801,-3.0801,-3.0879,-3.0898,-3.0898,-3.0898,-3.0898,-3.0898,-3.0898,-3.1484,-3.2344,-3.3164,-3.4609,-3.5996,-3.5996,-3.5996,-3.5996,-3.5996,-3.5996,-3.5584,-3.3765,-3.391,-3.4483,-3.4427,-3.5065,-3.5452,-3.4582,-3.4408,-3.4156,-3.3276,-3.3121,-3.3402,-3.4272,-3.4348,-3.4306,-3.4306,-3.4311,-3.3998,-3.3111,-3.2262,-3.2077,-3.294,-3.2251,-3.2066,-3.2852,-3.3769,-3.4275,-3.4212,-3.3446,-3.2991,-3.291,-3.2967,-3.2998,-3.2998,-3.1356,-3.0923,-3.1722,-3.2601,-3.3469,-3.4345,-3.5206,-3.5591,-3.5591,-3.5528,-3.5502,-3.5502,-3.5501,-3.4988,-3.4295,-3.5161,-3.4968,-3.4314,-3.518,-3.5493,-3.5493,-4.1162,-4.0489,-4.0489,-4.0489,-4.0489,-4.0489,-4.0489,-4.0489,-4.0489,-4.0489,-3.9623,-3.8104,-3.5757,-3.5493,-3.5493,-3.5493,-3.5493,-3.5507,-3.5501,-3.5515,-3.5534,-3.5534,-3.5566,-3.5591,-3.5528,-3.5591,-3.5591,-3.5528,-3.5591,-3.5591,-3.5591,-3.5591,-3.5604,-3.5596,-3.5596,-3.5261,-3.4646,-3.3583,-3.2801,-3.2203,-3.1103,-3.0728,-3.0801,-3.082,-3.0859,-3.0898,-3.0898,-3.0898,-3.0898,-3.0898,-3.1855,-3.3301,-3.4766,-3.5586,-3.5996,-3.5996,-3.5996,-3.5996,-3.5996,-3.6445,-3.6619,-3.5368,-3.482,-3.4707,-3.5201,-3.5027,-3.4891,-3.524,-3.5298,-3.522,-3.4908,-3.49,-3.4997,-3.5203,-3.5234,-3.5203,-3.5155,-3.5142,-3.5053,-3.4783,-3.4526,-3.4475,-3.4732,-3.4526,-3.4462,-3.4718,-3.4982,-3.5116,-3.5116,-3.4866,-3.4462,-3.3833,-3.3827,-3.3539,-3.2942,-3.2478,-3.2675,-3.3535,-3.3786,-3.4345,-3.5149,-3.5412,-3.5522,-3.5534,-3.5501,-3.5501,-3.5501,-3.5507,-3.5353,-3.5141,-3.5411,-3.5353,-3.5141,-3.5411,-3.5493,-3.5493,-4.0912,-4.0489,-4.0489,-4.0489,-3.9392,-3.8527,-3.8527,-3.8527,-3.8988,-4.0315,-3.9354,-3.8007,-3.6642,-3.5911,-3.5493,-3.5493,-3.5493,-3.5493,-3.5493,-3.5493,-3.5493,-3.5493,-3.5547,-3.5541,-3.5509,-3.5541,-3.5541,-3.5509,-3.5541,-3.5554,-3.5554,-3.5554,-3.5566,-3.556,-3.5193,-3.4762,-3.4218,-3.307,-3.2308,-3.1787,-3.0946,-3.0644,-3.0719,-3.0743,-3.0797,-3.0898,-3.1221,-3.1362,-3.1465,-3.1777,-3.2793,-3.4101,-3.5156,-3.5723,-3.5996,-3.5996,-3.5996,-3.5996,-3.5996,-3.6374,-3.6679,-3.6395,-3.5946,-3.5607,-3.5684,-3.5278,-3.5143,-3.5994,-3.6176,-3.6165,-3.6134,-3.6122,-3.6122,-3.6074,-3.5797,-3.5669,-3.5978,-3.572,-3.5509,-3.5509,-3.5501,-3.5488,-3.5495,-3.5501,-3.5493,-3.5493,-3.5493,-3.5493,-3.5493,-3.5493,-3.5257,-3.4737,-3.4718,-3.4468,-3.393,-3.427,-3.4392,-3.425,-3.425,-3.4693,-3.5509,-3.5509,-3.5501,-3.5493,-3.5493,-3.5493,-3.5493,-3.5493,-3.5493,-3.5493,-3.5493,-3.5493,-3.5493,-3.5493,-3.5493,-3.5493,-4.0489,-4.0489,-4.0489,-4.0489,-3.7853,-3.568,-3.5512,-3.5641,-3.6776,-3.9662,-3.7392,-3.6084,-3.7603,-3.6411,-3.5493,-3.5493,-3.5493,-3.5493,-3.5493,-3.5493,-3.5493,-3.5493,-3.5493,-3.5493,-3.5493,-3.5493,-3.5493,-3.5493,-3.5493,-3.5493,-3.5493,-3.5493,-3.5501,-3.5464,-3.4674,-3.4301,-3.4183,-3.2596,-3.1853,-3.1718,-3.0917,-3.0598,-3.0616,-3.0671,-3.0726,-3.0892,-3.1724,-3.2081,-3.2321,-3.3223,-3.4043,-3.4707,-3.4785,-3.5351,-3.5996,-3.5996,-3.6055,-3.6113,-3.6113,-3.6187,-3.6396,-3.7043,-3.7277,-3.708,-3.614,-3.5916,-3.6129,-3.6864,-3.7015,-3.7011,-3.7011,-3.6877,-3.6813,-3.691,-3.617,-3.5888,-3.6683,-3.6117,-3.5584,-3.5526,-3.5493,-3.5532,-3.5603,-3.5622,-3.5584,-3.5526,-3.5584,-3.5622,-3.5622,-3.5622,-3.5622,-3.5622,-3.5545,-3.5493,-3.5493,-3.6238,-3.5834,-3.4314,-3.4468,-3.4872,-3.5493,-3.557,-3.5584,-3.5493,-3.5493,-3.5493,-3.5493,-3.5493,-3.5493,-3.5493,-3.5493,-3.5493,-3.5493,-3.5493,-3.5493,-3.5493,-4.0489,-4.0489,-4.0489,-4.0489,-3.8815,-3.7026,-3.5699,-3.6622,-3.7257,-3.6661,-3.5949,-3.5641,-3.6007,-3.5718,-3.5493,-3.5493,-3.5493,-3.5493,-3.5493,-3.5493,-3.5493,-3.5493,-3.5493,-3.5493,-3.5493,-3.5493,-3.5493,-3.5493,-3.5493,-3.5493,-3.5493,-3.5493,-3.5507,-3.5501,-3.5309,-3.486,-3.4154,-3.3169,-3.2351,-3.1637,-3.0839,-3.0559,-3.0607,-3.0623,-3.0665,-3.0843,-3.1757,-3.2106,-3.2365,-3.3895,-3.4531,-3.4824,-3.5508,-3.5859,-3.5996,-3.5996,-3.6484,-3.7012,-3.7012,-3.7968,-3.8818,-3.8255,-3.8581,-3.881,-3.787,-3.7653,-3.7699,-3.7878,-3.788,-3.7829,-3.7842,-3.727,-3.7012,-3.7632,-3.7049,-3.6568,-3.6694,-3.6565,-3.6219,-3.557,-3.5493,-3.5757,-3.6392,-3.6449,-3.618,-3.5565,-3.6084,-3.6449,-3.6449,-3.6449,-3.6449,-3.6449,-3.5834,-3.5493,-3.5493,-3.568,-3.5584,-3.5238,-3.6546,-3.6584,-3.5512,-3.6161,-3.6103,-3.5493,-3.5493,-3.5493,-3.5493,-3.5493,-3.5493,-3.5493,-3.5493,-3.5493,-3.5493,-3.5493,-3.5493,-3.5493,-4.0489,-4.0489,-4.0489,-4.0489,-3.8892,-3.7315,-3.6449,-3.7065,-3.7488,-3.7123,-3.6161,-3.5705,-3.6243,-3.5834,-3.5493,-3.5493,-3.5493,-3.5493,-3.5493,-3.5493,-3.5493,-3.5493,-3.5103,-3.5064,-3.5474,-3.5084,-3.5084,-3.5493,-3.5493,-3.5493,-3.5493,-3.5493,-3.5493,-3.5488,-3.5064,-3.4635,-3.4129,-3.2902,-3.2116,-3.1634,-3.0818,-3.053,-3.054,-3.055,-3.0588,-3.083,-3.2115,-3.3103,-3.3968,-3.4949,-3.5273,-3.535,-3.581,-3.5974,-3.6074,-3.6465,-3.6621,-3.6853,-3.7669,-3.8198,-3.8598,-3.8887,-3.925,-3.9277,-3.8407,-3.8201,-3.8305,-3.8691,-3.8717,-3.867,-3.867,-3.8309,-3.8127,-3.8561,-3.7926,-3.7502,-3.7892,-3.7584,-3.7161,-3.6738,-3.6699,-3.6873,-3.7276,-3.7315,-3.7161,-3.6719,-3.7084,-3.7315,-3.7315,-3.7315,-3.7315,-3.7315,-3.6507,-3.6276,-3.6699,-3.6699,-3.6699,-3.6699,-3.7161,-3.7142,-3.6719,-3.7142,-3.7084,-3.668,-3.6257,-3.6084,-3.6045,-3.5661,-3.5493,-3.5493,-3.5493,-3.5493,-3.5493,-3.5493,-3.5493,-3.5493,-4.0489,-4.0489,-4.0489,-4.0489,-3.8873,-3.7565,-3.7565,-3.7565,-3.7815,-3.8565,-3.7199,-3.6411,-3.7046,-3.6161,-3.5493,-3.5493,-3.5493,-3.5493,-3.5493,-3.5493,-3.5493,-3.5493,-3.4814,-3.4757,-3.5488,-3.4795,-3.4776,-3.5493,-3.5493,-3.5493,-3.5493,-3.5493,-3.5493,-3.5468,-3.4737,-3.441,-3.4314,-3.2774,-3.2035,-3.1842,-3.1017,-3.0614,-3.0479,-3.0471,-3.0617,-3.0994,-3.257,-3.4235,-3.5728,-3.5848,-3.5873,-3.5888,-3.5896,-3.5936,-3.6122,-3.696,-3.6833,-3.6769,-3.8297,-3.8249,-3.8089,-3.948,-3.9709,-3.9432,-3.8756,-3.8601,-3.8801,-3.9469,-3.9543,-3.9514,-3.9528,-3.9403,-3.9354,-3.9469,-3.8777,-3.8469,-3.92,-3.8681,-3.8161,-3.8027,-3.8123,-3.8161,-3.8007,-3.8123,-3.8161,-3.8007,-3.8142,-3.8219,-3.8219,-3.8219,-3.8219,-3.8219,-3.7373,-3.7276,-3.7988,-3.8007,-3.8065,-3.82,-3.7488,-3.745,-3.8007,-3.8142,-3.8142,-3.7969,-3.7238,-3.6853,-3.6661,-3.5988,-3.5608,-3.5493,-3.5493,-3.5493,-3.5493,-3.5493,-3.5493,-3.5493,-4.0489,-4.0489,-4.0489,-4.0489,-3.9681,-3.9008,-3.9008,-3.9008,-3.8796,-3.818,-3.8488,-3.8277,-3.693,-3.6007,-3.5493,-3.5493,-3.5493,-3.5493,-3.5493,-3.5493,-3.5493,-3.5493,-3.5391,-3.5391,-3.5507,-3.5391,-3.5391,-3.5493,-3.5493,-3.5493,-3.5493,-3.5493,-3.5493,-3.5474,-3.5391,-3.5334,-3.5257,-3.4283,-3.3436,-3.2673,-3.1862,-3.1102,-3.0398,-3.0409,-3.0882,-3.1686,-3.2803,-3.4313,-3.5785,-3.5805,-3.5818,-3.5825,-3.5884,-3.586,-3.5999,-3.6938,-3.7668,-3.8356,-3.9285,-3.9956,-4.0436,-4.0674,-4.0578,-4.0409,-4.0293,-4.0284,-4.0309,-4.0414,-4.0376,-4.0365,-4.0414,-3.9807,-3.9527,-4.0219,-3.9642,-3.9161,-3.9277,-3.92,-3.8834,-3.8084,-3.8661,-3.8834,-3.8065,-3.8681,-3.8815,-3.8065,-3.87,-3.9123,-3.9123,-3.9123,-3.9123,-3.9123,-3.8277,-3.7873,-3.8007,-3.8007,-3.8373,-3.9123,-3.8988,-3.8623,-3.8027,-3.8777,-3.87,-3.7988,-3.7873,-3.7411,-3.6699,-3.6584,-3.6142,-3.5493,-3.5493,-3.5493,-3.5493,-3.5493,-3.5493,-3.5493,-4.0585,-4.0489,-4.0489,-4.0489,-3.9815,-3.9296,-3.9296,-3.9296,-3.9161,-3.8777,-3.9065,-3.8815,-3.7565,-3.6276,-3.5493,-3.5493,-3.5493,-3.5493,-3.5493,-3.5493,-3.5493,-3.5493,-3.5026,-3.5007,-3.5474,-3.5026,-3.5007,-3.5493,-3.5493,-3.5493,-3.5474,-3.5007,-3.4776,-3.4757,-3.4257,-3.4314,-3.468,-3.3365,-3.3115,-3.3468,-3.1691,-3.1049,-3.1068,-3.0579,-3.0937,-3.1885,-3.3313,-3.4629,-3.5681,-3.5723,-3.5776,-3.5818,-3.5827,-3.5889,-3.6175,-3.748,-3.7832,-3.8155,-3.9936,-4.0266,-4.0235,-4.0712,-4.0723,-4.0598,-4.0598,-4.0569,-4.0539,-4.0549,-4.0519,-4.0504,-4.0539,-4.0235,-4.0085,-4.0431,-4.02,-3.9969,-3.9969,-3.9969,-3.9815,-3.9431,-3.9738,-3.9815,-3.9431,-3.9738,-3.9796,-3.9431,-3.9738,-3.9969,-3.9969,-3.9969,-3.9969,-3.9969,-3.9161,-3.8931,-3.9392,-3.895,-3.9142,-3.9969,-3.9969,-3.9758,-3.9411,-3.9777,-3.9758,-3.9373,-3.8911,-3.8507,-3.8084,-3.7103,-3.6488,-3.6142,-3.568,-3.5493,-3.5488,-3.5528,-3.5565,-3.5558]}]]